[[{"header":{"parameterUnit":"m.s-1","parameterCategory":1,"la1":30.6,"la2":28.766,"lo1":-90.7593,"lo2":-88.6598,"dy":0.0162,"dx":0.0183,"nx":116,"ny":114,"refTime":"2024-02-11T06:00:00:Z","depth":0,"parameterNumber":2,"parameterNumberName":"U-component_of_WINDS"},"data":[0.0,0.0,0.0,0.0,0.0,0.0,0.0,0.0,0.0,0.0,0.0,0.0,0.0,0.0,0.0,0.0,0.0,0.0,0.0,0.0,0.0,0.0,0.0,0.0,0.0,0.0,0.0,0.0,0.0,0.0,0.0,0.0,0.0,0.0,0.0,0.0,0.0,0.0,0.0,0.0,0.0,0.0,0.0,0.0,0.0,0.0,0.0,0.0,0.0,0.0,0.0,0.0,0.0,0.0,0.0,0.0,0.0,0.0,0.0,0.0,0.0,0.0,0.0,0.0,0.0,0.0,0.0,0.0,0.0,0.0,0.0,0.0,0.0,0.0,0.0,0.0,0.0,0.0,0.0,0.0,0.0,0.0,0.0,0.0,0.0,0.0,0.0,0.0,0.0,0.0,0.0,0.0,0.0,0.0,0.0,0.0,0.0,0.0,0.0,0.0,0.0,0.0,0.0,0.0,0.0,0.0,0.0,0.0,0.0,0.0,0.0,0.0,0.0,0.0,0.0,0.0,0.0,0.0,0.0,0.0,0.0,0.0,0.0,0.0,0.0,0.0,0.0,0.0,0.0,0.0,0.0,0.0,0.0,0.0,0.0,0.0,0.0,0.0,0.0,0.0,0.0,0.0,0.0,0.0,0.0,0.0,0.0,0.0,0.0,0.0,0.0,0.0,0.0,0.0,0.0,0.0,0.0,0.0,0.0,0.0,0.0,0.0,0.0,0.0,0.0,0.0,0.0,0.0,0.0,0.0,0.0,0.0,0.0,0.0,0.0,0.0,0.0,0.0,0.0,0.0,0.0,0.0,0.0,0.0,0.0,0.0,0.0,0.0,0.0,0.0,0.0,0.0,0.0,0.0,0.0,0.0,0.0,0.0,0.0,0.0,0.0,0.0,0.0,0.0,0.0,0.0,0.0,0.0,0.0,0.0,0.0,0.0,0.0,0.0,0.0,0.0,0.0,0.0,0.0,0.0,0.0,0.0,0.0,0.0,0.0,0.0,0.0,0.0,0.0,0.0,0.0,0.0,0.0,0.0,0.0,0.0,0.0,0.0,0.0,0.0,0.0,0.0,0.0,0.0,0.0,0.0,0.0,0.0,0.0,0.0,0.0,0.0,0.0,0.0,0.0,0.0,0.0,0.0,0.0,0.0,0.0,0.0,0.0,0.0,0.0,0.0,0.0,0.0,0.0,0.0,0.0,0.0,0.0,0.0,0.0,0.0,0.0,0.0,0.0,0.0,0.0,0.0,0.0,0.0,0.0,0.0,0.0,0.0,0.0,0.0,0.0,0.0,0.0,0.0,0.0,0.0,0.0,0.0,0.0,0.0,0.0,0.0,0.0,0.0,0.0,0.0,0.0,0.0,0.0,0.0,0.0,0.0,0.0,0.0,0.0,0.0,0.0,0.0,0.0,0.0,0.0,0.0,0.0,0.0,0.0,0.0,0.0,0.0,0.0,0.0,0.0,0.0,0.0,0.0,0.0,0.0,0.0,0.0,0.0,0.0,0.0,0.0,0.0,0.0,0.0,0.0,0.0,0.0,0.0,0.0,0.0,0.0,0.0,0.0,0.0,0.0,0.0,0.0,0.0,0.0,0.0,0.0,0.0,0.0,0.0,0.0,0.0,0.0,0.0,0.0,0.0,0.0,0.0,0.0,0.0,0.0,0.0,0.0,0.0,0.0,0.0,0.0,0.0,0.0,0.0,0.0,0.0,0.0,0.0,0.0,0.0,0.0,0.0,0.0,0.0,0.0,0.0,0.0,0.0,0.0,0.0,0.0,0.0,0.0,0.0,0.0,0.0,0.0,0.0,0.0,0.0,0.0,0.0,0.0,0.0,0.0,0.0,0.0,0.0,0.0,0.0,0.0,0.0,0.0,0.0,0.0,0.0,0.0,0.0,0.0,0.0,0.0,0.0,0.0,0.0,0.0,0.0,0.0,0.0,0.0,0.0,0.0,0.0,0.0,0.0,0.0,0.0,0.0,0.0,0.0,0.0,0.0,0.0,0.0,0.0,0.0,0.0,0.0,0.0,0.0,0.0,0.0,0.0,0.0,0.0,0.0,0.0,0.0,0.0,0.0,0.0,0.0,0.0,0.0,0.0,0.0,0.0,0.0,0.0,0.0,0.0,0.0,0.0,0.0,0.0,0.0,0.0,0.0,0.0,0.0,0.0,0.0,0.0,0.0,0.0,0.0,0.0,0.0,0.0,0.0,0.0,0.0,0.0,0.0,0.0,0.0,0.0,0.0,0.0,0.0,0.0,0.0,0.0,0.0,0.0,0.0,0.0,0.0,0.0,0.0,0.0,0.0,0.0,0.0,0.0,0.0,0.0,0.0,0.0,0.0,0.0,0.0,0.0,0.0,0.0,0.0,0.0,0.0,0.0,0.0,0.0,0.0,0.0,0.0,0.0,0.0,0.0,0.0,0.0,0.0,0.0,0.0,0.0,0.0,0.0,0.0,0.0,0.0,0.0,0.0,0.0,0.0,0.0,0.0,0.0,0.0,0.0,0.0,0.0,0.0,0.0,0.0,0.0,0.0,0.0,0.0,0.0,0.0,0.0,0.0,0.0,0.0,0.0,0.0,0.0,0.0,0.0,0.0,0.0,0.0,0.0,0.0,0.0,0.0,0.0,0.0,0.0,0.0,0.0,0.0,0.0,0.0,0.0,0.0,0.0,0.0,0.0,0.0,0.0,0.0,0.0,0.0,0.0,0.0,0.0,0.0,0.0,0.0,0.0,0.0,0.0,0.0,0.0,0.0,0.0,0.0,0.0,0.0,0.0,0.0,0.0,0.0,0.0,0.0,0.0,0.0,0.0,0.0,0.0,0.0,0.0,0.0,0.0,0.0,0.0,0.0,0.0,0.0,0.0,0.0,0.0,0.0,0.0,0.0,0.0,0.0,0.0,0.0,0.0,0.0,0.0,0.0,0.0,0.0,0.0,0.0,0.0,0.0,0.0,0.0,0.0,0.0,0.0,0.0,0.0,0.0,0.0,0.0,0.0,0.0,0.0,0.0,0.0,0.0,0.0,0.0,0.0,0.0,0.0,0.0,0.0,0.0,0.0,0.0,0.0,0.0,0.0,0.0,0.0,0.0,0.0,0.0,0.0,0.0,0.0,0.0,0.0,0.0,0.0,0.0,0.0,0.0,0.0,0.0,0.0,0.0,0.0,0.0,0.0,0.0,0.0,0.0,0.0,0.0,0.0,0.0,0.0,0.0,0.0,0.0,0.0,0.0,0.0,0.0,0.0,0.0,0.0,0.0,0.0,0.0,0.0,0.0,0.0,0.0,0.0,0.0,0.0,0.0,0.0,0.0,0.0,0.0,0.0,0.0,0.0,0.0,0.0,0.0,0.0,0.0,0.0,0.0,0.0,0.0,0.0,0.0,0.0,0.0,0.0,0.0,0.0,0.0,0.0,0.0,0.0,0.0,0.0,0.0,0.0,0.0,0.0,0.0,0.0,0.0,0.0,0.0,0.0,0.0,0.0,0.0,0.0,0.0,0.0,0.0,0.0,0.0,0.0,0.0,0.0,0.0,0.0,0.0,0.0,0.0,0.0,0.0,0.0,0.0,0.0,0.0,0.0,0.0,0.0,0.0,0.0,0.0,0.0,0.0,0.0,0.0,0.0,0.0,0.0,0.0,0.0,0.0,0.0,0.0,0.0,0.0,0.0,0.0,0.0,0.0,0.0,0.0,0.0,0.0,0.0,0.0,0.0,0.0,0.0,0.0,0.0,0.0,0.0,0.0,0.0,0.0,0.0,0.0,0.0,0.0,0.0,0.0,0.0,0.0,0.0,0.0,0.0,0.0,0.0,0.0,0.0,0.0,0.0,0.0,0.0,0.0,0.0,0.0,0.0,0.0,0.0,0.0,0.0,0.0,0.0,0.0,0.0,0.0,0.0,0.0,0.0,0.0,0.0,0.0,0.0,0.0,0.0,0.0,0.0,0.0,0.0,0.0,0.0,0.0,0.0,0.0,0.0,0.0,0.0,0.0,0.0,0.0,0.0,0.0,0.0,0.0,0.0,0.0,0.0,0.0,0.0,0.0,0.0,0.0,0.0,0.0,0.0,0.0,0.0,0.0,0.0,0.0,0.0,0.0,0.0,0.0,0.0,0.0,0.0,0.0,0.0,0.0,0.0,0.0,0.0,0.0,0.0,0.0,0.0,0.0,0.0,0.0,0.0,0.0,0.0,0.0,0.0,0.0,0.0,0.0,0.0,0.0,0.0,0.0,0.0,0.0,0.0,0.0,0.0,0.0,0.0,0.0,0.0,0.0,0.0,0.0,0.0,0.0,0.0,0.0,0.0,0.0,0.0,0.0,0.0,0.0,0.0,0.0,0.0,0.0,0.0,0.0,0.0,0.0,0.0,0.0,0.0,0.0,0.0,0.0,0.0,0.0,0.0,0.0,0.0,0.0,0.0,0.0,0.0,0.0,0.0,0.0,0.0,0.0,0.0,0.0,0.0,0.0,0.0,0.0,0.0,0.0,0.0,0.0,0.0,0.0,0.0,0.0,0.0,0.0,0.0,0.0,0.0,0.0,0.0,0.0,0.0,0.0,0.0,0.0,0.0,0.0,0.0,0.0,0.0,0.0,0.0,0.0,0.0,0.0,0.0,0.0,0.0,0.0,0.0,0.0,0.0,0.0,0.0,0.0,0.0,0.0,0.0,0.0,0.0,0.0,0.0,0.0,0.0,0.0,0.0,0.0,0.0,0.0,0.0,0.0,0.0,0.0,0.0,0.0,0.0,0.0,0.0,0.0,0.0,0.0,0.0,0.0,0.0,0.0,0.0,0.0,0.0,0.0,0.0,0.0,0.0,0.0,0.0,0.0,0.0,0.0,0.0,0.0,0.0,0.0,0.0,0.0,0.0,0.0,0.0,0.0,0.0,0.0,0.0,0.0,0.0,0.0,0.0,0.0,0.0,0.0,0.0,0.0,0.0,0.0,0.0,0.0,0.0,0.0,0.0,0.0,0.0,0.0,0.0,0.0,0.0,0.0,0.0,0.0,0.0,0.0,0.0,0.0,0.0,0.0,0.0,0.0,0.0,0.0,0.0,0.0,0.0,0.0,0.0,0.0,0.0,0.0,0.0,0.0,0.0,0.0,0.0,0.0,0.0,0.0,0.0,0.0,0.0,0.0,0.0,0.0,0.0,0.0,0.0,0.0,0.0,0.0,0.0,0.0,0.0,0.0,0.0,0.0,0.0,0.0,0.0,0.0,0.0,0.0,0.0,0.0,0.0,0.0,0.0,0.0,0.0,0.0,0.0,0.0,0.0,0.0,0.0,0.0,0.0,0.0,0.0,0.0,0.0,0.0,0.0,0.0,0.0,0.0,0.0,0.0,0.0,0.0,0.0,0.0,0.0,0.0,0.0,0.0,0.0,0.0,0.0,0.0,0.0,0.0,0.0,0.0,0.0,0.0,0.0,0.0,0.0,0.0,0.0,0.0,0.0,0.0,0.0,0.0,0.0,0.0,0.0,0.0,0.0,0.0,0.0,0.0,0.0,0.0,0.0,0.0,0.0,0.0,0.0,0.0,0.0,0.0,0.0,0.0,0.0,0.0,0.0,0.0,0.0,0.0,0.0,0.0,0.0,0.0,0.0,0.0,0.0,0.0,0.0,0.0,0.0,0.0,0.0,0.0,0.0,0.0,0.0,0.0,0.0,0.0,0.0,0.0,0.0,0.0,0.0,0.0,0.0,0.0,0.0,0.0,0.0,0.0,0.0,0.0,0.0,0.0,0.0,0.0,0.0,0.0,0.0,0.0,0.0,0.0,0.0,0.0,0.0,0.0,0.0,0.0,0.0,0.0,0.0,0.0,0.0,0.0,0.0,0.0,0.0,0.0,0.0,0.0,0.0,0.0,0.0,0.0,0.0,0.0,0.0,0.0,0.0,0.0,0.0,0.0,0.0,0.0,0.0,0.0,0.0,0.0,0.0,0.0,0.0,0.0,0.0,0.0,0.0,0.0,0.0,0.0,0.0,0.0,0.0,0.0,0.0,0.0,0.0,0.0,0.0,0.0,0.0,0.0,0.0,0.0,0.0,0.0,0.0,0.0,0.0,0.0,0.0,0.0,0.0,0.0,0.0,0.0,1.2097,0.0,0.0,0.0,0.0,0.0,0.0,0.0,0.0,0.0,0.0,0.0,0.0,0.0,0.0,0.0,0.0,0.0,0.0,0.0,0.0,0.0,0.0,0.0,0.0,0.0,0.0,0.0,-0.0135,-0.0157,-0.0191,-0.0225,-0.0225,-0.0191,-0.0281,-0.0404,-0.054,-0.0698,-0.0959,-0.1329,-0.1802,-0.2212,-0.2562,-0.2152,-0.1775,-0.1438,0.0,0.0,0.0,0.0,0.0,0.0,0.0,0.0,0.0,0.0,0.0,0.0,0.0,0.0,0.0,0.0,0.0,0.0,0.0,0.0,0.0,0.0,0.0,0.0,0.0,0.0,0.0,0.0,0.0,0.0,0.0,0.0,0.0,0.0,0.0,0.0,0.0,0.0,0.0,0.0,0.0,0.0,0.0,0.0,0.0,0.0,0.0,0.0,0.0,0.0,0.0,0.0,0.0,0.0,0.0,0.0,0.0,0.0,0.0,0.0,0.0,0.0,0.0,0.0,0.0,0.0,0.0,0.0,0.0,0.0,0.0,1.2535,0.0,0.0,0.0,0.0,0.0,0.0,0.0,0.0,0.0,0.0,0.0,0.0,0.0,0.0,0.0,0.0,0.0,0.0,0.0,0.0,0.0,0.0,0.0,-0.0205,-0.0253,-0.0482,-0.0482,-0.0446,-0.0398,-0.0431,-0.0442,-0.0416,-0.0574,-0.0687,-0.0749,-0.1074,-0.1454,-0.1894,-0.2506,-0.3007,-0.3393,-0.3158,-0.2659,-0.1948,0.0,0.0,0.0,0.0,0.0,0.0,0.0,0.0,0.0,0.0,0.0,0.0,0.0,0.0,0.0,0.0,0.0,0.0,0.0,0.0,0.0,0.0,0.0,0.0,0.0,0.0,0.0,0.0,0.0,0.0,0.0,0.0,0.0,0.0,0.0,0.0,0.0,0.0,0.0,0.0,0.0,0.0,0.0,0.0,0.0,0.0,0.0,0.0,0.0,0.0,0.0,0.0,0.0,0.0,0.0,0.0,0.0,0.0,0.0,0.0,0.0,0.0,0.0,0.0,1.2443,1.2653,1.2163,1.259,1.3046,1.3481,1.3488,1.3688,1.393,0.0,0.0,0.0,0.0,0.0,0.0,0.0,0.0,0.0,0.0,0.0,0.0,0.0,0.0,0.0,0.0,0.0,0.0,0.0,0.0,0.0,0.0,-0.0681,-0.0708,-0.0522,-0.0397,-0.0343,-0.0392,-0.0296,-0.0315,-0.0484,-0.0517,-0.0662,-0.0956,-0.1229,-0.165,-0.224,-0.3182,-0.3703,-0.3815,-0.3944,-0.3798,-0.3394,-0.2592,0.0,0.0,0.0,0.0,0.0,0.0,0.0,0.0,0.0,0.0,0.0,0.0,0.0,0.0,0.0,0.0,0.0,0.0,0.0,0.0,0.0,0.0,0.0,0.0,0.0,0.0,0.0,0.0,0.0,0.0,0.0,0.0,0.0,0.0,0.0,0.0,0.0,0.0,0.0,0.0,0.0,0.0,0.0,0.6507,0.6811,0.0,0.0,0.0,0.0,0.0,0.0,0.0,0.0,0.0,0.0,0.0,0.0,0.0,0.0,1.1814,1.258,1.3034,1.3167,1.3911,1.4404,1.472,1.5026,1.5533,1.6185,1.6236,0.0,1.4617,1.4222,0.0,0.0,0.0,0.0,0.0,0.0,0.0,0.0,0.0,0.0,0.0,0.0,0.0,0.0,0.0,0.0,0.0,0.0,0.0,0.0,0.0,-0.1181,-0.1229,-0.1486,-0.1387,-0.1236,-0.1027,-0.1068,-0.0992,-0.0733,-0.0871,-0.104,-0.1216,-0.1638,-0.2308,-0.3252,-0.3914,-0.4291,-0.4346,-0.4396,-0.4354,-0.4171,-0.3488,-0.2947,-0.2496,-0.1872,0.0,0.0,0.0,0.0,0.0,0.0,0.0,0.0,0.0,0.0,0.0,0.0,0.0,0.0,0.0,0.0,0.0,0.0,0.0,0.0,0.0,0.0,0.0,0.0,0.0,0.0,0.0,0.0,0.0,0.0,0.0,0.0,0.0,0.0,0.0,0.0,0.0,0.0,0.0,0.6171,0.6871,0.6689,0.7129,0.7337,0.0,0.0,0.0,0.0,0.0,0.0,0.0,0.0,0.0,1.1193,1.1788,1.2258,1.2563,1.3298,1.3607,1.3455,1.4003,1.4262,1.4253,1.4369,1.4735,1.5303,1.532,1.5383,1.5428,1.5548,1.5533,1.5392,0.0,0.0,0.0,0.0,0.0,1.6088,0.0,0.0,0.0,0.0,0.0,0.0,0.0,0.0,0.0,0.0,0.0,0.0,-0.1766,-0.1745,-0.1845,-0.2237,-0.218,-0.1992,-0.1653,-0.1611,-0.1411,-0.0998,-0.1171,-0.1365,-0.155,-0.2333,-0.3272,-0.4394,-0.4624,-0.4776,-0.4827,-0.4706,-0.465,-0.461,-0.4196,-0.366,-0.3039,-0.2295,-0.2004,0.0,0.0,0.0,0.0,0.0,0.0,0.0,0.0,0.0,0.0,0.0,0.0,0.0,0.0,0.0,0.0,0.0,0.0,0.0,0.0,0.0,0.0,0.0,0.0,0.0,0.0,0.0,0.0,0.0,0.0,0.0,0.0,0.0,0.0,0.0,0.0,0.0,0.0,0.668,0.7311,0.6738,0.7265,0.7504,0.0,0.0,0.0,0.0,0.0,0.0,0.9554,1.066,1.1347,1.1517,1.2163,1.264,1.2851,1.3414,1.3577,1.3333,1.3695,1.3792,1.369,1.369,1.4011,1.4503,1.4663,1.5232,1.611,1.6469,1.6415,1.6128,1.6174,1.6291,1.6475,1.6834,1.7116,1.7466,0.0,0.0,0.0,0.0,0.0,0.0,0.0,0.0,0.0,0.0,0.0,-0.1857,-0.1893,-0.2391,-0.2583,-0.2239,-0.2196,-0.2129,-0.1993,-0.1395,-0.1083,-0.1186,-0.1201,-0.1439,-0.1951,-0.3433,-0.4599,-0.5415,-0.5198,-0.5105,-0.5168,-0.4918,-0.4752,-0.4683,-0.4601,-0.4289,-0.3802,-0.3054,-0.2486,-0.2077,0.0,0.0,0.0,0.0,0.0,0.0,0.0,0.0,0.0,0.0,0.0,0.0,0.0,0.0,0.0,0.0,0.0,0.0,0.0,0.0,0.0,0.0,0.0,0.0,0.0,0.0,0.0,0.0,0.0,0.0,0.0,0.0,0.0,0.0,0.0,0.0,0.0,0.0,0.0,0.7518,0.8041,0.0,0.0,0.0,0.0,0.7829,0.8906,0.956,0.9498,1.0942,1.1716,1.1606,1.2057,1.2435,1.2714,1.2491,1.2634,1.3117,1.3152,1.3549,1.4256,1.4256,1.4662,1.5363,1.5883,1.6274,1.6556,1.6447,1.6563,1.6802,1.7315,1.7547,1.7627,1.7641,1.8142,1.8756,0.0,0.0,0.0,0.0,0.0,0.0,0.0,0.0,-0.1684,-0.1664,-0.1982,-0.2287,-0.2451,-0.263,-0.2813,-0.3021,-0.2806,-0.2496,-0.2152,-0.2064,-0.198,-0.1855,-0.2051,-0.25,-0.3198,-0.3973,-0.4572,-0.4997,-0.5013,-0.5044,-0.5078,-0.5007,-0.4968,-0.4943,-0.4743,-0.4579,-0.4373,-0.3673,-0.3125,-0.2698,-0.2267,-0.1724,0.0,0.0,0.0,0.0,0.0,0.0,0.0,0.0,0.0,0.0,0.0,0.0,0.0,0.0,0.0,0.0,0.0,0.0,0.0,0.0,0.0,0.0,0.0,0.0,0.0,0.0,0.0,0.0,0.0,0.0,0.0,0.0,0.0,0.0,0.0,0.0,0.0,0.717,0.7666,0.0,0.0,0.781,0.8274,0.88,0.9561,1.0135,1.0441,1.1487,1.1963,1.1747,1.2069,1.2321,1.252,1.2582,1.2721,1.2894,1.3039,1.3257,1.3534,1.3702,1.4134,1.4692,1.4894,1.5303,1.5855,1.6156,1.6727,1.7488,1.7844,1.8163,1.8444,1.8828,1.9084,1.9237,0.0,0.0,0.0,0.0,0.0,0.0,0.0,0.0,-0.1981,-0.2119,-0.2347,-0.262,-0.297,-0.2988,-0.3123,-0.3464,-0.3181,-0.2852,-0.2585,-0.2479,-0.2382,-0.2273,-0.2678,-0.3321,-0.4219,-0.4485,-0.4806,-0.5196,-0.5171,-0.5197,-0.5331,-0.529,-0.5214,-0.5108,-0.5057,-0.4962,-0.4847,-0.4288,-0.3754,-0.3235,-0.2738,-0.2125,-0.1492,0.0,0.0,0.0,0.0,0.0,0.0,0.0,0.0,0.0,0.0,0.0,0.0,0.0,0.0,0.0,0.0,0.0,0.0,0.0,0.0,0.0,0.0,0.0,0.0,0.0,0.0,0.0,0.0,0.0,0.0,0.0,0.0,0.0,0.0,0.0,0.7413,0.7097,0.7657,0.8035,0.7923,0.8238,0.8721,0.938,0.9919,1.0395,1.0833,1.1436,1.1732,1.1681,1.1722,1.1827,1.1944,1.2141,1.2282,1.2395,1.2613,1.2905,1.3244,1.3316,1.3661,1.4178,1.4256,1.4594,1.5057,1.5517,1.6261,1.7187,1.7895,1.8492,1.8979,1.9491,1.9687,1.9704,0.0,0.0,0.0,0.0,0.0,0.0,0.0,-0.1924,-0.2203,-0.2722,-0.2743,-0.2887,-0.3344,-0.345,-0.3491,-0.3483,-0.3234,-0.3132,-0.3262,-0.2547,-0.2226,-0.2432,-0.3036,-0.385,-0.4884,-0.4995,-0.5411,-0.619,-0.5674,-0.56,-0.596,-0.5722,-0.543,-0.5143,-0.5526,-0.5515,-0.5188,-0.4916,-0.4336,-0.3576,-0.3184,-0.2719,-0.2221,0.0,0.0,0.0,0.0,0.0,0.0,0.0,0.0,0.0,0.0,0.0,0.0,0.0,0.0,0.0,0.0,0.0,0.0,0.0,0.0,0.0,0.0,0.0,0.0,0.0,0.0,0.0,0.0,0.0,0.0,0.0,0.0,0.0,0.5905,0.6998,0.7694,0.7435,0.8108,0.864,0.8689,0.9174,0.9493,0.9527,0.9941,1.0325,1.0594,1.0802,1.1053,1.1365,1.1071,1.0982,1.11,1.1116,1.1291,1.1634,1.1917,1.2575,1.3519,1.3266,1.3423,1.3942,1.4208,1.4316,1.4316,1.4604,1.5155,1.5964,1.7457,1.8488,1.9196,1.9464,1.9876,2.0224,0.0,0.0,0.0,0.0,0.0,0.0,0.0,-0.2207,-0.2354,-0.2556,-0.2955,-0.3234,-0.3326,-0.3439,-0.3444,-0.3288,-0.3047,-0.2792,-0.2587,-0.2647,-0.2938,-0.3533,-0.4423,-0.497,-0.5125,-0.547,-0.5634,-0.5623,-0.5775,-0.57,-0.5426,-0.5654,-0.565,-0.5445,-0.5366,-0.5406,-0.5456,-0.4994,-0.4566,-0.4126,-0.3629,-0.2961,-0.2233,0.0,0.0,0.0,0.0,0.0,0.0,0.0,0.0,0.0,0.0,0.0,0.0,0.0,0.0,0.0,0.0,0.0,0.0,0.0,0.0,0.0,0.0,0.0,0.0,0.0,0.0,0.0,0.0,0.0,0.0,0.0,0.0,0.621,0.626,0.7015,0.7543,0.7415,0.8231,0.8834,0.8834,0.9153,0.9492,0.9844,1.0216,1.0484,1.0677,1.092,1.1049,1.1027,1.1124,1.1133,1.1017,1.1636,1.2123,1.2415,1.3068,1.3626,1.4082,1.4207,1.4311,1.4407,1.454,1.4547,1.456,1.5072,1.5619,1.6198,1.6587,1.7419,1.8458,1.8874,1.9563,2.0224,0.0,0.0,0.0,0.0,0.0,0.0,0.0,-0.2315,-0.2511,-0.2797,-0.3114,-0.3336,-0.3407,-0.3344,-0.3236,-0.3129,-0.283,-0.2592,-0.2525,-0.2863,-0.3405,-0.4163,0.0,-0.517,-0.5272,-0.5546,-0.5641,-0.5536,-0.5814,-0.5867,-0.5714,-0.6038,-0.6038,-0.5769,-0.5698,-0.5598,-0.5488,-0.501,-0.4717,-0.4574,-0.4143,-0.3395,-0.2553,-0.2729,-0.2575,-0.2242,-0.2068,-0.1667,-0.1201,-0.124,0.0,0.0,0.0,0.0,0.0,0.0,0.0,0.0,0.0,0.0,0.0,0.0,0.0,0.0,0.0,0.0,0.0,0.0,0.0,0.0,0.0,0.0,0.0,0.0,0.6029,0.6575,0.6796,0.7232,0.7646,0.7936,0.8599,0.9159,0.9465,0.964,0.9919,1.0417,1.0642,1.0908,1.1236,1.1291,1.1275,1.1199,1.146,1.1389,1.0958,1.2168,1.2787,1.2869,1.3673,1.4215,1.4454,1.4501,1.4443,0.0,1.4597,1.4614,1.4519,1.5232,1.5693,0.0,0.0,0.0,0.0,0.0,1.97,2.0224,0.0,0.0,0.0,0.0,0.0,0.0,0.0,-0.2323,-0.2601,-0.3148,-0.3228,-0.328,-0.3436,-0.3197,-0.2995,-0.2887,-0.2598,-0.2555,-0.2844,-0.317,-0.3702,-0.4497,-0.4644,-0.4917,-0.5399,-0.543,-0.5545,-0.5755,-0.5866,-0.6082,-0.636,-0.658,-0.6444,-0.6033,-0.6172,-0.5959,-0.5496,-0.5021,-0.4872,-0.4931,-0.462,-0.3926,-0.3101,-0.303,-0.284,-0.2564,-0.2546,-0.1932,-0.1216,-0.1734,0.0,0.0,0.0,0.0,0.0,0.0,0.0,0.0,0.0,0.0,0.0,0.0,0.0,0.0,0.0,0.0,0.0,0.0,0.0,0.0,0.0,0.0,0.0,0.0,0.6328,0.6967,0.7361,0.7553,0.7917,0.8689,0.9061,0.9517,1.0131,1.0229,1.0449,1.0907,1.0989,1.1263,1.1864,0.0,0.0,0.0,0.0,1.1648,1.1032,1.2594,1.3299,1.3173,1.3923,1.4435,1.4675,1.4441,1.4187,1.3957,1.4503,1.4554,1.4347,1.5162,1.5531,1.5695,1.6793,1.7672,1.8436,1.9365,1.9893,0.0,0.0,0.0,0.0,0.0,0.0,0.0,0.0,-0.2421,-0.2482,-0.2707,-0.3105,-0.3151,-0.2605,-0.3015,-0.3022,-0.2256,-0.2414,-0.2767,-0.3254,0.0,-0.3993,-0.4622,-0.5086,-0.537,-0.5479,-0.569,-0.5882,-0.6031,-0.6097,-0.6116,-0.6084,-0.6346,-0.636,-0.6154,-0.5859,-0.593,-0.624,-0.5388,-0.5145,-0.5262,-0.4732,-0.42,-0.3722,-0.3712,-0.3451,-0.2977,-0.2414,-0.2323,-0.2406,-0.1686,-0.1398,-0.1274,-0.0731,0.0,0.0,0.0,0.0,0.0,0.0,0.0,0.0,0.0,0.0,0.0,0.0,0.0,0.0,0.0,0.0,0.0,0.0,0.0,0.0,0.623,0.665,0.7088,0.7505,0.7728,0.8012,0.8502,0.9216,0.9642,0.9568,0.9761,0.9954,1.0036,1.0312,1.0688,1.1236,1.1017,0.0,1.1891,1.1755,1.171,1.1783,1.2823,1.3413,1.3586,0.0,0.0,1.4616,1.4571,1.4396,1.4163,1.4703,1.468,1.4298,1.5156,1.572,1.6119,1.6573,1.6922,1.731,1.814,1.8723,1.9021,0.0,0.0,0.0,0.0,0.0,0.0,0.0,-0.2322,-0.2406,-0.2584,-0.2803,-0.2809,-0.243,-0.2553,-0.2425,-0.1847,-0.2164,-0.2635,0.0,-0.3708,-0.416,-0.4542,-0.5041,-0.5319,-0.5339,-0.5473,-0.5629,-0.5753,-0.6028,-0.6163,-0.6194,-0.6624,-0.6628,-0.6285,-0.6154,-0.6011,-0.5832,-0.5469,-0.5212,-0.5084,-0.4784,-0.4375,-0.3935,-0.3799,-0.3676,-0.3539,-0.3034,-0.2717,-0.246,-0.1925,-0.1554,-0.1217,-0.0665,-0.0387,-0.0118,0.0,0.0,0.0,0.0,0.0,0.0,0.0,0.0,0.0,0.0,0.0,0.0,0.0,0.0,0.4458,0.4622,0.0,0.5982,0.6249,0.6633,0.6993,0.7251,0.7508,0.7868,0.8438,0.9016,0.9292,0.9147,0.943,0.9706,0.9981,1.0312,1.0806,1.1509,1.1291,1.1345,1.1782,1.1919,1.2001,1.2001,1.3167,1.381,1.3954,1.4265,1.4463,1.46,1.4318,1.4115,1.3981,1.4398,1.4449,1.4263,1.515,1.5644,1.5872,1.6136,1.6584,1.7167,1.7844,1.8334,1.8597,0.0,0.0,0.0,0.0,0.0,0.0,0.0,-0.2285,-0.2392,-0.2503,-0.2521,-0.2458,-0.2283,-0.2078,-0.1888,-0.1715,-0.1971,-0.2398,0.0,-0.3737,-0.4216,-0.4351,-0.4871,-0.514,-0.5131,-0.5217,-0.5308,-0.5465,-0.5877,-0.6177,-0.6417,-0.6843,-0.682,-0.6412,-0.6404,-0.6022,-0.54,-0.5425,-0.525,-0.4994,-0.4802,-0.4502,-0.4101,-0.3737,-0.3684,-0.3795,-0.3514,-0.2921,-0.2257,-0.2134,-0.1662,-0.1058,-0.0686,-0.0412,-0.0088,0.0596,0.0999,0.0,0.0,0.0,0.0,0.0,0.0,0.0,0.0,0.0,0.3293,0.3694,0.3975,0.4249,0.4624,0.5189,0.5737,0.6164,0.6542,0.6851,0.7002,0.7263,0.7653,0.8251,0.8629,0.8795,0.8733,0.9071,0.9485,0.9919,1.0359,1.0979,1.1763,1.1563,1.1499,1.1625,1.1973,1.211,1.2001,1.3224,1.3873,1.3954,1.4089,1.4196,1.425,1.3816,1.3597,1.3576,1.3949,1.4157,1.4331,1.5041,1.5397,1.5525,1.5733,1.6323,1.7094,1.7625,1.7964,1.8113,0.0,0.0,0.0,0.0,0.0,0.0,0.0,0.0,-0.2495,-0.2268,-0.2452,-0.2292,-0.1526,-0.1879,-0.2136,-0.2055,-0.1971,0.0,-0.3037,-0.3674,-0.409,-0.4203,-0.4967,-0.5242,-0.4944,-0.5226,-0.5509,-0.5768,-0.5927,-0.6147,-0.6393,-0.6465,-0.6469,-0.6379,-0.5922,-0.5895,-0.613,-0.545,-0.5368,-0.5611,-0.4856,-0.4598,-0.4627,-0.3808,-0.3373,-0.3154,-0.2825,-0.2652,-0.247,-0.1928,-0.1837,-0.1879,-0.1352,-0.0975,-0.0656,-0.0336,0.0,0.1123,0.0762,0.091,0.1261,0.1686,0.1814,0.2081,0.0,0.0,0.356,0.3961,0.4546,0.4921,0.4742,0.5381,0.6044,0.6327,0.6564,0.6818,0.7133,0.7415,0.762,0.7687,0.8214,0.8429,0.8125,0.8623,0.8975,0.903,0.9864,1.0576,1.1072,1.0916,1.1101,1.1772,1.144,1.1482,1.2001,1.2409,1.2735,1.3044,1.2762,1.279,1.3098,1.3014,1.2997,1.3017,1.3528,1.4051,1.4546,1.4654,1.5014,1.5499,1.5525,1.5755,1.6122,1.6661,1.6823,1.6896,0.0,0.0,0.0,0.0,0.0,0.0,0.0,0.0,0.0,-0.2101,-0.1873,-0.1618,-0.1327,-0.1458,-0.1643,-0.1844,-0.1993,0.0,-0.277,-0.3526,-0.3937,-0.3959,-0.4691,-0.5043,-0.4903,-0.5163,-0.5384,-0.5573,-0.5894,-0.6163,-0.6336,-0.65,-0.65,-0.6327,-0.6027,-0.58,-0.5625,-0.5299,-0.5067,-0.4897,-0.4541,-0.4307,-0.4159,-0.3736,-0.3317,-0.2983,-0.288,-0.2791,0.0,0.0,-0.1786,-0.1835,-0.103,-0.0599,-0.0327,0.0069,0.0644,0.0,0.0906,0.1034,0.0,0.0,0.1852,0.2188,0.2944,0.3322,0.3585,0.3921,0.4399,0.479,0.4901,0.5227,0.5594,0.0,0.6295,0.652,0.6659,0.7076,0.7326,0.7259,0.753,0.782,0.7986,0.8401,0.8733,0.8892,0.9451,1.0067,1.0802,1.0599,1.0756,1.1383,1.1388,1.1591,1.2001,1.2463,1.2854,1.3125,1.2627,1.2654,1.3125,1.2609,1.2582,1.2908,1.3152,1.3667,1.4358,1.4358,1.4625,1.4999,1.5336,1.5524,1.5756,1.6445,1.669,1.6738,0.0,0.0,0.0,0.0,0.0,0.0,0.0,0.0,0.0,0.0,-0.146,-0.1199,-0.1239,-0.1113,-0.1158,-0.1498,0.0,0.0,0.0,-0.3199,-0.3686,-0.3745,-0.4461,-0.4882,-0.4899,-0.5099,-0.5248,-0.5345,-0.5768,-0.6041,-0.6148,-0.6339,-0.6353,-0.6158,-0.5941,-0.5641,-0.5252,-0.5228,-0.4936,-0.4534,-0.4477,-0.4226,-0.3868,-0.365,-0.3301,-0.2894,-0.2899,-0.2677,0.0,0.0,-0.1621,-0.1601,-0.0765,-0.0391,-0.0184,0.0208,0.0636,0.1001,0.1201,0.0,0.0,0.1669,0.1962,0.2322,0.283,0.3304,0.3725,0.4044,0.436,0.4698,0.5041,0.5089,0.5237,0.5698,0.6056,0.632,0.6342,0.6807,0.7089,0.6948,0.7089,0.7369,0.7794,0.8161,0.8484,0.8754,0.9237,0.9811,1.0512,1.039,1.0544,1.1112,1.1319,1.1569,1.1844,1.2339,1.2666,1.2827,1.2382,1.2436,1.2908,1.2355,1.2391,1.2908,1.2989,1.3454,1.4185,1.4239,1.4527,1.4931,1.5251,1.551,1.577,1.6467,1.6652,1.6665,0.0,0.0,0.0,0.0,0.0,0.0,0.0,0.0,0.0,0.0,0.0,0.0,0.0,-0.0932,-0.0886,0.0,0.0,0.0,0.0,-0.2616,-0.321,-0.358,-0.4376,-0.4843,-0.4899,-0.5099,-0.5192,-0.5192,-0.5542,-0.5701,-0.5709,-0.5803,-0.5824,-0.5791,-0.5393,-0.5296,-0.5373,-0.5256,-0.5188,-0.5157,-0.4885,-0.4499,-0.4056,-0.366,-0.3249,-0.2871,-0.2677,0.0,0.0,0.0,-0.131,-0.1249,-0.091,-0.0739,0.0,-0.0437,0.009,0.0,0.0,0.0,0.1469,0.1737,0.2092,0.2469,0.2742,0.3428,0.4098,0.4486,0.4696,0.4866,0.5071,0.5104,0.5243,0.5633,0.6038,0.6347,0.648,0.6796,0.6942,0.6823,0.7044,0.7254,0.0,0.7776,0.8152,0.8484,0.932,0.9883,1.0124,1.0231,1.0572,1.1163,1.1074,1.1153,1.1405,1.1686,1.1757,1.1655,1.1618,1.1755,1.2055,1.2273,1.2582,1.2908,1.3179,1.36,1.4138,1.4387,1.4971,1.5637,1.547,1.5724,1.6223,1.6573,1.6538,1.6433,0.0,0.0,0.0,0.0,0.0,0.0,0.0,0.0,0.0,0.0,0.0,0.0,0.0,0.0,0.0,0.0,0.0,0.0,0.0,-0.2291,-0.2749,-0.2933,-0.371,-0.4077,-0.3914,-0.4314,-0.4457,-0.435,-0.4774,-0.5059,-0.5247,-0.5527,-0.5728,-0.5797,-0.5514,-0.5449,-0.5499,-0.5055,-0.4854,-0.4774,-0.4401,-0.4117,-0.3857,-0.3352,-0.2953,-0.261,0.0,0.0,0.0,-0.151,-0.1424,-0.1399,-0.0841,-0.0563,-0.0365,-0.0042,0.0351,0.0725,0.0,0.0,0.151,0.1645,0.2041,0.2501,0.2855,0.356,0.4233,0.4598,0.4735,0.4846,0.4994,0.4969,0.4994,0.5318,0.5818,0.6183,0.6226,0.6745,0.7018,0.6714,0.6902,0.0,0.0,0.0,0.0,0.8478,0.8933,0.9314,0.962,0.9971,1.0308,1.0596,1.1016,1.1243,1.12,1.1504,1.1634,1.1591,1.1782,1.1772,1.1627,1.2099,1.2478,1.2711,1.2796,1.3181,1.373,1.404,1.4431,1.4863,1.5199,1.5472,1.5724,1.6202,1.6218,1.6178,0.0,0.0,0.0,0.0,0.0,0.0,0.0,0.0,0.0,0.0,0.0,0.0,0.0,0.0,0.0,0.0,0.0,0.0,0.0,0.0,-0.217,-0.2437,-0.2972,-0.3275,-0.332,-0.3614,-0.3757,-0.3729,-0.395,-0.4251,-0.4587,-0.4802,-0.5005,-0.5158,-0.5154,-0.5178,-0.5197,-0.4878,-0.4648,-0.4467,-0.4227,-0.3919,-0.3562,-0.3279,-0.2896,0.0,0.0,0.0,0.0,-0.1435,-0.1326,-0.1313,-0.0686,-0.0399,-0.0235,0.0101,0.0431,0.071,0.0785,0.114,0.1535,0.1696,0.2093,0.2546,0.2987,0.3626,0.4196,0.4427,0.4614,0.4752,0.4802,0.48,0.4854,0.5122,0.5598,0.5962,0.6081,0.658,0.684,0.6505,0.6789,0.0,0.0,0.0,0.0,0.8538,0.8843,0.9161,0.952,0.9889,1.0207,1.0544,1.1019,1.1187,1.107,1.1366,1.1497,1.1427,1.1591,1.1642,1.1554,1.1947,1.2364,1.2745,1.286,1.3251,1.3806,1.4247,1.4586,1.4869,1.5183,1.5328,1.5421,1.5881,1.5985,1.5991,0.0,0.0,0.0,0.0,0.0,0.0,0.0,0.0,0.0,0.0,0.0,0.0,0.0,0.0,0.0,0.0,0.0,0.0,0.0,0.0,0.0,-0.211,-0.2226,-0.2546,-0.3102,-0.3006,-0.3047,-0.3305,-0.3111,-0.3263,-0.3716,-0.3697,-0.3784,-0.4006,-0.4337,-0.4503,-0.4506,-0.4673,-0.4544,-0.4261,-0.4285,-0.3868,-0.3205,-0.3343,0.0,0.0,0.0,0.0,0.0,0.0,0.0,0.0,0.0,-0.0316,-0.0265,-0.0061,0.0343,0.0724,0.0784,0.1154,0.1593,0.1905,0.2253,0.2605,0.3073,0.361,0.4028,0.4103,0.4367,0.4562,0.0,0.0,0.4781,0.5051,0.5364,0.5723,0.6044,0.6335,0.6443,0.0,0.0,0.0,0.0,0.0,0.0,0.8629,0.0,0.9335,0.9756,0.9896,1.026,1.0928,1.0964,1.0992,1.1012,1.1265,1.1284,1.1072,1.1099,1.1347,1.1768,1.1796,1.224,1.3002,1.3355,1.3788,1.4326,1.4948,1.5338,1.5518,1.5371,1.5298,1.5332,1.5659,1.5826,1.5955,0.0,0.0,0.0,0.0,0.0,0.0,0.0,0.0,0.0,0.0,0.0,0.0,0.0,0.0,0.0,0.0,0.0,0.0,0.0,0.0,0.0,0.0,0.0,0.0,0.0,0.0,0.0,0.0,-0.1956,-0.2231,-0.2698,-0.3117,-0.3535,-0.3947,-0.4273,-0.4408,-0.4332,-0.3975,-0.3816,-0.373,0.0,-0.3031,-0.2917,0.0,0.0,0.0,0.0,0.0,0.0,0.0,0.0,0.0,0.0,-0.0421,-0.0258,-0.0066,0.0366,0.0769,0.0797,0.1178,0.1603,0.1744,0.2099,0.253,0.2955,0.3513,0.3998,0.4195,0.4305,0.4358,0.0,0.0,0.0,0.4834,0.5279,0.0,0.6044,0.6426,0.0,0.0,0.0,0.7026,0.7097,0.7639,0.0,0.0,0.8636,0.8875,0.9314,0.9582,0.9834,1.0105,1.0451,1.0759,1.1065,1.1147,1.104,1.0798,1.0989,1.1184,1.1359,1.1817,1.2316,1.2812,1.3414,1.3739,1.3906,1.4766,1.4886,1.4619,1.5326,1.5322,1.4984,1.5541,1.5608,1.5541,0.0,0.0,0.0,0.0,0.0,0.0,0.0,0.0,0.0,0.0,0.0,0.0,0.0,0.0,0.0,0.0,0.0,0.0,0.0,0.0,0.0,0.0,0.0,0.0,0.0,0.0,0.0,0.0,0.0,0.0,0.0,-0.2412,-0.2753,-0.3164,-0.3558,-0.3683,-0.3586,-0.3461,0.0,0.0,0.0,0.0,0.0,0.0,0.0,0.0,0.0,0.0,0.0,0.0,0.0,-0.0687,-0.048,-0.0419,-0.035,0.0045,0.0,0.081,0.081,0.1195,0.1646,0.1792,0.2098,0.2475,0.2914,0.3302,0.3668,0.3894,0.4002,0.0,0.0,0.0,0.0,0.0,0.0,0.0,0.6096,0.621,0.6352,0.0,0.684,0.0,0.7304,0.7783,0.832,0.0,0.8897,0.9045,0.9348,0.9631,0.9847,1.0009,1.0378,1.0738,1.1099,1.1236,1.1236,1.1099,1.1099,1.1265,1.1598,1.1828,1.2296,1.2964,0.0,1.3843,1.4142,1.4679,1.4759,1.4619,1.4953,1.4887,1.4645,1.5124,1.527,1.531,0.0,0.0,0.0,0.0,0.0,0.0,0.0,0.0,0.0,0.0,0.0,0.0,0.0,0.0,0.0,0.0,0.0,0.0,0.0,0.0,0.0,0.0,0.0,0.0,0.0,0.0,0.0,0.0,0.0,0.0,0.0,0.0,0.0,0.0,0.0,0.0,0.0,0.0,0.0,0.0,0.0,0.0,0.0,0.0,0.0,0.0,0.0,0.0,0.0,0.0,-0.0843,-0.0778,-0.0355,-0.0325,-0.0356,0.0231,0.0624,0.0863,0.0863,0.1247,0.1693,0.1895,0.2189,0.2511,0.2872,0.3109,0.3282,0.3473,0.0,0.3686,0.3748,0.0,0.4369,0.4654,0.0,0.5188,0.6138,0.5963,0.5964,0.666,0.6829,0.7075,0.7512,0.7956,0.8511,0.9274,0.9401,0.9463,0.956,0.9794,0.9988,1.0237,1.0586,1.0852,1.1099,1.1427,1.1564,1.1537,1.1291,1.1488,1.2029,1.1885,1.2326,1.3204,0.0,0.0,1.456,1.459,1.4739,1.4946,1.4515,1.4356,1.4386,1.4678,1.4969,1.5271,0.0,0.0,0.0,0.0,0.0,0.0,0.0,0.0,0.0,0.0,0.1171,0.0914,0.0,0.0,0.0,0.0,0.0,0.0,0.0,0.0,0.0,0.0,0.0,0.0,0.0,0.0,0.0,0.0,0.0,0.0,0.0,0.0,0.0,0.0,0.0,0.0,0.0,0.0,0.0,0.0,0.0,0.0,0.0,0.0,0.0,0.0,0.0,0.0,0.0,0.0,-0.0786,-0.0607,-0.0357,-0.0046,0.026,0.0369,0.075,0.1131,0.1131,0.1512,0.1895,0.1718,0.2315,0.2903,0.2702,0.3075,0.0,0.0,0.0,0.3632,0.3972,0.4126,0.0,0.464,0.0,0.0,0.0,0.0,0.6611,0.0,0.0,0.0,0.0,0.0,0.0,0.0,0.0,0.9533,0.9434,0.9361,0.9504,0.9879,1.0633,1.1044,1.1099,1.1427,1.1455,1.1181,1.14,1.1599,1.1771,1.223,1.2705,1.3234,0.0,0.0,1.4291,1.45,1.45,1.4381,1.449,1.4559,1.4559,1.4619,1.5004,1.5537,0.0,0.0,0.0,0.0,0.0,0.0,0.0,0.1309,0.1361,0.1486,0.1329,0.1122,0.088,0.0774,0.0,0.0,0.0,0.0,0.0,0.0,0.0,0.0,0.0,0.0,0.0,0.0,0.0,0.0,0.0,0.0,0.0,0.0,0.0,0.0,0.0,0.0,0.0,0.0,0.0,0.0,0.0,0.0,0.0,0.0,0.0,0.0,0.0,0.0,0.0,0.0,-0.0413,-0.0162,0.0022,0.0116,0.024,0.0518,0.0977,0.1415,0.1415,0.1792,0.2165,0.1995,0.248,0.2928,0.2701,0.0,0.0,0.0,0.0,0.3484,0.3791,0.0,0.0,0.0,0.0,0.0,0.0,0.0,0.0,0.0,0.0,0.0,0.0,0.0,0.0,0.0,0.0,0.0,0.9424,0.9476,0.9676,1.0036,1.0743,1.1181,1.1345,1.1646,1.1728,1.1564,1.1835,1.204,1.2173,1.2567,1.301,1.3474,1.3813,0.0,1.4202,1.4142,1.4172,1.4202,1.4142,1.4142,1.4172,1.4471,1.4799,1.5126,0.0,0.0,0.0,0.0,0.0,0.0,0.0,0.1609,0.1701,0.1796,0.1607,0.1427,0.1344,0.1154,0.0978,0.0,0.0,0.0,0.0,0.0,0.0,0.0,0.0,0.0,0.0,0.0,0.0,0.0,0.0,0.0,0.0,0.0,0.0,0.0,0.0,0.0,0.0,0.0,0.0,0.0,0.0,0.0,0.0,0.0,0.0,0.0,0.0,0.0,0.0,0.0,-0.0053,0.0245,0.0399,0.0359,0.0352,0.0746,0.1257,0.1683,0.1683,0.2089,0.2458,0.2329,0.2683,0.2992,0.2815,0.2972,0.0,0.0,0.334,0.3399,0.3622,0.0,0.0,0.0,0.0,0.0,0.0,0.0,0.0,0.0,0.0,0.0,0.0,0.0,0.0,0.0,0.0,0.0,0.9482,0.9695,0.9946,1.0284,1.0729,1.1141,1.1482,1.17,1.181,1.181,1.2035,1.229,1.2526,1.2747,1.3162,1.3693,1.3783,0.0,0.0,1.3992,1.4022,1.4172,1.3903,1.3813,1.3873,1.4262,1.453,1.4769,0.0,0.0,0.0,0.0,0.0,0.0,0.0,0.1583,0.1752,0.2426,0.2016,0.1786,0.207,0.1499,0.1084,0.0,0.0,0.0,0.0,0.0,0.0,0.0,0.0,0.0,0.0,0.0,0.0,0.0,0.0,0.0,0.0,0.0,0.0,0.0,0.0,0.0,0.0,0.0,0.0,0.0,0.0,0.0,0.0,0.0,0.0,0.0,0.0,0.0,0.0,0.0,0.0,0.0329,0.0526,0.086,0.1171,0.1103,0.0,0.0,0.197,0.2367,0.2677,0.2389,0.2917,0.3438,0.3062,0.0,0.0,0.3555,0.3481,0.3492,0.3803,0.4097,0.0,0.0,0.0,0.0,0.0,0.0,0.0,0.0,0.0,0.0,0.0,0.0,0.0,0.0,0.0,0.0,0.0,0.9781,0.9951,1.0292,1.0468,1.0747,1.1126,1.1181,1.1181,1.1181,1.1499,1.1876,1.2259,1.2506,1.3014,1.3723,0.0,0.0,0.0,1.4441,1.4381,1.4202,1.4172,1.4142,1.4112,1.3873,1.4311,1.5026,0.0,0.0,0.0,0.0,0.0,0.0,0.2167,0.2128,0.227,0.2926,0.2455,0.2101,0.2184,0.1944,0.1617,0.0,0.0,0.0,0.0,0.0,0.0,0.0,0.0,0.0,0.0,0.0,0.0,0.0,0.0,0.0,0.0,0.0,0.0,0.0,0.0,0.0,0.0,0.0,0.0,0.0,0.0,0.0,0.0,0.0,0.0,0.0,0.0,0.0,0.0,0.0,0.0,0.0,0.0593,0.0976,0.0,0.0,0.1561,0.2145,0.2219,0.2593,0.2988,0.2967,0.3227,0.3461,0.3437,0.0,0.0,0.353,0.3495,0.3539,0.3793,0.3933,0.4132,0.0,0.0,0.0,0.0,0.0,0.0,0.0,0.0,0.0,0.0,0.0,0.0,0.0,0.0,0.0,1.0077,0.9745,0.9699,0.9981,1.0244,1.0603,1.1099,1.1099,1.1099,1.1099,1.1857,1.2193,1.2239,1.315,1.371,1.4022,0.0,0.0,0.0,1.45,1.4441,1.4202,1.4381,1.4441,1.4441,1.452,1.4788,1.5116,0.0,0.0,0.0,0.0,0.0,0.2077,0.2512,0.246,0.2579,0.3189,0.2686,0.2276,0.2318,0.2178,0.1898,0.1431,0.0,0.0,0.0,0.0,0.0,0.0,0.0,0.0,0.0,0.0,0.0,0.0,0.0,0.0,0.0,0.0,0.0,0.0,0.0,0.0,0.0,0.0,0.0,0.0,0.0,0.0,0.0,0.0,0.0,0.0,0.0,0.0,0.0,0.0,0.0,0.0,0.0,0.0,0.0,0.0,0.1628,0.2331,0.2325,0.2769,0.3213,0.3334,0.3374,0.3452,0.0,0.0,0.359,0.359,0.3659,0.3736,0.3871,0.3955,0.4123,0.0,0.0,0.0,0.0,0.0,0.0,0.0,0.0,0.0,0.0,0.0,0.0,0.0,0.0,0.0,0.0,0.9686,0.9596,1.0064,1.0211,1.0524,1.0998,1.0989,1.0989,1.0998,1.1789,1.2172,1.2239,1.3372,1.3995,1.4202,0.0,0.0,0.0,1.45,1.4441,1.4232,1.45,1.459,1.462,1.4878,1.4997,1.5145,0.0,0.0,0.0,0.0,0.0,0.0,0.2425,0.2389,0.2518,0.3127,0.2614,0.2297,0.2575,0.2116,0.1742,0.1614,0.0,0.0,0.0,0.0,0.0,0.0,0.0,0.0,0.0,0.0,0.0,0.0,0.0,0.0,0.0,0.0,0.0,0.0,0.0,0.0,0.0,0.0,0.0,0.0,0.0,0.0,0.0,0.0,0.0,0.0,0.0,0.0,0.0,0.0,0.0,0.0,0.0,0.0,0.0,0.0,0.1762,0.2538,0.2269,0.2798,0.3391,0.3324,0.3361,0.3452,0.0,0.0,0.3799,0.3799,0.4012,0.4167,0.411,0.4309,0.4448,0.4316,0.0,0.0,0.0,0.0,0.0,0.0,0.0,0.0,0.0,0.0,0.0,0.0,0.0,0.0,0.0,0.9546,0.9789,1.0669,1.0442,1.0421,1.0696,1.0688,1.0688,1.0724,1.097,1.1496,1.223,1.2841,1.35,0.0,0.0,0.0,0.0,1.45,1.4441,1.4232,1.45,1.459,1.459,1.459,1.4828,1.5116,0.0,0.0,0.0,0.0,0.0,0.0,0.0,0.2613,0.2624,0.3137,0.2811,0.2517,0.2473,0.2319,0.2044,0.1641,0.0,0.0,0.0,0.0,0.0,0.0,0.0,0.0,0.0,0.0,0.0,-0.0673,0.0,0.0,0.0,0.0,0.0,0.0,0.0,0.0,0.0,0.0,0.0,0.0,0.0,0.0,0.0,0.0,0.0,0.0,0.0,0.0,0.0,0.0,0.0,0.0,0.0,0.0,0.0,0.1481,0.1777,0.2141,0.2196,0.2523,0.2909,0.3168,0.3316,0.3496,0.3879,0.0,0.4309,0.4175,0.4239,0.4346,0.4376,0.4218,0.4178,0.446,0.4612,0.0,0.0,0.0,0.0,0.0,0.0,0.0,0.0,0.0,0.0,0.0,0.0,0.0,0.0,0.9888,0.9906,1.0402,1.0194,1.0286,1.0696,1.0596,1.0623,1.0696,1.1095,1.1625,1.2239,1.298,0.0,0.0,0.0,0.0,0.0,1.444,1.4441,1.4262,1.4769,1.4937,1.4967,1.5215,1.5364,1.5442,0.0,0.0,0.0,0.0,0.0,0.0,0.0,0.2563,0.2535,0.2861,0.2608,0.2385,0.2374,0.2204,0.1975,0.1662,0.0,0.0,0.0,0.0,0.0,0.0,0.0,0.0,0.0,0.0,0.0187,-0.0382,-0.0378,-0.0471,0.0,0.0,0.0,0.0,0.0,0.0,0.0,0.0,0.0,0.0,0.0,0.0,-0.014,0.0,0.0,0.0,0.0,0.0,0.0,0.0,0.0,0.0,0.0,0.0,0.0,0.0,0.1945,0.207,0.0,0.257,0.2893,0.3346,0.3432,0.0,0.0,0.0,0.4449,0.4354,0.4435,0.4526,0.4572,0.4271,0.4155,0.4566,0.4682,0.0,0.0,0.0,0.0,0.0,0.0,0.0,0.0,0.0,0.0,0.0,0.0,0.0,0.0,1.017,1.0183,1.0619,1.0359,1.0423,1.0891,1.0631,1.0599,1.0821,1.1037,1.1495,1.221,1.2961,0.0,0.0,0.0,0.0,0.0,1.4202,1.4232,1.4262,1.4729,1.4997,1.5145,1.5472,1.5601,1.5601,0.0,0.0,0.0,0.0,0.0,0.0,0.0,0.0,0.2313,0.2359,0.2118,0.202,0.2265,0.1904,0.1669,0.1721,0.0,0.0,0.0,0.0,0.0,0.0,0.0,0.0,0.0,0.0898,0.0699,0.0291,0.0089,-0.0109,-0.0303,-0.0575,0.0,0.0,0.0,0.0,0.0,0.0,0.0,0.0,-0.007,0.0042,0.0,0.0,0.0,0.0,0.0,0.0,0.0,0.0,0.0,0.0,0.0,0.0,0.0,0.0,0.0,0.0,0.0,0.2828,0.3171,0.3691,0.36,0.3527,0.0,0.0,0.0,0.4391,0.4567,0.4694,0.4711,0.4434,0.4322,0.4662,0.4925,0.0,0.0,0.0,0.0,0.0,0.0,0.0,0.0,0.0,0.0,0.0,0.0,0.0,0.0,1.0383,1.0597,1.1211,1.075,1.0721,1.1195,1.0729,1.065,1.1008,1.0802,1.1234,1.2228,1.2783,0.0,0.0,0.0,0.0,0.0,1.3803,1.3873,1.4202,1.4471,1.4769,1.5116,1.5442,1.5572,1.5601,0.0,0.0,0.0,0.0,0.0,0.0,0.0,0.0,0.0,0.0,0.216,0.2192,0.2146,0.2144,0.2074,0.0,0.0,0.0,0.0,0.0,0.0,0.0,0.0,0.0,0.0,0.0927,0.0659,0.0141,0.0055,-0.0094,-0.0312,-0.0513,-0.0436,-0.0122,-0.0308,-0.0307,-0.0147,0.0,0.0,0.0,0.0224,0.0435,0.0,0.0,0.0,0.0,0.0651,0.0854,0.0,0.0,0.0,0.0,0.0,0.0,0.0,0.0,0.2784,0.2635,0.2844,0.0,0.2533,0.308,0.3146,0.3228,0.0,0.0,0.0,0.0,0.0,0.4735,0.4825,0.4532,0.4415,0.4859,0.4889,0.0,0.0,0.0,0.0,0.0,0.0,0.0,0.0,0.0,0.0,0.0,0.0,0.0,0.0,1.0613,1.0854,1.1398,1.093,1.0831,1.1195,1.0638,1.0622,1.1159,1.096,1.1399,1.2431,1.2358,0.0,0.0,0.0,0.0,1.3201,1.3299,1.3504,1.3843,1.4172,1.4471,1.4769,1.5086,1.5383,1.5631,0.0,0.0,0.0,0.0,0.0,0.0,0.0,0.0,0.0,0.0,0.0,0.0,0.0,0.0,0.0,0.0,0.0,0.0,0.0,0.0,0.0,0.0,0.0,0.0,0.0,0.1063,0.0817,0.0472,0.0299,0.0136,-0.002,-0.0041,-0.0039,0.0,-0.0121,-0.0049,0.015,0.0326,0.0452,0.0515,0.0451,0.0,0.0,0.0,0.0,0.0,0.0925,0.1156,0.0,0.1315,0.1715,0.2245,0.0,0.0,0.0,0.0,0.2904,0.2854,0.2974,0.2744,0.2624,0.3261,0.3315,0.3374,0.3892,0.0,0.0,0.0,0.0,0.0,0.4791,0.0,0.0,0.0,0.0,0.0,0.0,0.0,0.0,0.0,0.0,0.0,0.0,0.0,0.0,0.0,0.0,0.0,0.0,1.075,1.0868,1.1471,1.0923,1.0839,1.1317,1.058,1.0456,1.0965,1.0677,1.1065,1.2031,1.2037,1.2323,0.0,0.0,0.0,1.3058,1.3308,1.3599,1.3856,1.4121,1.4441,1.4821,1.5008,1.5413,1.5868,0.0,0.0,0.0,0.0,0.0,0.0,0.0,0.0,0.0,0.0,0.0,0.0,0.0,0.0,0.0,0.0,0.0,0.0,0.0,0.0,0.0,0.0,0.0,0.1343,0.1426,0.1208,0.1029,0.0916,0.0665,0.0474,0.0356,0.054,0.0421,0.0094,0.012,0.0209,0.0341,0.0378,0.0401,0.0412,0.0643,0.0,0.0,0.0,0.0,0.0,0.0,0.0,0.0,0.1442,0.1943,0.2591,0.2403,0.0,0.0,0.0,0.0,0.0,0.3072,0.2992,0.3058,0.3674,0.3658,0.3625,0.4184,0.0,0.0,0.0,0.0,0.0,0.0,0.0,0.0,0.0,0.0,0.0,0.0,0.0,0.0,0.0,0.0,0.0,0.0,0.0,0.0,0.0,0.0,0.0,0.0,1.0845,1.085,1.1471,1.0893,1.0825,1.1331,1.0511,1.0279,1.0647,1.0322,1.0687,1.1589,1.1854,1.2281,0.0,0.0,0.0,1.3204,1.3504,1.3786,1.4026,1.414,1.454,1.5054,1.509,1.5534,1.6101,0.0,0.0,0.0,0.0,0.0,0.0,0.0,0.0,0.0,0.0,0.0,0.0,0.0,0.0,0.0,0.0,0.0,0.0,0.0,0.0,0.0,0.0,0.1473,0.1386,0.1558,0.1204,0.1012,0.0992,0.0774,0.0627,0.0553,0.0647,0.0629,0.051,0.0692,0.0654,0.0481,0.0766,0.0866,0.081,0.085,0.0,0.0,0.0,0.0,0.0,0.0,0.0,0.0,0.1842,0.2243,0.272,0.2976,0.0,0.0,0.0,0.0,0.0,0.3409,0.3458,0.3401,0.3468,0.3441,0.3492,0.0,0.0,0.0,0.0,0.0,0.0,0.0,0.0,0.0,0.0,0.0,0.0,0.0,0.0,0.0,0.0,0.0,0.0,0.0,0.0,0.0,0.0,0.0,0.0,0.0,0.0,1.1087,1.15,1.1122,1.0855,1.0656,1.0234,1.0144,1.0358,1.053,1.1057,1.1913,1.1913,1.2361,0.0,0.0,1.2685,1.3204,1.3264,1.3574,1.4026,1.414,1.4629,1.5237,1.5152,1.5481,1.6022,0.0,0.0,0.0,0.0,0.0,0.0,0.0,0.0,0.0,0.0,0.0,0.0,0.0,0.0,0.0,0.0,0.0,0.0,0.0,0.0,0.0,0.0,0.1606,0.1449,0.1548,0.1218,0.1086,0.1162,0.0992,0.0902,0.088,0.0823,0.0848,0.0926,0.1056,0.1043,0.094,0.1104,0.1086,0.0951,0.0,0.0,0.0,0.0,0.0,0.0,0.0,0.0,0.0,0.0,0.2468,0.2911,0.3164,0.0,0.0,0.0,0.0,0.0,0.3651,0.3772,0.3862,0.4054,0.4124,0.4222,0.0,0.0,0.0,0.0,0.0,0.0,0.0,0.0,0.0,0.0,0.0,0.0,0.0,0.0,0.0,0.0,0.0,0.0,0.0,0.0,0.0,0.0,0.0,0.0,0.0,0.0,1.1234,1.1736,1.1335,1.1045,1.0939,1.0597,1.0332,1.0145,1.0459,1.1001,1.1736,1.1707,1.2184,1.3064,0.0,1.2912,1.3368,1.356,1.3955,1.4435,1.4365,1.491,1.5773,1.5987,1.6241,1.6529,0.0,0.0,0.0,0.0,0.0,0.0,0.0,0.0,0.0,0.0,0.0,0.0,0.0,0.0,0.0,0.0,0.0,0.0,0.0,0.0,0.2069,0.2097,0.1718,0.1527,0.1575,0.1299,0.1271,0.1497,0.1358,0.131,0.1286,0.1143,0.1156,0.1264,0.1308,0.1344,0.1376,0.1363,0.1281,0.1137,0.0,0.0,0.0,0.0,0.0,0.0,0.0,0.0,0.0,0.0,0.0,0.0,0.0,0.0,0.0,0.3898,0.3929,0.3943,0.4069,0.4199,0.4398,0.4761,0.0,0.0,0.0,0.0,0.0,0.0,0.0,0.0,0.0,0.0,0.0,0.0,0.0,0.0,0.0,0.0,0.0,0.0,0.0,0.0,0.0,0.0,0.0,0.0,0.0,0.0,0.0,0.0,1.1317,1.1795,1.15,1.1265,1.111,1.0995,1.0638,1.0034,1.039,1.0893,1.1495,1.1489,1.2034,1.2982,1.2865,1.3044,1.3441,1.3833,1.4313,1.4798,1.4807,1.5319,1.6128,1.6692,1.6865,1.6883,0.0,0.0,0.0,0.0,0.0,0.0,0.0,0.0,0.0,0.0,0.0,0.0,0.0,0.0,0.0,0.0,0.0,0.0,0.0,0.0,0.2161,0.2106,0.1716,0.1581,0.1776,0.1524,0.1603,0.2035,0.1972,0.1893,0.1845,0.1706,0.1577,0.1475,0.1414,0.1464,0.1581,0.1577,0.1566,0.1574,0.17,0.0,0.0,0.0,0.0,0.0,0.0,0.0,0.0,0.0,0.0,0.0,0.0,0.0,0.4182,0.4326,0.4307,0.4377,0.4879,0.4981,0.4988,0.5199,0.5126,0.0,0.0,0.0,0.0,0.0,0.0,0.0,0.0,0.0,0.0,0.0,0.0,0.0,0.0,0.0,0.0,0.0,0.0,0.0,0.0,0.0,0.0,0.0,0.0,0.0,0.0,0.0,0.0,1.1256,1.152,1.1322,1.0565,1.1101,1.0916,1.0111,1.0555,1.0992,1.1408,1.1462,1.2018,1.2879,1.2453,1.2621,1.3271,1.3789,1.4304,1.4849,1.5483,1.5823,1.6082,1.6605,1.6699,1.656,0.0,0.0,0.0,0.0,0.0,0.0,0.0,0.0,0.0,0.0,0.0,0.0,0.0,0.0,0.0,0.0,0.0,0.0,0.0,0.0,0.217,0.1976,0.1832,0.1748,0.1738,0.1689,0.1819,0.2167,0.2178,0.2155,0.208,0.2045,0.1891,0.17,0.1927,0.1958,0.1863,0.2166,0.2172,0.1983,0.2128,0.2185,0.0,0.0,0.0,0.0,0.0,0.0,0.0,0.0,0.3504,0.3831,0.4077,0.4284,0.4507,0.4757,0.4732,0.4725,0.5267,0.542,0.555,0.5996,0.0,0.0,0.0,0.0,0.0,0.0,0.0,0.0,0.0,0.0,0.0,0.0,0.0,0.0,0.0,0.0,0.0,0.0,0.0,0.0,0.0,0.0,0.0,0.0,0.0,0.0,0.0,0.0,0.0,1.1512,1.1541,1.1537,1.1442,1.1586,1.1411,1.097,1.0935,1.1237,1.176,1.1467,1.1921,1.2954,1.2782,1.3031,1.3618,1.4249,1.4739,1.5182,1.5846,1.6251,1.6428,1.653,1.6483,1.6478,0.0,0.0,0.0,0.0,0.0,0.0,0.0,0.0,0.0,0.0,0.0,0.0,0.0,0.0,0.0,0.0,0.0,0.0,0.0,0.2365,0.2191,0.2096,0.1931,0.1919,0.2075,0.2144,0.2274,0.2451,0.261,0.2571,0.2356,0.2345,0.2187,0.1931,0.2256,0.233,0.2241,0.2592,0.2605,0.2398,0.253,0.2568,0.0,0.0,0.0,0.0,0.0,0.0,0.0,0.0,0.3877,0.418,0.4484,0.4709,0.4906,0.523,0.528,0.5278,0.5625,0.583,0.6061,0.0,0.0,0.0,0.0,0.0,0.0,0.0,0.0,0.0,0.0,0.0,0.0,0.0,0.0,0.0,0.0,0.0,0.0,0.0,0.0,0.0,0.0,0.0,0.0,0.0,0.0,0.0,0.0,0.0,0.0,0.0,1.1587,1.1678,1.1854,1.1891,1.1806,1.1581,1.131,1.1438,1.191,1.1573,1.1982,1.3021,1.3056,1.3334,1.3809,1.4416,1.4964,1.5514,1.601,1.6332,1.6461,1.6411,1.6356,1.635,0.0,0.0,0.0,0.0,0.0,0.0,0.0,0.0,0.0,0.0,0.0,0.0,0.0,0.0,0.0,0.0,0.0,0.0,0.0,0.225,0.2216,0.2485,0.1988,0.2082,0.2886,0.2969,0.2995,0.301,0.3338,0.3216,0.269,0.2635,0.0,0.2205,0.2352,0.251,0.2712,0.2774,0.2799,0.2809,0.2954,0.3008,0.3022,0.0,0.0,0.0,0.0,0.0,0.0,0.0,0.4431,0.4677,0.5079,0.5302,0.5453,0.5711,0.595,0.61,0.6027,0.6247,0.6552,0.0,0.0,0.0,0.0,0.0,0.0,0.0,0.0,0.0,0.0,0.0,0.0,0.0,0.0,0.0,0.0,0.0,0.0,0.0,0.0,0.0,0.0,0.0,0.0,0.0,0.0,0.0,0.0,0.0,0.0,0.0,1.1592,1.1705,1.1492,1.1902,1.1996,1.1806,1.1589,1.1603,1.1787,1.1815,1.2288,1.3098,1.3179,1.3384,1.3761,1.4209,1.4974,1.5815,1.5951,1.6007,1.6037,1.6321,1.6286,1.6146,0.0,0.0,0.0,0.0,0.0,0.0,0.0,0.0,0.0,0.0,0.0,0.0,0.0,0.0,0.0,0.0,0.0,0.0,0.0,0.2265,0.2228,0.222,0.2118,0.2162,0.2403,0.2799,0.318,0.3571,0.3182,0.2928,0.2773,0.2596,0.0,0.2356,0.0,0.0,0.2663,0.3055,0.3116,0.2952,0.3093,0.3309,0.3559,0.0,0.0,0.0,0.0,0.0,0.0,0.0,0.0,0.0,0.5261,0.5524,0.5758,0.579,0.6043,0.6311,0.6354,0.6565,0.0,0.0,0.0,0.0,0.0,0.0,0.0,0.0,0.0,0.0,0.0,0.0,0.0,0.0,0.0,0.0,0.0,0.0,0.0,0.0,0.0,0.0,0.0,0.0,0.0,0.0,0.0,0.0,0.0,0.0,0.0,0.0,1.1281,1.143,1.15,1.1751,1.185,1.1806,1.1695,1.1787,1.2077,1.1979,1.2402,1.3179,1.3457,1.3905,1.4529,1.5122,1.568,1.6145,1.6082,1.6428,1.689,1.6801,1.6831,1.691,0.0,0.0,0.0,0.0,0.0,0.0,0.0,0.0,0.0,0.0,0.3057,0.3105,0.0,0.0,0.0,0.0,0.0,0.0,0.2289,0.2219,0.2175,0.214,0.2121,0.2259,0.2553,0.275,0.31,0.3651,0.3177,0.2925,0.2841,0.0,0.2793,0.2821,0.0,0.3313,0.3135,0.3524,0.3533,0.3321,0.3404,0.3603,0.3842,0.0,0.0,0.0,0.0,0.0,0.0,0.0,0.0,0.0,0.5359,0.0,0.5804,0.5927,0.6263,0.663,0.6783,0.0,0.0,0.0,0.0,0.0,0.0,0.0,0.0,0.0,0.0,0.0,0.0,0.0,0.0,0.0,0.0,0.0,0.0,0.0,0.0,0.0,0.0,0.0,0.0,0.0,0.0,0.0,0.0,0.0,0.0,0.0,0.0,0.0,1.124,1.1384,1.1677,1.1784,1.1823,1.1806,1.1866,1.2082,1.2406,1.2226,1.2587,1.3369,1.3972,1.4527,1.5073,1.5534,1.593,1.6232,1.6146,1.6473,1.6952,1.6673,1.6688,1.677,0.0,0.0,0.3012,0.3012,0.0,0.0,0.0,0.0,0.0,0.0,0.3011,0.304,0.0,0.0,0.0,0.2929,0.2663,0.2458,0.2401,0.2154,0.208,0.2234,0.2145,0.241,0.3059,0.2777,0.285,0.3323,0.3188,0.3034,0.0,0.0,0.3277,0.3434,0.0,0.4043,0.3899,0.404,0.3982,0.3804,0.3795,0.3861,0.3958,0.4003,0.0,0.0,0.0,0.0,0.0,0.0,0.0,0.0,0.5425,0.5529,0.5699,0.6082,0.6537,0.6991,0.723,0.0,0.0,0.0,0.0,0.0,0.0,0.0,0.0,0.0,0.0,0.0,0.0,0.0,0.0,0.0,0.0,0.0,0.0,0.0,0.0,0.0,0.0,0.0,0.0,0.0,0.0,0.0,0.0,0.0,0.0,0.0,0.0,0.0,1.1374,1.1551,1.1846,1.1871,1.1844,0.0,1.2028,1.235,1.2671,1.2523,1.2907,1.3701,1.465,1.5227,1.545,1.56,1.585,1.6101,1.6204,1.6389,1.6576,1.635,1.6283,1.6265,0.0,0.0,0.3072,0.3072,0.0,0.0,0.0,0.0,0.0,0.0,0.0,0.0,0.0,0.0,0.0,0.2528,0.2419,0.2333,0.2325,0.2172,0.2206,0.2506,0.2737,0.2871,0.2857,0.2796,0.2741,0.2694,0.2506,0.0,0.0,0.0,0.0,0.3581,0.0,0.4083,0.384,0.4016,0.4016,0.3872,0.3826,0.4067,0.4434,0.4295,0.4249,0.0,0.0,0.0,0.0,0.0,0.0,0.0,0.5657,0.5812,0.5874,0.6069,0.6604,0.7131,0.0,0.7621,0.0,0.0,0.0,0.0,0.0,0.0,0.0,0.0,0.0,0.0,0.0,0.0,0.0,0.0,0.0,0.0,0.0,0.0,0.0,0.0,0.0,0.0,0.0,0.0,0.0,0.0,0.0,0.0,0.0,0.0,0.0,1.1077,1.1179,1.1359,1.1589,1.1736,1.1796,0.0,1.1799,1.2025,1.2475,1.287,1.364,1.4711,1.5397,1.5734,1.5814,1.6104,1.6182,1.6135,1.628,1.6824,1.7497,1.7467,1.7718,1.8032,0.0,0.0,0.0,0.0,0.0,0.0,0.0,0.0,0.0,0.0,0.0,0.0,0.0,0.2397,0.0,0.0,0.2333,0.222,0.2165,0.2149,0.2284,0.2581,0.2832,0.2894,0.2762,0.2659,0.2615,0.2641,0.0,0.0,0.0,0.0,0.0,0.4081,0.0,0.4348,0.4189,0.4269,0.4205,0.4057,0.4134,0.4379,0.4636,0.4454,0.4356,0.0,0.0,0.0,0.0,0.0,0.0,0.0,0.0,0.0,0.5811,0.6081,0.6662,0.7274,0.0,0.0,0.0,0.0,0.0,0.0,0.0,0.0,0.0,0.0,0.0,0.0,0.0,0.0,0.0,0.0,0.0,0.0,0.0,0.0,0.0,0.0,0.0,0.0,0.0,0.0,0.0,0.0,0.0,0.0,0.0,1.0907,1.0957,1.1029,1.1089,1.1327,1.177,1.1697,1.1777,1.2001,1.1904,1.2112,1.2648,1.3,1.3788,1.4872,1.5203,1.5748,1.6389,1.64,1.6545,1.6731,1.6838,1.7257,1.7815,1.7815,1.7826,1.776,0.0,0.0,0.0,0.0,0.0,0.0,0.0,0.0,0.0,0.0,0.0,0.0,0.0,0.2292,0.2289,0.0,0.0,0.0,0.21,0.2217,0.2405,0.2674,0.2778,0.2801,0.275,0.252,0.2533,0.0,0.0,0.0,0.0,0.0,0.0,0.4642,0.0,0.4673,0.461,0.4534,0.4401,0.4259,0.4473,0.4588,0.4643,0.455,0.0,0.0,0.0,0.4546,0.4739,0.5051,0.0,0.0,0.0,0.0,0.5853,0.6189,0.6757,0.7357,0.0,0.0,0.0,0.0,0.0,0.0,0.0,0.0,0.0,0.0,0.0,0.0,0.0,0.0,0.0,0.0,0.0,0.0,0.0,0.0,0.0,0.0,0.0,0.0,0.0,0.0,0.0,0.0,0.0,0.0,1.1099,1.088,1.0852,1.1017,1.1014,1.1337,1.2029,1.1633,1.1697,1.2204,1.209,1.2301,1.2854,1.2999,1.3635,1.466,1.4739,1.5562,1.6789,1.6558,1.6801,1.7297,1.7271,1.7483,1.7781,1.7746,1.746,1.7141,0.0,0.0,0.0,0.0,0.0,0.0,0.0,0.0,0.0,0.0,0.2241,0.2335,0.2247,0.2216,0.2309,0.2567,0.2505,0.245,0.2436,0.0,0.0,0.3023,0.299,0.2974,0.296,0.2595,0.253,0.0,0.0,0.0,0.0,0.0,0.0,0.4864,0.0,0.0,0.4679,0.4563,0.4449,0.4377,0.4348,0.4378,0.4461,0.0,0.0,0.0,0.0,0.0,0.0,0.5204,0.5695,0.0,0.0,0.0,0.0,0.6614,0.6906,0.7268,0.0,0.0,0.0,0.0,0.0,0.0,0.0,0.0,0.0,0.0,0.0,0.0,0.0,0.0,0.0,0.0,0.0,0.0,0.0,0.0,0.0,0.0,0.0,0.0,0.0,0.0,0.0,0.0,0.0,0.0,1.1099,1.1072,1.0962,1.0751,1.0903,1.1252,1.1742,1.1421,1.1574,1.2204,1.2178,1.2303,1.256,1.2797,1.3501,1.4548,1.496,1.5608,1.6393,1.666,1.6803,1.6856,1.6829,1.718,1.7694,1.7444,1.768,1.8045,0.0,0.0,0.0,0.0,0.0,0.0,0.0,0.0,0.0,0.0,0.0,0.2264,0.2205,0.2295,0.2365,0.237,0.2459,0.2533,0.2613,0.2673,0.2814,0.3087,0.3045,0.2967,0.2893,0.2683,0.269,0.0,0.0,0.0,0.0,0.4496,0.4817,0.0,0.0,0.0,0.0,0.0,0.4642,0.4614,0.4504,0.4641,0.0,0.0,0.0,0.0,0.0,0.0,0.0,0.0,0.0,0.6226,0.6361,0.0,0.0,0.0,0.0,0.0,0.0,0.0,0.0,0.0,0.0,0.0,0.0,0.0,0.0,0.0,0.0,0.0,0.0,0.0,0.0,0.0,0.0,0.0,0.0,0.0,0.0,0.0,0.0,0.0,0.0,0.0,0.0,0.0,0.0,1.0935,1.1099,1.0962,1.0874,1.087,1.1092,1.1444,1.1874,1.1903,1.1988,1.209,1.2162,1.232,1.251,1.2766,1.3489,1.4506,1.459,1.5175,1.6022,1.6008,1.6289,1.6683,1.6755,1.7104,1.7656,1.7761,1.7788,1.7792,0.0,0.0,0.0,0.0,0.0,0.0,0.0,0.0,0.0,0.0,0.0,0.2313,0.2286,0.0,0.0,0.0,0.2464,0.2606,0.2764,0.2699,0.2791,0.3103,0.299,0.2911,0.2897,0.2775,0.0,0.0,0.0,0.0,0.4417,0.4831,0.5111,0.0,0.5101,0.0,0.0,0.0,0.0,0.0,0.0,0.0,0.0,0.0,0.0,0.0,0.0,0.0,0.0,0.0,0.0,0.0,0.0,0.0,0.0,0.0,0.0,0.0,0.0,0.0,0.0,0.0,0.0,0.0,0.0,0.0,0.0,0.0,0.0,0.0,0.0,0.0,0.0,0.0,0.0,0.0,0.0,0.0,0.0,0.0,0.0,0.0,0.0,0.0,0.0,0.0,0.0,1.0899,1.1175,1.0927,1.0829,1.0927,1.122,1.1603,1.2042,1.2469,1.2495,1.2119,1.2269,1.2435,1.269,1.2897,1.3448,1.4306,1.4269,1.474,1.5463,1.5484,1.5878,1.6509,1.6608,1.6997,1.753,1.7839,1.7661,1.7306,0.0,0.0,0.0,0.0,0.0,0.0,0.0,0.0,0.0,0.0,0.0,0.2628,0.2496,0.2491,0.2551,0.2663,0.2691,0.2779,0.2974,0.268,0.2722,0.318,0.2887,0.0,0.3167,0.287,0.0,0.0,0.0,0.0,0.4688,0.4774,0.526,0.6021,0.5764,0.5593,0.5414,0.0,0.0,0.0,0.0,0.0,0.0,0.0,0.0,0.0,0.0,0.0,0.0,0.0,0.0,0.0,0.0,0.0,0.0,0.0,0.0,0.0,0.0,0.0,0.0,0.0,0.0,0.0,0.0,0.0,0.0,0.0,0.0,0.0,0.0,0.0,0.0,0.0,0.0,0.0,0.0,0.0,0.0,0.0,0.0,0.0,0.0,0.0,0.0,0.0,0.0,1.1096,1.1377,1.1125,1.0903,1.0712,1.1154,1.1648,1.219,1.2847,1.2916,1.2481,1.2606,1.2835,1.3156,1.3186,1.3384,1.3772,1.4266,1.4515,1.4626,1.5375,1.5916,1.6202,1.6223,1.6635,1.7224,1.7312,1.7173,1.6963,0.0,0.0,0.0,0.0,0.0,0.0,0.0,0.0,0.0,0.0,0.0,0.0,0.0,0.2693,0.2782,0.271,0.2818,0.2941,0.305,0.2947,0.2987,0.3188,0.3008,0.2958,0.3075,0.0,0.0,0.0,0.0,0.385,0.4522,0.4924,0.5375,0.5841,0.5828,0.5726,0.553,0.5018,0.0,0.0,0.0,0.0,0.0,0.0,0.0,0.0,0.0,0.0,0.0,0.0,0.0,0.0,0.0,0.0,0.0,0.0,0.0,0.0,0.0,0.0,0.0,0.0,0.0,0.0,0.0,0.0,0.0,0.0,0.0,0.0,0.0,0.0,0.0,0.0,0.0,0.0,0.0,0.0,0.0,0.0,0.0,0.0,0.0,0.0,0.0,0.0,0.0,0.0,1.0968,1.0991,1.0911,1.0696,1.1487,1.2312,1.3133,1.2982,1.2898,1.2955,1.2988,1.3084,1.3195,1.3284,1.3377,1.3534,1.3862,1.4176,1.4546,1.5085,1.5566,1.594,1.6042,1.6328,1.6686,1.6719,1.6812,1.6903,0.0,0.0,0.0,0.0,0.0,0.2705,0.0,0.0,0.0,0.0,0.0,0.0,0.0,0.0,0.2799,0.2733,0.2895,0.3024,0.3099,0.3015,0.3023,0.316,0.3012,0.2967,0.3071,0.0,0.0,0.0,0.0,0.0,0.0,0.498,0.548,0.5909,0.5919,0.5979,0.0,0.0,0.0,0.5424,0.0,0.0,0.5993,0.0,0.0,0.0,0.0,0.0,0.0,0.0,0.0,0.0,0.0,0.0,0.0,0.0,0.0,0.0,0.0,0.0,0.0,0.0,0.0,0.0,0.0,0.0,0.0,0.0,0.0,0.0,0.0,0.0,0.0,0.0,0.0,0.0,0.0,0.0,0.0,0.0,0.0,0.0,0.0,0.0,0.0,0.0,0.0,0.0,1.0883,1.0988,1.1109,1.1181,1.1902,1.2723,1.3589,1.3228,1.3144,1.3354,1.3264,1.3264,1.3345,1.3269,1.334,1.3515,1.3603,1.3896,1.434,1.4801,1.5319,1.5825,1.5999,1.6244,1.6501,1.6594,1.6661,1.6716,0.0,0.2691,0.2705,0.2709,0.2709,0.2709,0.2713,0.0,0.0,0.0,0.0,0.0,0.0,0.0,0.0,0.2809,0.2939,0.3036,0.3107,0.2857,0.283,0.3087,0.2911,0.2935,0.3195,0.0,0.0,0.0,0.0,0.0,0.0,0.0,0.5525,0.6278,0.609,0.6356,0.6873,0.0,0.6226,0.6273,0.0,0.6005,0.639,0.0,0.0,0.0,0.7488,0.7552,0.0,0.0,0.0,0.0,0.0,0.0,0.0,0.0,0.0,0.0,0.0,0.0,0.0,0.0,0.0,0.0,0.0,0.0,0.0,0.0,0.0,0.0,0.0,0.0,0.0,0.0,0.0,0.0,0.0,0.0,0.0,0.0,0.0,0.0,0.0,0.0,0.0,0.0,0.0,1.1203,1.1187,1.1208,1.1466,1.2069,1.2357,1.2795,1.3391,1.3589,1.3693,1.3693,1.3354,1.3384,1.3684,1.316,1.3209,1.3665,1.3548,1.3663,1.3966,1.4574,1.5203,1.5825,1.6108,1.6392,1.672,1.6973,1.6736,1.6386,0.2621,0.2635,0.2711,0.2762,0.2774,0.2809,0.29,0.0,0.0,0.0,0.0,0.0,0.0,0.0,0.0,0.3425,0.3351,0.3296,0.3321,0.3107,0.3019,0.3091,0.3187,0.327,0.3344,0.0,0.0,0.0,0.0,0.0,0.0,0.0,0.0,0.0,0.625,0.6585,0.6921,0.6116,0.0,0.0,0.5875,0.6024,0.0,0.0,0.0,0.0,0.0,0.8213,0.0,0.0,0.8037,0.7422,0.0,0.0,0.0,0.0,0.0,0.0,0.6569,0.0,0.0,0.0,0.0,0.0,0.0,0.8775,0.0,0.0,0.0,0.0,0.0,0.0,0.0,0.0,0.0,0.0,0.0,0.0,0.0,0.0,0.0,0.0,0.0,0.0,0.0,0.0,1.1464,1.1451,1.109,1.1103,1.1389,1.1999,1.2369,1.2854,1.3391,1.3589,1.3693,1.3693,1.3594,1.3474,1.3354,1.3448,1.3428,1.3345,1.357,1.4054,1.4701,1.4932,1.5482,1.6168,1.6221,1.6315,1.6409,1.6503,1.6536,1.6613,0.2701,0.2733,0.2844,0.2904,0.2997,0.3073,0.0,0.0,0.0,0.0,0.0,0.0,0.0,0.0,0.0,0.3773,0.3703,0.3621,0.3522,0.3276,0.3132,0.3107,0.3219,0.3314,0.34,0.0,0.0,0.0,0.0,0.0,0.0,0.0,0.0,0.0,0.5958,0.6356,0.0,0.0,0.0,0.0,0.6199,0.0,0.0,0.7146,0.765,0.0,0.0,0.0,0.8472,0.8878,0.8495,0.0,0.0,0.0,0.0,0.0,0.0,0.0,0.0,0.0,0.0,0.0,0.0,0.0,0.8251,0.8433,0.8711,0.0,0.0,0.0,0.0,0.0,0.0,0.0,0.0,0.0,0.0,0.0,0.0,0.0,0.0,0.0,0.0,0.0,0.0,1.1208,1.1411,1.1411,1.1094,1.1113,1.1397,1.1924,1.2396,1.2817,1.3186,1.353,1.3693,1.3693,1.3414,1.3264,1.3204,1.3182,1.3161,1.3204,1.348,1.4079,1.492,1.4973,1.5566,1.6474,1.6413,1.6382,1.6382,1.6382,1.6467,1.6647,0.0,0.2933,0.3047,0.3103,0.3252,0.3387,0.0,0.0,0.0,0.0,0.0,0.0,0.0,0.0,0.0,0.0,0.3987,0.3907,0.3718,0.3381,0.3168,0.3111,0.3131,0.3241,0.3424,0.0,0.0,0.0,0.0,0.0,0.0,0.0,0.0,0.0,0.5405,0.5814,0.0,0.0,0.0,0.6544,0.6636,0.681,0.0,0.0,0.7935,0.0,0.8339,0.8664,0.9082,0.9027,0.8847,0.0,0.0,0.0,0.0,0.0,0.7363,0.0,0.0,0.0,0.0,0.0,0.0,0.0,0.8699,0.8696,0.878,0.0,0.0,0.0,0.0,0.0,0.0,0.0,0.0,0.0,0.0,0.0,0.0,0.0,0.0,0.0,0.0,1.135,1.1456,1.1416,1.1293,1.122,1.122,1.1261,1.1479,1.1875,1.2405,1.2729,1.2824,1.3351,1.3594,1.3564,1.3012,1.2862,1.3084,1.2708,1.2755,1.3202,1.3372,1.3965,1.4784,1.4784,1.551,1.6594,1.6485,1.6439,1.6439,1.6504,1.6504,1.6536,0.3019,0.3066,0.3165,0.3173,0.3218,0.0,0.0,0.0,0.0,0.0,0.0,0.0,0.0,0.0,0.0,0.0,0.0,0.3883,0.3781,0.3419,0.3168,0.3111,0.3308,0.3472,0.3564,0.3878,0.0,0.0,0.0,0.0,0.0,0.0,0.0,0.0,0.5074,0.5246,0.0,0.0,0.0,0.6137,0.6419,0.0,0.7125,0.759,0.7999,0.8388,0.8973,0.91,0.902,0.0,0.9039,0.8974,0.0,0.0,0.0,0.0,0.0,0.0,0.0,0.0,0.0,0.0,0.0,0.0,0.742,0.7742,0.8175,0.0,0.0,0.0,0.0,0.0,0.0,0.0,0.0,0.0,0.0,0.0,0.0,0.0,0.0,0.0,0.0,1.105,1.104,1.0937,1.1209,1.1352,1.1352,1.1636,1.1794,1.1816,1.2224,1.2478,1.2501,1.2746,1.2904,1.2904,1.2912,1.2751,1.2432,1.3079,1.3256,1.3071,1.3698,1.4228,1.4649,1.4649,1.5221,1.614,1.6116,1.6104,1.6136,1.6396,1.6504,1.659,0.3245,0.3304,0.3397,0.3393,0.0,0.0,0.0,0.0,0.0,0.0,0.0,0.0,0.0,0.0,0.0,0.0,0.0,0.0,0.0,0.0,0.3402,0.3164,0.3372,0.3582,0.3744,0.3982,0.0,0.0,0.0,0.0,0.0,0.0,0.0,0.0,0.0,0.0,0.0,0.0,0.5765,0.6243,0.6759,0.0,0.7503,0.8012,0.8421,0.8794,0.9016,0.9175,0.9262,0.9282,0.9348,0.0,0.0,0.864,0.8634,0.0,0.8117,0.8366,0.0,0.0,0.0,0.7605,0.0,0.0,0.0,0.7701,0.7992,0.0,0.0,0.0,0.0,0.0,0.0,0.0,0.0,0.0,0.0,0.0,0.0,0.0,0.0,0.0,0.0,1.1031,1.0974,1.0764,1.0838,1.1012,1.1277,1.1467,1.1566,1.1566,1.2035,1.2269,1.2212,1.2639,1.2887,1.3005,1.2933,1.2778,1.2499,1.2872,1.302,1.3023,1.3274,1.3707,1.4205,1.4015,1.4446,1.5225,1.5388,1.5453,1.5486,1.5886,1.6055,1.6232,0.3378,0.3482,0.3604,0.3591,0.0,0.0,0.0,0.0,0.0,0.0,0.0,0.0,0.0,0.0,0.0,0.0,0.0,0.0,0.0,0.0,0.0,0.3338,0.3432,0.365,0.3953,0.3968,0.4213,0.0,0.0,0.0,0.0,0.0,0.0,0.0,0.0,0.0,0.0,0.0,0.0,0.6633,0.0,0.7568,0.7773,0.8393,0.8817,0.9094,0.9088,0.9311,0.9589,0.9737,0.0,0.9649,0.9129,0.9103,0.0,0.0,0.0,0.0,0.0,0.0,0.0,0.0,0.0,0.8387,0.0,0.0,0.0,0.8383,0.0,0.0,0.0,0.0,0.0,0.0,0.0,0.0,0.0,0.0,0.0,0.0,0.0,0.0,0.0,1.0854,1.0799,1.0691,1.0482,1.0582,1.1028,1.1183,1.1251,1.1201,1.1752,1.1946,1.1756,1.2412,1.2783,1.296,1.2826,1.2748,1.2683,1.2599,1.271,1.2952,1.2865,1.3146,1.3595,1.3414,1.3608,1.4092,1.4618,1.4833,1.4941,1.5414,1.5596,1.5752,0.3226,0.3428,0.3582,0.3513,0.0,0.0,0.0,0.0,0.0,0.0,0.0,0.0,0.0,0.0,0.0,0.0,0.0,0.0,0.4179,0.0,0.0,0.0,0.0,0.0,0.4149,0.399,0.4135,0.0,0.0,0.0,0.0,0.0,0.0,0.0,0.5379,0.0,0.0,0.0,0.6316,0.0,0.7539,0.7549,0.0,0.836,0.873,0.8879,0.9805,1.002,0.9908,0.0,1.0382,1.0138,0.0,0.9698,0.0,0.0,0.0,0.0,0.0,0.0,0.0,0.0,0.8384,0.0,0.0,0.0,0.7919,0.7695,0.0,0.0,0.0,0.0,0.0,0.0,0.0,0.0,0.0,0.0,0.0,0.0,0.0,0.0,0.0,0.0,1.0128,1.0576,1.0424,1.0397,1.0562,1.1152,1.129,1.0876,1.1209,1.1254,1.0936,1.1425,1.1665,1.172,1.2314,1.2522,1.2384,1.2645,1.2798,1.2832,1.3169,1.3176,1.2929,1.327,1.3166,1.2896,1.4009,1.4637,1.4959,1.5536,1.5557,1.5424,0.3053,0.3236,0.3361,0.3328,0.0,0.0,0.0,0.0,0.0,0.0,0.0,0.0,0.0,0.0,0.0,0.0,0.0,0.5021,0.0,0.0,0.0,0.0,0.0,0.0,0.0,0.4315,0.4378,0.4654,0.4613,0.0,0.0,0.0,0.0,0.0,0.5864,0.0,0.6604,0.0,0.0,0.0,0.0,0.0,0.0,0.8792,0.9228,0.9308,0.9994,1.0175,1.0106,0.0,1.0215,0.0,0.0,0.0,0.0,0.0,0.0,0.0,0.0,0.0,0.0,0.0,0.0,0.0,0.0,0.0,0.788,0.0,0.0,0.0,0.0,0.0,0.0,0.0,0.0,0.0,0.0,0.0,0.0,0.0,0.0,0.0,0.0,0.0,0.0,0.0,0.0,1.0029,1.0354,1.0971,1.1038,1.0412,1.1263,1.1502,1.1083,1.1555,1.1948,1.2274,1.2361,1.249,1.258,1.2661,1.2733,1.2786,1.2638,1.2661,1.2794,1.2754,1.2863,1.3135,1.3707,1.4079,1.4361,1.4736,1.495,1.5156,0.2778,0.0,0.0,0.0,0.0,0.0,0.0,0.0,0.0,0.0,0.0,0.0,0.5009,0.5299,0.0,0.0,0.0,0.5347,0.0,0.0,0.4506,0.0,0.0,0.0,0.0,0.0,0.4575,0.4648,0.4643,0.0,0.0,0.0,0.0,0.0,0.0,0.6571,0.7134,0.0,0.0,0.7325,0.7483,0.7841,0.838,0.9171,0.9551,0.9738,1.0149,1.0245,1.0162,1.029,1.0116,0.0,0.9916,0.0,0.0,0.0,0.0,0.0,0.9388,0.0,0.0,0.0,0.0,0.0,0.0,0.0,0.0,0.0,0.0,0.0,0.0,0.0,0.0,0.0,0.0,0.0,0.0,0.0,0.0,0.0,0.0,0.0,0.0,0.0,0.0,0.0,0.0,0.0,1.0058,1.0675,1.0707,0.9991,1.1202,1.1627,1.1099,1.1618,1.2142,1.2595,1.238,1.247,1.2799,1.2702,1.2636,1.2591,1.2302,1.2286,1.2533,1.2424,1.2692,1.3177,1.3319,1.3569,1.3857,1.421,1.459,1.4913,0.2366,0.2639,0.0,0.0,0.0,0.0,0.0,0.0,0.0,0.0,0.0,0.0,0.0,0.0,0.0,0.0,0.0,0.5571,0.5304,0.0,0.465,0.0,0.0,0.0,0.0,0.0,0.4556,0.4503,0.4636,0.0,0.0,0.0,0.0,0.0,0.0,0.6722,0.7767,0.7498,0.7875,0.8628,0.8433,0.8955,0.977,0.0,0.9429,0.9951,1.0423,0.0,0.0,1.0533,1.0368,0.0,0.0,0.0,0.0,0.0,0.0,0.0,0.0,0.0,0.0,0.8818,0.0,0.0,0.0,0.0,0.8852,0.0,0.0,0.0,0.0,0.0,0.0,0.0,0.0,0.0,0.0,0.0,0.0,0.0,0.0,0.0,0.0,0.0,0.0,0.0,0.0,0.0,0.9491,1.0224,1.0312,0.9628,1.0844,1.1224,1.0619,1.1271,1.1789,1.212,1.2227,1.247,1.2807,1.2799,1.2563,1.2137,1.2451,1.2299,1.1877,1.2395,1.2596,1.2653,1.2775,1.3145,1.3705,1.4414,1.4701,1.4736,0.0,0.0,0.0,0.0,0.0,0.0,0.0,0.3801,0.0,0.0,0.0,0.0,0.0,0.0,0.5672,0.0,0.0,0.5752,0.5571,0.5191,0.0,0.0,0.0,0.4896,0.0,0.0,0.5033,0.4833,0.4876,0.0,0.0,0.0,0.0,0.0,0.0,0.6937,0.0,0.0,0.0,0.0,0.0,0.8949,0.9264,0.0,0.0,0.9802,1.0108,0.9972,0.0,1.0249,1.0113,0.9804,1.016,1.0121,0.9985,1.016,1.0186,0.0,0.0,0.0,1.0063,0.9307,0.0,0.0,0.0,0.0,0.0,0.0,0.0,0.0,0.0,0.0,0.0,0.0,0.0,0.0,0.0,0.0,0.0,0.0,0.0,0.0,0.0,0.0,0.0,0.0,0.0,0.0,0.0,1.0568,1.0616,0.977,1.1011,1.1399,1.0738,1.1142,1.1629,1.2219,1.2051,1.214,1.2477,1.2477,1.2179,1.1717,1.1814,1.1888,1.1962,1.2113,1.2402,1.2759,1.2938,1.3277,1.3663,1.3814,1.4051,1.4344,0.2347,0.0,0.0,0.0,0.0,0.0,0.0,0.0,0.0,0.0,0.4379,0.0,0.5387,0.0,0.5732,0.0,0.5936,0.5823,0.5749,0.5383,0.0,0.5343,0.5221,0.0,0.0,0.0,0.0,0.5188,0.5188,0.5188,0.0,0.0,0.0,0.0,0.0,0.0,0.0,0.0,0.8279,0.0,0.0,0.8995,0.0,0.0,0.9763,0.9633,0.0,0.9654,0.9512,0.9929,0.9814,0.9593,1.0041,1.0008,0.9831,1.0053,1.019,1.0233,1.0142,1.0259,0.0,0.9764,0.9604,0.0,0.8952,0.0,0.0,0.0,0.0,0.0,0.0,0.0,0.0,0.0,0.0,0.0,0.0,0.8562,0.0,0.0,0.0,0.0,0.0,0.0,0.0,0.952,0.9198,0.0,0.0,0.0,1.0377,0.9809,1.0951,1.1358,1.0975,1.1123,1.1578,1.2272,1.1783,1.1687,1.2048,1.2048,1.176,1.1256,1.1436,1.1628,1.1854,1.2045,1.2439,1.2946,1.3124,1.3408,1.3644,1.3455,1.3614,1.3894,0.2252,0.0,0.0,0.0,0.2884,0.0,0.0,0.0,0.3709,0.0,0.4563,0.5017,0.539,0.565,0.5853,0.597,0.5866,0.0,0.5813,0.5393,0.0,0.0,0.5457,0.5539,0.5987,0.0,0.0,0.0,0.5529,0.5524,0.0,0.0,0.0,0.0,0.6429,0.0,0.7921,0.8467,0.8777,0.8915,0.8907,0.9159,0.9492,0.9702,0.0,0.9478,0.9504,0.9445,0.9404,0.9553,0.9503,0.946,0.9731,0.9815,0.9846,0.9982,1.0166,1.0272,1.01,1.0222,1.0375,1.018,0.0,0.0,0.0,0.0,1.01,0.0,0.0,0.0,0.0,0.0,0.0,0.0,0.0,0.0,0.0,0.0,0.0,0.0,0.0,0.0,0.0,0.0,0.8205,0.9087,0.8583,0.8655,0.0,0.0,0.9649,0.9773,1.0634,1.1128,1.1214,1.1181,1.153,1.2215,1.1402,1.1207,1.1563,1.157,1.1303,1.082,1.1278,1.1506,1.165,1.2078,1.2605,1.3108,1.3321,1.3465,1.3542,1.3449,1.3427,1.3486,0.2183,0.2396,0.2564,0.0,0.2658,0.2828,0.0,0.0,0.0,0.0,0.463,0.4986,0.563,0.5764,0.5777,0.5702,0.5768,0.0,0.0,0.0,0.0,0.5943,0.6014,0.6011,0.5931,0.6231,0.0,0.6083,0.0,0.0,0.5642,0.0,0.0,0.0,0.0,0.0,0.7775,0.8213,0.8591,0.8934,0.9179,0.9264,0.0,0.0,0.9425,0.9314,0.951,0.9328,0.9099,0.9469,0.9503,0.9466,0.9836,1.0044,1.0182,1.02,1.0398,1.0598,1.0522,1.0568,1.0566,1.0377,1.0228,1.0121,0.0,0.0,0.0,0.0,0.0,0.0,0.0,0.0,0.0,0.0,0.0,0.0,0.0,0.0,0.0,0.0,0.0,0.0,0.0,0.0,0.8322,0.8508,0.8517,0.877,0.0,0.0,0.0,0.9517,1.0384,1.0685,1.0326,1.0559,1.0857,1.1162,1.1074,1.1038,1.1142,1.1264,1.1103,1.074,1.084,1.1223,1.175,1.1894,1.2406,1.31,1.3149,1.3108,1.3035,1.34,1.3652,1.3709,0.1991,0.0,0.0,0.2698,0.0,0.0,0.3128,0.0,0.0,0.4308,0.4693,0.0,0.5454,0.571,0.5802,0.5712,0.5823,0.0,0.0,0.0,0.0,0.5975,0.6192,0.6199,0.5982,0.6453,0.0,0.6172,0.0,0.0,0.5784,0.0,0.0,0.0,0.0,0.6974,0.0,0.8245,0.8808,0.9224,0.928,0.0,0.0,0.9439,0.9369,0.9214,0.9425,0.9257,0.8974,0.9376,0.9433,0.9377,0.9717,0.9916,1.0019,1.0066,1.029,1.0531,1.0531,1.0614,1.0691,1.071,1.0556,1.0463,1.0628,1.0628,1.0748,0.0,0.0,0.0,0.0,0.0,0.0,0.0,0.0,0.0,0.0,0.0,0.0,0.0,0.0,0.0,0.0,0.0,0.802,0.8073,0.824,0.8567,0.0,0.0,0.0,0.9533,1.0005,1.0284,1.0263,1.0347,1.0585,1.0884,1.0777,1.0723,1.0785,1.0876,1.0787,1.0622,1.0657,1.1016,1.156,1.19,1.2383,1.2992,1.3144,1.3229,1.3289,1.3356,1.3407,1.3426,0.0,0.0,0.0,0.0,0.0,0.0,0.0,0.3596,0.0,0.4089,0.0,0.5097,0.5082,0.5546,0.5843,0.5792,0.0,0.5998,0.5887,0.5892,0.5927,0.5953,0.6219,0.6316,0.6208,0.6657,0.0,0.0,0.0,0.0,0.0,0.0,0.0,0.0,0.0,0.0,0.0,0.8413,0.9143,0.0,0.9292,0.9288,0.9422,0.9537,0.9415,0.9226,0.9362,0.9233,0.9036,0.9315,0.9337,0.929,0.9519,0.9599,0.9652,0.971,1.004,1.0339,1.0312,1.052,1.0775,1.0998,1.0932,1.0838,1.108,1.0932,1.0941,1.1553,1.1353,1.1339,0.0,0.0,0.0,0.0,0.0,0.0,0.0,0.0,0.0,0.0,0.0,0.0,0.0,0.0,0.7603,0.7727,0.7825,0.0,0.0,0.0,0.0,0.9461,0.957,0.0,1.0421,0.0,1.0458,1.0787,1.0447,1.0275,1.0364,1.0416,1.0456,1.0462,1.063,1.0897,1.1304,1.1983,1.2502,1.2881,1.3165,1.3432,1.363,1.3275,1.2979,1.2862,0.0,0.0,0.0,0.0,0.0,0.3039,0.3407,0.3564,0.3779,0.4141,0.4407,0.0,0.4906,0.5366,0.5644,0.5628,0.597,0.0,0.0,0.0,0.0,0.6696,0.6752,0.6814,0.6857,0.7083,0.6979,0.0,0.0,0.0,0.0,0.0,0.0,0.0,0.0,0.0,0.7975,0.8514,0.0,0.9264,0.9207,0.9349,0.9557,0.9456,0.9417,0.9376,0.9403,0.9438,0.9476,0.9406,0.9451,0.9525,0.9448,0.9582,0.9723,0.9537,1.0027,1.0586,1.0366,1.0616,1.0911,1.0811,1.1032,1.1346,1.1675,1.1746,1.1919,1.2459,1.2344,1.2082,1.1938,0.0,0.0,0.0,0.0,0.0,0.0,0.0,0.0,0.0,0.0,0.0,0.0,0.0,0.0,0.0,0.0,0.0,0.0,0.0,0.0,0.0,0.9238,0.0,0.0,0.0,1.0134,0.9758,0.9967,0.989,0.9622,1.0063,1.0254,1.0254,1.0578,1.0992,1.1487,1.1902,1.2464,1.3052,1.3212,1.2975,1.2545,1.308,1.3085,1.2846,0.0,0.0,0.0,0.0,0.0,0.0,0.0,0.3582,0.0,0.396,0.4213,0.4484,0.4817,0.533,0.5708,0.5894,0.6134,0.6275,0.6343,0.6139,0.6197,0.6627,0.6806,0.0,0.6793,0.7198,0.7082,0.639,0.0,0.0,0.0,0.0,0.0,0.0,0.0,0.7027,0.0,0.0,0.0,0.9308,0.939,0.9523,0.9713,0.9818,0.9664,0.941,0.9584,0.9624,0.9568,0.9442,0.9394,0.9405,0.9391,0.9539,0.9657,0.9552,0.9966,1.0449,1.0339,1.0631,1.1004,1.1053,1.131,1.1671,1.2154,1.2299,1.2404,1.2739,1.271,1.2446,1.189,1.1312,0.0,0.0,0.0,0.0,0.0,0.0,0.0,0.0,0.0,0.0,0.0,0.0,0.0,0.0,0.0,0.0,0.0,0.0,0.0,0.0,0.0,0.0,0.0,0.0,0.0,0.9774,0.9715,0.9719,0.9827,1.0094,1.0293,1.0459,1.0705,1.0947,1.1233,1.1797,1.2383,1.2932,1.2802,1.2653,1.2545,1.2896,1.3039,1.3123,0.0,0.192,0.0,0.0,0.2812,0.0,0.3215,0.3623,0.3888,0.3825,0.4065,0.4308,0.4578,0.5212,0.57,0.5957,0.6215,0.63,0.6218,0.6085,0.6156,0.6377,0.6714,0.6843,0.6735,0.7237,0.714,0.0,0.0,0.0,0.0,0.0,0.0,0.0,0.0,0.0,0.0,0.0,0.8826,0.9442,0.9557,0.9693,0.9822,1.0095,0.9868,0.9487,0.9837,0.9795,0.9603,0.9657,0.9557,0.9453,0.9485,0.9588,0.9716,0.9716,0.9991,1.0312,1.0312,1.0663,1.1098,1.1338,1.164,1.2003,1.2551,1.266,1.2682,1.2824,1.2785,1.2521,1.19,1.1586,0.0,0.0,0.0,0.0,0.0,0.0,0.0,0.0,0.0,0.0,0.0,0.0,0.0,0.0,0.0,0.7189,0.7482,0.7599,0.0,0.0,0.0,0.9245,0.956,0.0,0.9627,0.0,0.9484,0.9518,0.9854,1.0027,1.0239,1.0538,1.0793,1.0982,1.1166,1.179,1.2293,1.2653,1.2338,1.233,1.2574,1.2653,1.2824,1.3111,0.0,0.0,0.0,0.0,0.0,0.0,0.0,0.3623,0.389,0.3888,0.393,0.3965,0.3996,0.474,0.5251,0.5283,0.6012,0.6399,0.6222,0.6174,0.625,0.6381,0.6714,0.6967,0.714,0.7367,0.7305,0.0,0.0,0.0,0.0,0.0,0.0,0.0,0.0,0.0,0.0,0.8578,0.9121,0.9591,0.9605,0.9693,0.9792,0.9822,0.972,0.9621,0.997,0.9859,0.9702,1.0281,1.0361,1.0163,0.9925,0.9931,1.0055,1.0055,1.0166,1.0312,1.0312,1.0715,1.1216,1.1371,1.1885,1.2446,1.2797,1.2803,1.2843,1.3032,1.2739,1.2305,1.1872,1.1919,1.1912,0.0,0.0,0.0,0.0,0.0,0.0,0.0,0.0,0.0,0.0,0.0,0.0,0.0,0.0,0.6982,0.7132,0.6986,0.711,0.7538,0.0,0.8517,0.8178,0.9168,0.0,0.9003,0.9081,0.9006,0.879,0.9428,0.9829,1.0008,1.0636,1.1276,1.1924,1.2102,1.2216,1.2266,1.2194,1.2015,1.1763,1.2122,1.2266,1.2373,0.0,0.0,0.0,0.0,0.0,0.0,0.0,0.3552,0.3738,0.3931,0.3926,0.3996,0.425,0.4839,0.5283,0.5476,0.6035,0.6341,0.6268,0.6129,0.6292,0.674,0.6839,0.7094,0.7489,0.7595,0.7486,0.0,0.0,0.0,0.0,0.0,0.0,0.0,0.0,0.7414,0.8152,0.8514,0.9013,0.9618,0.97,0.9737,0.9822,1.0035,0.9884,0.9641,0.9991,0.9821,0.9565,1.0011,1.0178,1.0189,1.0303,1.028,1.021,1.0105,1.0331,1.057,1.0339,1.0839,1.1462,1.1797,1.2232,1.2729,1.3264,1.3256,1.3155,1.3107,1.2729,1.2308,1.1978,1.1926,1.1893,0.0,0.0,0.0,0.0,0.0,0.0,0.0,0.0,0.0,0.0,0.0,0.0,0.0,0.0,0.0,0.719,0.718,0.7286,0.756,0.0,0.854,0.83,0.8828,0.903,0.8905,0.8828,0.8851,0.8917,0.9222,0.9603,1.0048,1.0341,1.0843,1.1389,1.1449,1.1619,1.1835,1.1835,1.1727,1.1655,1.2051,1.2194,1.223,0.181,0.0,0.1998,0.0,0.2524,0.2812,0.3396,0.3572,0.3777,0.4149,0.4153,0.423,0.4508,0.4939,0.535,0.571,0.6108,0.6345,0.6321,0.6267,0.647,0.6909,0.7058,0.0,0.7703,0.7762,0.772,0.7546,0.7043,0.0,0.0,0.0,0.0,0.0,0.7117,0.7617,0.8352,0.8656,0.9102,0.9603,0.9835,0.9903,0.9822,1.0114,1.0037,0.9852,1.0061,1.0015,0.9916,1.0201,1.0396,1.0528,1.0685,1.0648,1.0527,1.0521,1.0651,1.0794,1.0719,1.1167,1.1762,1.218,1.2566,1.2964,1.3444,1.3473,1.3325,1.3136,1.2786,1.2467,1.234,1.2197,1.2065,1.2018,0.0,0.0,0.0,0.0,0.0,0.0,0.0,0.8143,0.7929,0.0,0.0,0.0,0.0,0.0,0.7411,0.7159,0.0,0.0,0.0,0.0,0.0,0.8567,0.8731,0.8793,0.8679,0.8739,0.9007,0.9188,0.9594,1.0125,1.0225,1.0555,1.1008,1.0894,1.1152,1.1584,1.1476,1.1512,1.1619,1.1907,1.2015,1.2015,0.1872,0.2121,0.2346,0.2557,0.3044,0.341,0.3486,0.3784,0.4152,0.4634,0.4708,0.468,0.4611,0.5017,0.5431,0.5763,0.6236,0.6448,0.6325,0.6677,0.6834,0.0,0.0,0.7677,0.7709,0.7948,0.8077,0.8077,0.0,0.0,0.73,0.0,0.7209,0.7311,0.7843,0.8209,0.8433,0.9175,0.9486,0.9561,1.0089,1.0093,0.9805,0.9961,1.0135,1.0301,1.0301,1.0591,1.1021,1.1207,1.1369,1.1433,1.1175,1.1087,1.1146,1.1403,1.1158,1.0936,1.1532,1.1849,1.206,1.2413,1.2851,1.3204,1.3204,1.3296,1.3325,1.3136,1.2937,1.2852,1.3051,1.2918,1.2599,1.2092,0.0,0.0,0.0,0.0,0.0,0.0,0.8794,0.8193,0.7921,0.0,0.0,0.0,0.0,0.0,0.0,0.0,0.0,0.7857,0.77,0.0,0.7698,0.8364,0.8674,0.8617,0.8584,0.8683,0.8808,0.9439,0.9871,1.0195,1.0394,1.0671,1.0972,1.0635,1.093,1.1548,1.1152,1.126,1.1584,1.1619,1.1619,1.1619,0.1849,0.1968,0.2123,0.2408,0.2632,0.2856,0.3134,0.3448,0.3729,0.3919,0.4122,0.4438,0.5027,0.5403,0.5697,0.0,0.6236,0.6477,0.0,0.6485,0.657,0.6768,0.7149,0.7463,0.7692,0.8007,0.8176,0.8176,0.0,0.0,0.0,0.7571,0.7739,0.7859,0.8027,0.8287,0.8626,0.9141,0.9469,0.9665,1.0129,1.0254,1.0141,1.0188,1.0238,1.0322,1.0573,1.0724,1.0944,1.1456,1.158,1.1523,1.1675,1.1663,1.1573,1.1511,1.149,1.146,1.1376,1.1598,1.1902,1.2124,1.2345,1.2565,1.2814,1.296,1.3004,1.2792,1.2899,1.2871,1.2479,1.2557,1.2419,1.1717,1.158,0.0,0.0,0.0,0.0,0.0,0.8495,0.8143,0.0,0.7373,0.0,0.0,0.0,0.0,0.0,0.0,0.0,0.0,0.7755,0.0,0.7578,0.8107,0.828,0.8136,0.8447,0.8683,0.8814,0.913,0.9346,0.9458,0.9612,0.9879,1.0245,1.0131,1.0534,1.1188,1.1044,1.126,1.1584,1.1584,1.1584,1.1584,0.1718,0.193,0.2209,0.2601,0.2756,0.2915,0.3138,0.3484,0.3727,0.3793,0.4098,0.4553,0.5224,0.5624,0.0,0.6039,0.6323,0.6501,0.6538,0.6552,0.668,0.6918,0.7154,0.7489,0.7852,0.0,0.0,0.8334,0.806,0.7844,0.7702,0.7963,0.8117,0.8225,0.8268,0.8425,0.8691,0.9074,0.9334,0.9534,1.0058,1.0219,1.0166,1.0326,1.042,1.0499,1.0562,1.0848,1.1229,1.1514,1.1697,1.1853,1.204,1.206,1.1939,1.1752,1.1833,1.1953,1.1845,1.1982,1.2175,1.2195,1.2358,1.2539,1.2672,1.2746,1.2779,1.2653,1.2738,1.2739,1.2375,1.2418,1.2338,1.1728,1.1461,1.1044,1.035,0.0,0.0,0.0,0.0,0.0,0.0,0.7549,0.0,0.0,0.0,0.0,0.0,0.0,0.0,0.7621,0.7795,0.0,0.7755,0.797,0.8037,0.7987,0.8208,0.8376,0.8495,0.8823,0.8949,0.8954,0.9203,0.9518,0.9879,0.9735,1.0131,1.0786,1.0642,1.09,1.1368,1.1368,1.1476,1.1584,0.1485,0.1963,0.0,0.0,0.3231,0.0,0.3457,0.3755,0.4007,0.4078,0.4438,0.4879,0.5247,0.5608,0.599,0.6405,0.0,0.0,0.0,0.6833,0.6997,0.706,0.7319,0.7636,0.8038,0.8071,0.8233,0.8556,0.8448,0.834,0.8231,0.835,0.8443,0.8448,0.8562,0.8611,0.8645,0.8979,0.9146,0.9224,0.9952,1.0135,1.0,1.039,1.0626,1.0757,1.047,1.0948,1.171,1.1425,1.1735,1.2234,1.2234,1.2257,1.2256,1.207,1.2135,1.2367,1.2683,1.2786,1.2704,1.2527,1.2732,1.2895,1.2682,1.2668,1.2699,1.2681,1.2571,1.2501,1.2629,1.2485,1.2275,1.1984,1.138,1.0803,1.0319,0.0,0.0,0.0,0.0,0.0,0.0,0.7727,0.7573,0.0,0.0,0.0,0.0,0.0,0.6961,0.7985,0.7792,0.7847,0.8178,0.7966,0.7916,0.8071,0.7873,0.7853,0.8033,0.8498,0.8698,0.8739,0.9137,0.9535,0.9872,0.9463,0.9782,1.0419,1.0059,1.0347,1.0959,1.0966,1.1224,1.1548,0.0,0.0,0.2214,0.257,0.2899,0.3119,0.3179,0.344,0.3658,0.3771,0.3902,0.4218,0.4916,0.5077,0.5317,0.5757,0.6228,0.6497,0.6518,0.6598,0.6661,0.6723,0.7008,0.7233,0.7335,0.7641,0.794,0.8223,0.8429,0.853,0.8508,0.8628,0.8721,0.8693,0.8778,0.8832,0.8867,0.924,0.9583,0.9898,1.0338,1.0561,1.0672,1.0772,1.0778,1.0747,1.0911,1.1141,1.137,1.1599,1.168,1.1696,1.1696,1.1857,1.2082,1.2201,1.2272,1.2304,1.2399,1.243,1.2422,1.235,1.2396,1.2388,1.2089,1.2424,1.2724,1.258,1.2703,1.2756,1.238,1.211,1.1814,1.1446,1.087,1.0298,0.9845,0.9634,0.0,0.0,0.8533,0.8355,0.7858,0.7693,0.7594,0.0,0.0,0.0,0.0,0.7365,0.7541,0.8202,0.7641,0.7541,0.7972,0.7616,0.7554,0.7776,0.7532,0.7612,0.8033,0.8498,0.8738,0.8861,0.926,0.9571,0.9722,0.9518,0.968,1.0023,0.9951,1.0144,1.0469,1.0562,1.0858,1.1152,0.1224,0.166,0.2099,0.2436,0.2636,0.2781,0.2805,0.3236,0.3525,0.3451,0.3762,0.4147,0.4583,0.4815,0.5109,0.5569,0.6049,0.6355,0.6394,0.6534,0.6653,0.6743,0.7018,0.7268,0.7406,0.7642,0.7824,0.7971,0.8141,0.8243,0.8243,0.8481,0.8507,0.8369,0.8748,0.8815,0.8711,0.9053,0.9399,0.966,0.9978,1.0191,1.0385,1.0659,1.0723,1.0684,1.1056,1.1292,1.1461,1.1663,1.1773,1.1833,1.1833,1.1925,1.2102,1.2138,1.2354,1.2516,1.2516,1.2516,1.2499,1.2442,1.2361,1.2241,1.2051,1.2304,1.2532,1.2424,1.2563,1.2535,1.1975,1.176,1.1488,1.1001,1.0537,1.0098,0.9783,0.9462,0.0,0.8627,0.8457,0.8214,0.7828,0.7714,0.7621,0.7569,0.0,0.0,0.7503,0.7317,0.7385,0.779,0.7499,0.7417,0.758,0.7337,0.7217,0.7238,0.7161,0.7256,0.7563,0.8013,0.8348,0.8639,0.9045,0.9409,0.9703,0.9633,0.9645,0.9717,0.9717,0.9891,1.0144,1.0215,1.0455,1.0786,0.1069,0.1602,0.2113,0.2453,0.251,0.2534,0.2572,0.3113,0.3463,0.3245,0.382,0.4254,0.4322,0.4704,0.506,0.5414,0.5771,0.6078,0.6338,0.6555,0.6766,0.6883,0.7134,0.7371,0.7645,0.7701,0.7731,0.7731,0.7761,0.7796,0.7796,0.8169,0.8144,0.786,0.8578,0.8728,0.8483,0.8798,0.9063,0.9256,0.9467,0.9654,0.983,1.0341,1.0527,1.0577,1.0958,1.1303,1.1538,1.1607,1.1813,1.2054,1.2054,1.2089,1.2101,1.2003,1.2298,1.2714,1.2682,1.2682,1.2667,1.2588,1.2403,1.2226,1.2226,1.2226,1.2218,1.2194,1.2186,1.2036,1.1542,1.1363,1.1118,1.0606,1.0169,0.9839,0.9722,0.0,0.8848,0.8804,0.8382,0.8007,0.7732,0.7658,0.7564,0.7415,0.7339,0.7317,0.0,0.7132,0.7014,0.7115,0.7294,0.7263,0.7094,0.7034,0.691,0.6694,0.685,0.6936,0.7027,0.7421,0.7883,0.8363,0.8775,0.926,0.9758,0.9742,0.966,0.9514,0.9492,0.963,0.9807,0.9807,1.0059,1.0455,0.1437,0.1823,0.2178,0.2531,0.26,0.268,0.2975,0.3118,0.3299,0.3637,0.3864,0.4074,0.435,0.4558,0.4701,0.4739,0.5111,0.5711,0.6578,0.6663,0.6766,0.6883,0.6946,0.6973,0.7044,0.7253,0.7383,0.7383,0.7662,0.7796,0.7801,0.7997,0.804,0.8009,0.8489,0.8714,0.8678,0.9068,0.9438,0.9778,0.9827,0.9947,1.0119,1.0235,1.0191,1.0162,1.0543,1.0716,1.0813,1.1158,1.1303,1.1372,1.1372,1.1538,1.1779,1.175,1.2003,1.2259,1.2165,1.2127,1.2149,1.2312,1.2119,1.1866,1.1866,1.1866,1.1828,1.1645,1.1615,1.1537,1.1277,1.0698,1.0228,1.0189,0.9427,0.8856,0.8889,0.0,0.856,0.8339,0.7991,0.7645,0.7322,0.7285,0.721,0.6993,0.7375,0.7505,0.7247,0.7255,0.7085,0.6792,0.6755,0.6696,0.661,0.6664,0.667,0.6694,0.685,0.6936,0.7027,0.7421,0.792,0.8473,0.8885,0.9417,0.996,0.9818,0.9742,0.9671,0.953,0.9447,0.9374,0.9374,0.9663,0.9987,0.0968,0.1419,0.1838,0.1967,0.2175,0.2388,0.2535,0.2885,0.3239,0.3461,0.3905,0.4271,0.4444,0.4373,0.4477,0.4877,0.497,0.5348,0.6224,0.6431,0.6566,0.6641,0.7083,0.7325,0.7325,0.7463,0.7379,0.7153,0.7291,0.7362,0.7362,0.7661,0.7679,0.7504,0.809,0.8295,0.8145,0.8724,0.909,0.9266,0.9482,0.9629,0.9721,0.9971,1.0007,0.9989,1.0414,1.0555,1.059,1.0979,1.1091,1.1127,1.1339,1.1515,1.1635,1.1552,1.1851,1.2197,1.2278,1.2131,1.206,1.2252,1.2041,1.181,1.181,1.181,1.1729,1.1417,1.1501,1.1417,1.0677,1.0333,1.0031,0.9577,0.9078,0.0,0.0,0.8318,0.8136,0.7851,0.7514,0.7281,0.7215,0.7208,0.7192,0.7114,0.7156,0.7066,0.6845,0.678,0.6616,0.6292,0.646,0.6535,0.6485,0.6674,0.6729,0.6694,0.6864,0.6986,0.699,0.7222,0.7762,0.8502,0.8521,0.9091,0.9975,0.9689,0.9637,0.9753,0.9699,0.9563,0.94,0.94,0.9471,0.9627,0.0721,0.1179,0.1537,0.1662,0.1906,0.212,0.212,0.2673,0.3127,0.3194,0.3881,0.4394,0.4463,0.432,0.4462,0.5008,0.4895,0.5052,0.5607,0.5977,0.625,0.6433,0.7191,0.7599,0.7599,0.7577,0.7383,0.7023,0.7023,0.7023,0.7023,0.7347,0.731,0.7059,0.7715,0.7856,0.7674,0.8358,0.8696,0.8805,0.9097,0.9279,0.9425,0.9753,0.9839,0.9853,1.0251,1.0372,1.0419,1.0786,1.0894,1.093,1.1332,1.1476,1.1456,1.1442,1.1748,1.2093,1.2278,1.2078,1.1927,1.2155,1.1903,1.1596,1.1659,1.1619,1.1413,1.1049,1.1214,1.1113,1.011,0.9967,0.9761,0.906,0.0,0.0,0.0,0.7973,0.7774,0.7587,0.7246,0.7085,0.7198,0.7167,0.7117,0.7065,0.689,0.6701,0.6514,0.6386,0.6224,0.5938,0.6316,0.653,0.655,0.6776,0.6854,0.6758,0.6917,0.7003,0.7023,0.7092,0.7634,0.8502,0.8168,0.8756,0.998,0.9553,0.9578,0.984,0.9813,0.9688,0.9563,0.9508,0.9516,0.9602,0.1369,0.1574,0.1704,0.2085,0.2183,0.2185,0.2185,0.249,0.286,0.3161,0.3645,0.406,0.4369,0.451,0.458,0.4652,0.4723,0.4829,0.4866,0.525,0.5807,0.6559,0.7059,0.7327,0.7327,0.7207,0.7121,0.708,0.708,0.708,0.708,0.7117,0.7117,0.7117,0.7556,0.7703,0.7708,0.8206,0.8628,0.897,0.9008,0.927,0.9682,0.9719,0.9648,0.9586,0.9985,1.0056,0.9987,1.0383,1.0527,1.0599,1.093,1.1044,1.1116,1.1498,1.1592,1.166,1.1747,1.1601,1.1531,1.192,1.1502,1.1028,1.1217,1.0982,1.0684,1.0359,1.0293,1.0187,0.9782,0.9336,0.8977,0.8849,0.0,0.0,0.7588,0.7633,0.7704,0.7682,0.739,0.7198,0.7207,0.7043,0.6771,0.6415,0.675,0.6836,0.6518,0.6481,0.6349,0.599,0.6373,0.6619,0.667,0.6838,0.6887,0.6879,0.6981,0.7035,0.708,0.7084,0.7631,0.8569,0.8157,0.8756,0.998,0.9553,0.9625,0.9953,0.9845,0.9786,0.9748,0.9568,0.9811,1.0151,0.1203,0.1467,0.166,0.1786,0.2019,0.2189,0.2189,0.2658,0.2971,0.2895,0.3689,0.4257,0.4153,0.4009,0.4124,0.463,0.4332,0.4322,0.4775,0.5014,0.563,0.6694,0.6884,0.7113,0.7341,0.7081,0.7,0.7211,0.6945,0.6945,0.7211,0.7154,0.7158,0.7244,0.7298,0.7381,0.751,0.8182,0.8535,0.8727,0.9216,0.9559,0.9709,0.9709,0.9633,0.9523,0.9671,0.9624,0.9627,1.0275,1.0347,1.0275,1.1109,1.1188,1.1044,1.1188,1.1224,1.1198,1.1009,1.0992,1.1166,1.1682,1.1009,1.0312,1.0631,1.0385,0.996,0.9588,0.9721,0.9728,0.9123,0.8953,0.878,0.8415,0.0,0.7574,0.7186,0.7103,0.7011,0.6844,0.6723,0.6679,0.6773,0.668,0.6602,0.6436,0.6602,0.6518,0.615,0.5964,0.5827,0.5767,0.5957,0.6045,0.6027,0.6404,0.6554,0.6535,0.6589,0.6784,0.7129,0.7443,0.7955,0.8583,0.8538,0.9051,0.998,0.9553,0.963,1.0014,1.0241,1.0289,1.0248,1.0422,1.0407,1.0335,0.1031,0.1364,0.1624,0.1751,0.2019,0.2192,0.2201,0.2574,0.2859,0.2762,0.3462,0.3961,0.3823,0.3618,0.3798,0.447,0.415,0.4169,0.4796,0.4926,0.551,0.6586,0.6663,0.6818,0.7238,0.6792,0.6678,0.6926,0.6732,0.6846,0.7149,0.7164,0.7243,0.7339,0.7235,0.7243,0.7381,0.8094,0.8483,0.8635,0.9324,0.959,0.9628,0.9742,0.9607,0.9361,0.9509,0.9438,0.9374,0.9951,0.9951,0.9879,1.0786,1.0962,1.0855,1.0746,1.071,1.0625,1.0215,1.0209,1.0468,1.1099,1.0567,0.9952,1.0225,0.9983,0.9622,0.9247,0.9381,0.9375,0.8728,0.8723,0.8662,0.8179,0.783,0.7466,0.7012,0.6865,0.6716,0.6551,0.6548,0.6581,0.6652,0.6606,0.6563,0.6534,0.6559,0.6401,0.599,0.5707,0.5497,0.543,0.5512,0.5454,0.5325,0.5922,0.6203,0.6148,0.6311,0.6649,0.717,0.7531,0.8123,0.8828,0.8667,0.9129,0.998,0.9516,0.9578,0.9965,1.0385,1.0526,1.0565,1.0952,1.096,1.0874,0.1031,0.1375,0.1745,0.2126,0.2189,0.2199,0.2195,0.22,0.2348,0.2728,0.2872,0.3039,0.3361,0.3437,0.3701,0.4154,0.4244,0.4451,0.4855,0.495,0.5371,0.6232,0.6314,0.647,0.6904,0.6361,0.6092,0.6092,0.655,0.678,0.6819,0.7199,0.739,0.739,0.739,0.739,0.7437,0.7959,0.8432,0.8817,0.9246,0.9402,0.9441,0.9864,0.9566,0.9071,0.9521,0.9514,0.9302,0.9302,0.9302,0.9379,0.9771,1.022,1.051,1.0186,1.0075,0.9973,0.9449,0.9307,0.9424,1.0048,1.0127,1.0093,1.0024,0.9886,0.9681,0.9381,0.9279,0.9137,0.8678,0.859,0.849,0.8156,0.776,0.7393,0.7054,0.6982,0.6982,0.6987,0.7037,0.7059,0.6996,0.6825,0.6653,0.6598,0.6641,0.6516,0.6128,0.5782,0.543,0.511,0.5149,0.5036,0.4701,0.5426,0.5789,0.5789,0.6192,0.6717,0.7289,0.7297,0.8083,0.9358,0.8544,0.8895,0.997,0.9428,0.9458,0.9835,1.0336,1.0489,1.0565,1.0958,1.1421,1.1824,0.1443,0.1808,0.1962,0.1819,0.2019,0.2131,0.1886,0.2235,0.2531,0.2447,0.2925,0.3194,0.3078,0.3056,0.3251,0.3665,0.3553,0.3668,0.4094,0.4153,0.4513,0.5332,0.5648,0.6001,0.647,0.6059,0.5971,0.624,0.6088,0.6322,0.6866,0.6961,0.7153,0.748,0.7419,0.7423,0.7527,0.8297,0.87,0.8856,0.9558,0.963,0.9441,0.9864,0.9566,0.9033,0.9216,0.9102,0.891,0.9199,0.8993,0.8658,0.9066,0.9436,0.9627,0.9349,0.9266,0.915,0.8705,0.8585,0.8816,0.9748,0.9699,0.9466,0.9748,0.9469,0.9136,0.9032,0.876,0.8486,0.8353,0.8045,0.7722,0.7388,0.7221,0.702,0.6686,0.6652,0.6677,0.6711,0.6502,0.6324,0.636,0.6306,0.619,0.5924,0.5907,0.5747,0.5359,0.5546,0.5515,0.5181,0.5195,0.5156,0.5065,0.5538,0.5789,0.5789,0.6192,0.6649,0.7166,0.7463,0.8055,0.8857,0.8938,0.9364,0.997,0.9735,0.9687,0.9873,1.0647,1.0914,1.1002,1.1785,1.185,1.1488,0.1398,0.1726,0.1885,0.1649,0.1818,0.1898,0.1728,0.2045,0.231,0.23,0.2703,0.2891,0.2695,0.266,0.2856,0.3292,0.3372,0.3479,0.3764,0.3784,0.4031,0.4505,0.49,0.5401,0.6001,0.5609,0.5531,0.5805,0.5727,0.5926,0.6395,0.6541,0.6735,0.7014,0.7003,0.6968,0.7096,0.7916,0.8271,0.8349,0.9202,0.9285,0.8973,0.9363,0.9136,0.8635,0.8812,0.8721,0.8572,0.8827,0.8646,0.8406,0.8678,0.8909,0.8975,0.8636,0.8548,0.8459,0.8006,0.7965,0.8214,0.8878,0.8858,0.8754,0.9015,0.8788,0.8529,0.8529,0.8268,0.804,0.7995,0.7728,0.7393,0.7054,0.6982,0.6899,0.6572,0.6403,0.6337,0.639,0.6083,0.5897,0.5918,0.594,0.5905,0.5696,0.5696,0.5518,0.5089,0.5343,0.5365,0.5006,0.5008,0.4992,0.4992,0.5538,0.5716,0.5574,0.6119,0.6674,0.7166,0.7422,0.7933,0.8621,0.8972,0.9336,0.9775,0.9764,0.9769,0.984,1.0625,1.0982,1.1113,1.2031,1.2016,1.1566,0.0976,0.1313,0.1548,0.1515,0.1517,0.1565,0.1642,0.165,0.1808,0.2253,0.226,0.226,0.2296,0.2299,0.2507,0.2982,0.344,0.3687,0.3695,0.3694,0.3717,0.3761,0.4123,0.47,0.5434,0.5151,0.4988,0.4983,0.5419,0.5618,0.5612,0.604,0.6275,0.6314,0.6314,0.6314,0.6353,0.7174,0.7486,0.7564,0.8466,0.8544,0.8237,0.8661,0.8479,0.8033,0.8309,0.8323,0.8243,0.8215,0.8276,0.8365,0.8469,0.8497,0.8416,0.8042,0.7932,0.7838,0.741,0.7468,0.7651,0.7642,0.7756,0.7888,0.8059,0.8043,0.7972,0.7972,0.7816,0.7643,0.7584,0.7452,0.7248,0.6946,0.6913,0.6842,0.6556,0.6187,0.5977,0.6058,0.5813,0.5618,0.5564,0.5639,0.5716,0.5756,0.5716,0.5538,0.5177,0.5177,0.5065,0.4738,0.4738,0.4738,0.4738,0.5429,0.5577,0.5296,0.6097,0.6722,0.7216,0.7265,0.7764,0.8549,0.8721,0.8998,0.9405,0.9612,0.9698,0.9757,1.0417,1.0773,1.0965,1.1775,1.1947,1.1811,0.0606,0.0943,0.1111,0.0808,0.0985,0.1239,0.1294,0.1274,0.1505,0.2219,0.2078,0.2005,0.226,0.2354,0.2411,0.2536,0.271,0.2811,0.2865,0.2875,0.3011,0.332,0.3767,0.4086,0.4277,0.4798,0.5068,0.4983,0.5147,0.5345,0.5612,0.5769,0.6001,0.6314,0.6314,0.6314,0.6353,0.7174,0.7486,0.7564,0.8466,0.8544,0.8237,0.8661,0.8479,0.7957,0.7666,0.7694,0.7878,0.7646,0.7751,0.7913,0.7706,0.7612,0.757,0.7523,0.7544,0.7501,0.7404,0.7372,0.7365,0.7253,0.697,0.697,0.7892,0.7878,0.7679,0.7679,0.7138,0.661,0.6591,0.6481,0.6283,0.5972,0.611,0.6183,0.5858,0.5757,0.5712,0.5788,0.5457,0.5233,0.5273,0.5087,0.5065,0.532,0.5101,0.4883,0.481,0.5065,0.5177,0.5101,0.5101,0.5101,0.5101,0.525,0.5494,0.5843,0.6581,0.7071,0.7273,0.7289,0.7616,0.8162,0.8491,0.8885,0.9254,0.9575,0.9649,0.9636,1.0418,1.0718,1.0841,1.1509,1.1555,1.1198,0.0471,0.0673,0.0742,0.0543,0.0684,0.083,0.0918,0.0891,0.1078,0.1711,0.1786,0.1863,0.2058,0.2257,0.2427,0.2456,0.2516,0.2566,0.2597,0.2586,0.2689,0.291,0.3362,0.3608,0.3608,0.4198,0.4604,0.4748,0.4778,0.5003,0.5382,0.5382,0.5522,0.5688,0.5688,0.5688,0.5727,0.6353,0.6626,0.6705,0.733,0.7607,0.7568,0.7607,0.7536,0.7409,0.6896,0.6827,0.6987,0.7068,0.7237,0.7395,0.7439,0.7423,0.7399,0.7439,0.7301,0.7146,0.7146,0.693,0.6698,0.6653,0.6382,0.6349,0.7112,0.699,0.6732,0.6732,0.6342,0.6001,0.6001,0.5937,0.5747,0.5359,0.5604,0.5771,0.545,0.5392,0.5418,0.5485,0.5198,0.4974,0.5009,0.4863,0.4739,0.4709,0.4559,0.4439,0.441,0.4592,0.4788,0.5002,0.5002,0.5017,0.5012,0.5197,0.5565,0.6088,0.6571,0.6988,0.7302,0.7343,0.7502,0.774,0.8404,0.878,0.8956,0.9489,0.9633,0.956,1.0186,1.0442,1.0551,1.107,1.1011,1.0773,0.037,0.0405,0.0407,0.0412,0.0414,0.0453,0.0571,0.0538,0.0649,0.1133,0.15,0.169,0.1712,0.2059,0.2348,0.2402,0.2534,0.261,0.2614,0.262,0.2607,0.2613,0.307,0.3278,0.3195,0.3609,0.3997,0.4388,0.4388,0.4609,0.5006,0.4998,0.5005,0.5036,0.5036,0.503,0.5022,0.5492,0.5691,0.573,0.6157,0.6509,0.6747,0.6431,0.6509,0.6736,0.6193,0.6012,0.6092,0.6641,0.6805,0.6865,0.7252,0.7369,0.7291,0.7291,0.7056,0.6787,0.6787,0.6456,0.6114,0.6091,0.5931,0.589,0.6173,0.5955,0.5683,0.5683,0.5561,0.5411,0.5411,0.5376,0.5203,0.4814,0.5109,0.5259,0.497,0.4988,0.5045,0.5094,0.4927,0.4769,0.4694,0.4769,0.4635,0.4213,0.4248,0.4265,0.4219,0.4216,0.4386,0.4806,0.4808,0.4796,0.4807,0.5144,0.5597,0.6204,0.6375,0.6765,0.7347,0.7382,0.7411,0.7453,0.8391,0.8707,0.8626,0.937,0.9622,0.9496,0.9917,1.0176,1.0312,1.0672,1.0585,1.0409,0.0067,0.0068,0.0069,0.0069,0.007,0.0178,0.0536,0.0289,0.0366,0.111,0.126,0.1266,0.1282,0.1694,0.1961,0.1988,0.2375,0.2607,0.2593,0.2601,0.2617,0.2686,0.3149,0.3191,0.277,0.3232,0.3656,0.3986,0.3986,0.4185,0.4579,0.4578,0.475,0.5098,0.5098,0.5071,0.5022,0.5453,0.5651,0.573,0.6157,0.6353,0.6392,0.6314,0.6353,0.6303,0.5842,0.5666,0.5787,0.6629,0.6658,0.647,0.6865,0.6744,0.647,0.647,0.6431,0.6392,0.6392,0.6259,0.6089,0.6117,0.5742,0.5394,0.5519,0.5404,0.5286,0.5286,0.4766,0.4322,0.4322,0.4321,0.4165,0.3762,0.4094,0.4239,0.3876,0.4103,0.4334,0.4339,0.4613,0.4656,0.4316,0.458,0.4615,0.4228,0.453,0.4715,0.4707,0.4707,0.475,0.4796,0.4796,0.4799,0.4807,0.4845,0.5331,0.6207,0.6222,0.6676,0.7493,0.7501,0.7466,0.7548,0.8423,0.8664,0.8478,0.9334,0.9536,0.9376,0.9883,1.0124,1.019,1.0636,1.0492,1.0125,0.0,0.0,0.0,0.0,0.0,0.0072,0.0255,0.011,0.0111,0.0487,0.0938,0.1132,0.0879,0.129,0.1674,0.1896,0.1877,0.1976,0.2233,0.2247,0.2385,0.2691,0.2903,0.2903,0.2692,0.2903,0.3099,0.3233,0.3481,0.3939,0.4509,0.4545,0.4716,0.5063,0.5095,0.5079,0.5022,0.5179,0.5296,0.5335,0.5492,0.5727,0.5922,0.5962,0.5962,0.5919,0.5731,0.5644,0.5764,0.6342,0.6314,0.604,0.6431,0.6431,0.6314,0.6314,0.5962,0.5609,0.5844,0.5393,0.4898,0.5331,0.5085,0.4812,0.4996,0.5029,0.4989,0.4989,0.4543,0.4168,0.4168,0.415,0.3942,0.3306,0.3583,0.3755,0.3362,0.3672,0.4024,0.4285,0.4647,0.4793,0.467,0.4789,0.4737,0.4324,0.4474,0.4576,0.4507,0.4505,0.4634,0.4858,0.4858,0.4872,0.4904,0.4904,0.5382,0.6266,0.6266,0.6711,0.7486,0.7486,0.7486,0.7564,0.8427,0.8693,0.8588,0.9423,0.9622,0.9458,0.9798,0.999,1.0057,1.0265,1.0157,0.9971]},{"header":{"parameterUnit":"m.s-1","parameterCategory":1,"la1":30.6,"la2":28.766,"lo1":-90.7593,"lo2":-88.6598,"dy":0.0162,"dx":0.0183,"nx":116,"ny":114,"refTime":"2024-02-11T06:00:00:Z","depth":0,"parameterNumber":3,"parameterNumberName":"V-component_of_WINDS"},"data":[0.0,0.0,0.0,0.0,0.0,0.0,0.0,0.0,0.0,0.0,0.0,0.0,0.0,0.0,0.0,0.0,0.0,0.0,0.0,0.0,0.0,0.0,0.0,0.0,0.0,0.0,0.0,0.0,0.0,0.0,0.0,0.0,0.0,0.0,0.0,0.0,0.0,0.0,0.0,0.0,0.0,0.0,0.0,0.0,0.0,0.0,0.0,0.0,0.0,0.0,0.0,0.0,0.0,0.0,0.0,0.0,0.0,0.0,0.0,0.0,0.0,0.0,0.0,0.0,0.0,0.0,0.0,0.0,0.0,0.0,0.0,0.0,0.0,0.0,0.0,0.0,0.0,0.0,0.0,0.0,0.0,0.0,0.0,0.0,0.0,0.0,0.0,0.0,0.0,0.0,0.0,0.0,0.0,0.0,0.0,0.0,0.0,0.0,0.0,0.0,0.0,0.0,0.0,0.0,0.0,0.0,0.0,0.0,0.0,0.0,0.0,0.0,0.0,0.0,0.0,0.0,0.0,0.0,0.0,0.0,0.0,0.0,0.0,0.0,0.0,0.0,0.0,0.0,0.0,0.0,0.0,0.0,0.0,0.0,0.0,0.0,0.0,0.0,0.0,0.0,0.0,0.0,0.0,0.0,0.0,0.0,0.0,0.0,0.0,0.0,0.0,0.0,0.0,0.0,0.0,0.0,0.0,0.0,0.0,0.0,0.0,0.0,0.0,0.0,0.0,0.0,0.0,0.0,0.0,0.0,0.0,0.0,0.0,0.0,0.0,0.0,0.0,0.0,0.0,0.0,0.0,0.0,0.0,0.0,0.0,0.0,0.0,0.0,0.0,0.0,0.0,0.0,0.0,0.0,0.0,0.0,0.0,0.0,0.0,0.0,0.0,0.0,0.0,0.0,0.0,0.0,0.0,0.0,0.0,0.0,0.0,0.0,0.0,0.0,0.0,0.0,0.0,0.0,0.0,0.0,0.0,0.0,0.0,0.0,0.0,0.0,0.0,0.0,0.0,0.0,0.0,0.0,0.0,0.0,0.0,0.0,0.0,0.0,0.0,0.0,0.0,0.0,0.0,0.0,0.0,0.0,0.0,0.0,0.0,0.0,0.0,0.0,0.0,0.0,0.0,0.0,0.0,0.0,0.0,0.0,0.0,0.0,0.0,0.0,0.0,0.0,0.0,0.0,0.0,0.0,0.0,0.0,0.0,0.0,0.0,0.0,0.0,0.0,0.0,0.0,0.0,0.0,0.0,0.0,0.0,0.0,0.0,0.0,0.0,0.0,0.0,0.0,0.0,0.0,0.0,0.0,0.0,0.0,0.0,0.0,0.0,0.0,0.0,0.0,0.0,0.0,0.0,0.0,0.0,0.0,0.0,0.0,0.0,0.0,0.0,0.0,0.0,0.0,0.0,0.0,0.0,0.0,0.0,0.0,0.0,0.0,0.0,0.0,0.0,0.0,0.0,0.0,0.0,0.0,0.0,0.0,0.0,0.0,0.0,0.0,0.0,0.0,0.0,0.0,0.0,0.0,0.0,0.0,0.0,0.0,0.0,0.0,0.0,0.0,0.0,0.0,0.0,0.0,0.0,0.0,0.0,0.0,0.0,0.0,0.0,0.0,0.0,0.0,0.0,0.0,0.0,0.0,0.0,0.0,0.0,0.0,0.0,0.0,0.0,0.0,0.0,0.0,0.0,0.0,0.0,0.0,0.0,0.0,0.0,0.0,0.0,0.0,0.0,0.0,0.0,0.0,0.0,0.0,0.0,0.0,0.0,0.0,0.0,0.0,0.0,0.0,0.0,0.0,0.0,0.0,0.0,0.0,0.0,0.0,0.0,0.0,0.0,0.0,0.0,0.0,0.0,0.0,0.0,0.0,0.0,0.0,0.0,0.0,0.0,0.0,0.0,0.0,0.0,0.0,0.0,0.0,0.0,0.0,0.0,0.0,0.0,0.0,0.0,0.0,0.0,0.0,0.0,0.0,0.0,0.0,0.0,0.0,0.0,0.0,0.0,0.0,0.0,0.0,0.0,0.0,0.0,0.0,0.0,0.0,0.0,0.0,0.0,0.0,0.0,0.0,0.0,0.0,0.0,0.0,0.0,0.0,0.0,0.0,0.0,0.0,0.0,0.0,0.0,0.0,0.0,0.0,0.0,0.0,0.0,0.0,0.0,0.0,0.0,0.0,0.0,0.0,0.0,0.0,0.0,0.0,0.0,0.0,0.0,0.0,0.0,0.0,0.0,0.0,0.0,0.0,0.0,0.0,0.0,0.0,0.0,0.0,0.0,0.0,0.0,0.0,0.0,0.0,0.0,0.0,0.0,0.0,0.0,0.0,0.0,0.0,0.0,0.0,0.0,0.0,0.0,0.0,0.0,0.0,0.0,0.0,0.0,0.0,0.0,0.0,0.0,0.0,0.0,0.0,0.0,0.0,0.0,0.0,0.0,0.0,0.0,0.0,0.0,0.0,0.0,0.0,0.0,0.0,0.0,0.0,0.0,0.0,0.0,0.0,0.0,0.0,0.0,0.0,0.0,0.0,0.0,0.0,0.0,0.0,0.0,0.0,0.0,0.0,0.0,0.0,0.0,0.0,0.0,0.0,0.0,0.0,0.0,0.0,0.0,0.0,0.0,0.0,0.0,0.0,0.0,0.0,0.0,0.0,0.0,0.0,0.0,0.0,0.0,0.0,0.0,0.0,0.0,0.0,0.0,0.0,0.0,0.0,0.0,0.0,0.0,0.0,0.0,0.0,0.0,0.0,0.0,0.0,0.0,0.0,0.0,0.0,0.0,0.0,0.0,0.0,0.0,0.0,0.0,0.0,0.0,0.0,0.0,0.0,0.0,0.0,0.0,0.0,0.0,0.0,0.0,0.0,0.0,0.0,0.0,0.0,0.0,0.0,0.0,0.0,0.0,0.0,0.0,0.0,0.0,0.0,0.0,0.0,0.0,0.0,0.0,0.0,0.0,0.0,0.0,0.0,0.0,0.0,0.0,0.0,0.0,0.0,0.0,0.0,0.0,0.0,0.0,0.0,0.0,0.0,0.0,0.0,0.0,0.0,0.0,0.0,0.0,0.0,0.0,0.0,0.0,0.0,0.0,0.0,0.0,0.0,0.0,0.0,0.0,0.0,0.0,0.0,0.0,0.0,0.0,0.0,0.0,0.0,0.0,0.0,0.0,0.0,0.0,0.0,0.0,0.0,0.0,0.0,0.0,0.0,0.0,0.0,0.0,0.0,0.0,0.0,0.0,0.0,0.0,0.0,0.0,0.0,0.0,0.0,0.0,0.0,0.0,0.0,0.0,0.0,0.0,0.0,0.0,0.0,0.0,0.0,0.0,0.0,0.0,0.0,0.0,0.0,0.0,0.0,0.0,0.0,0.0,0.0,0.0,0.0,0.0,0.0,0.0,0.0,0.0,0.0,0.0,0.0,0.0,0.0,0.0,0.0,0.0,0.0,0.0,0.0,0.0,0.0,0.0,0.0,0.0,0.0,0.0,0.0,0.0,0.0,0.0,0.0,0.0,0.0,0.0,0.0,0.0,0.0,0.0,0.0,0.0,0.0,0.0,0.0,0.0,0.0,0.0,0.0,0.0,0.0,0.0,0.0,0.0,0.0,0.0,0.0,0.0,0.0,0.0,0.0,0.0,0.0,0.0,0.0,0.0,0.0,0.0,0.0,0.0,0.0,0.0,0.0,0.0,0.0,0.0,0.0,0.0,0.0,0.0,0.0,0.0,0.0,0.0,0.0,0.0,0.0,0.0,0.0,0.0,0.0,0.0,0.0,0.0,0.0,0.0,0.0,0.0,0.0,0.0,0.0,0.0,0.0,0.0,0.0,0.0,0.0,0.0,0.0,0.0,0.0,0.0,0.0,0.0,0.0,0.0,0.0,0.0,0.0,0.0,0.0,0.0,0.0,0.0,0.0,0.0,0.0,0.0,0.0,0.0,0.0,0.0,0.0,0.0,0.0,0.0,0.0,0.0,0.0,0.0,0.0,0.0,0.0,0.0,0.0,0.0,0.0,0.0,0.0,0.0,0.0,0.0,0.0,0.0,0.0,0.0,0.0,0.0,0.0,0.0,0.0,0.0,0.0,0.0,0.0,0.0,0.0,0.0,0.0,0.0,0.0,0.0,0.0,0.0,0.0,0.0,0.0,0.0,0.0,0.0,0.0,0.0,0.0,0.0,0.0,0.0,0.0,0.0,0.0,0.0,0.0,0.0,0.0,0.0,0.0,0.0,0.0,0.0,0.0,0.0,0.0,0.0,0.0,0.0,0.0,0.0,0.0,0.0,0.0,0.0,0.0,0.0,0.0,0.0,0.0,0.0,0.0,0.0,0.0,0.0,0.0,0.0,0.0,0.0,0.0,0.0,0.0,0.0,0.0,0.0,0.0,0.0,0.0,0.0,0.0,0.0,0.0,0.0,0.0,0.0,0.0,0.0,0.0,0.0,0.0,0.0,0.0,0.0,0.0,0.0,0.0,0.0,0.0,0.0,0.0,0.0,0.0,0.0,0.0,0.0,0.0,0.0,0.0,0.0,0.0,0.0,0.0,0.0,0.0,0.0,0.0,0.0,0.0,0.0,0.0,0.0,0.0,0.0,0.0,0.0,0.0,0.0,0.0,0.0,0.0,0.0,0.0,0.0,0.0,0.0,0.0,0.0,0.0,0.0,0.0,0.0,0.0,0.0,0.0,0.0,0.0,0.0,0.0,0.0,0.0,0.0,0.0,0.0,0.0,0.0,0.0,0.0,0.0,0.0,0.0,0.0,0.0,0.0,0.0,0.0,0.0,0.0,0.0,0.0,0.0,0.0,0.0,0.0,0.0,0.0,0.0,0.0,0.0,0.0,0.0,0.0,0.0,0.0,0.0,0.0,0.0,0.0,0.0,0.0,0.0,0.0,0.0,0.0,0.0,0.0,0.0,0.0,0.0,0.0,0.0,0.0,0.0,0.0,0.0,0.0,0.0,0.0,0.0,0.0,0.0,0.0,0.0,0.0,0.0,0.0,0.0,0.0,0.0,0.0,0.0,0.0,0.0,0.0,0.0,0.0,0.0,0.0,0.0,0.0,0.0,0.0,0.0,0.0,0.0,0.0,0.0,0.0,0.0,0.0,0.0,0.0,0.0,0.0,0.0,0.0,0.0,0.0,0.0,0.0,0.0,0.0,0.0,0.0,0.0,0.0,0.0,0.0,0.0,0.0,0.0,0.0,0.0,0.0,0.0,0.0,0.0,0.0,0.0,0.0,0.0,0.0,0.0,0.0,0.0,0.0,0.0,0.0,0.0,0.0,0.0,0.0,0.0,0.0,0.0,0.0,0.0,0.0,0.0,0.0,0.0,0.0,0.0,0.0,0.0,0.0,0.0,0.0,0.0,0.0,0.0,0.0,0.0,0.0,0.0,0.0,0.0,0.0,0.0,0.0,0.0,0.0,0.0,0.0,0.0,0.0,0.0,0.0,0.0,0.0,0.0,0.0,0.0,0.0,0.0,0.0,0.0,0.0,0.0,0.0,0.0,0.0,0.0,0.0,0.0,0.0,0.0,0.0,0.0,0.0,0.0,0.0,0.0,0.0,0.0,0.0,0.0,0.0,0.0,0.0,0.0,0.0,0.0,0.0,0.0,0.0,0.0,0.0,0.0,0.0,0.0,0.0,0.0,0.0,0.0,0.0,0.0,0.0,0.0,0.0,0.0,0.0,0.0,0.0,0.0,0.0,0.0,0.0,0.0,0.0,0.0,0.0,0.0,0.0,0.0,0.0,0.0,0.0,0.0,0.0,0.0,0.0,0.0,0.0,0.0,0.0,0.0,0.0,0.0,0.0,0.0,0.0,0.0,0.0,0.0,0.0,0.0,0.0,0.0,0.0,0.0,0.0,0.0,0.0,0.0,0.0,0.0,0.0,0.0,0.0,0.0,0.0,0.0,0.0,0.0,0.0,0.0,0.0,0.0,0.0,0.0,0.0,0.0,0.0,0.0,0.0,0.0,0.0,0.0,0.0,0.0,0.0,0.0,0.0,0.0,0.0,0.0,0.0,0.0,0.0,0.0,0.0,0.0,0.0,0.0,0.0,0.0,0.0,0.0,0.0,0.0,0.0,0.0,2.6854,0.0,0.0,0.0,0.0,0.0,0.0,0.0,0.0,0.0,0.0,0.0,0.0,0.0,0.0,0.0,0.0,0.0,0.0,0.0,0.0,0.0,0.0,0.0,0.0,0.0,0.0,0.0,2.0585,2.0585,2.0585,2.0585,2.0585,2.0585,2.0584,2.0582,2.0618,2.0965,2.1971,2.3634,2.4073,2.5608,2.8047,2.7533,2.5994,2.3511,0.0,0.0,0.0,0.0,0.0,0.0,0.0,0.0,0.0,0.0,0.0,0.0,0.0,0.0,0.0,0.0,0.0,0.0,0.0,0.0,0.0,0.0,0.0,0.0,0.0,0.0,0.0,0.0,0.0,0.0,0.0,0.0,0.0,0.0,0.0,0.0,0.0,0.0,0.0,0.0,0.0,0.0,0.0,0.0,0.0,0.0,0.0,0.0,0.0,0.0,0.0,0.0,0.0,0.0,0.0,0.0,0.0,0.0,0.0,0.0,0.0,0.0,0.0,0.0,0.0,0.0,0.0,0.0,0.0,0.0,0.0,2.8113,0.0,0.0,0.0,0.0,0.0,0.0,0.0,0.0,0.0,0.0,0.0,0.0,0.0,0.0,0.0,0.0,0.0,0.0,0.0,0.0,0.0,0.0,0.0,2.0897,2.1053,2.1049,2.1049,2.0972,2.0856,2.0816,2.0777,2.0621,2.0617,2.0653,2.0807,2.1614,2.3353,2.6064,2.7111,2.9221,3.2283,3.3759,3.243,2.8762,0.0,0.0,0.0,0.0,0.0,0.0,0.0,0.0,0.0,0.0,0.0,0.0,0.0,0.0,0.0,0.0,0.0,0.0,0.0,0.0,0.0,0.0,0.0,0.0,0.0,0.0,0.0,0.0,0.0,0.0,0.0,0.0,0.0,0.0,0.0,0.0,0.0,0.0,0.0,0.0,0.0,0.0,0.0,0.0,0.0,0.0,0.0,0.0,0.0,0.0,0.0,0.0,0.0,0.0,0.0,0.0,0.0,0.0,0.0,0.0,0.0,0.0,0.0,0.0,3.1792,3.2591,3.286,3.3618,3.3821,3.3524,3.1873,3.1063,3.0655,0.0,0.0,0.0,0.0,0.0,0.0,0.0,0.0,0.0,0.0,0.0,0.0,0.0,0.0,0.0,0.0,0.0,0.0,0.0,0.0,0.0,0.0,2.2294,2.2762,2.2767,2.277,2.2458,2.1754,2.1717,2.1404,2.0619,2.0618,2.0927,2.1619,2.2505,2.4554,2.7879,3.305,3.6571,3.8522,3.8745,3.8132,3.6718,3.271,0.0,0.0,0.0,0.0,0.0,0.0,0.0,0.0,0.0,0.0,0.0,0.0,0.0,0.0,0.0,0.0,0.0,0.0,0.0,0.0,0.0,0.0,0.0,0.0,0.0,0.0,0.0,0.0,0.0,0.0,0.0,0.0,0.0,0.0,0.0,0.0,0.0,0.0,0.0,0.0,0.0,0.0,0.0,2.8685,2.9577,0.0,0.0,0.0,0.0,0.0,0.0,0.0,0.0,0.0,0.0,0.0,0.0,0.0,0.0,3.2904,3.3872,3.5037,3.6361,3.7961,3.8653,3.8534,3.9337,3.956,3.9255,3.8133,0.0,3.2402,3.1252,0.0,0.0,0.0,0.0,0.0,0.0,0.0,0.0,0.0,0.0,0.0,0.0,0.0,0.0,0.0,0.0,0.0,0.0,0.0,0.0,0.0,2.4033,2.4735,2.5191,2.5666,2.5439,2.4119,2.357,2.2713,2.1315,2.1271,2.1655,2.2506,2.479,2.8344,3.32,3.8238,4.083,4.1138,4.1604,4.1648,4.1196,3.9377,3.6679,3.3344,3.0881,0.0,0.0,0.0,0.0,0.0,0.0,0.0,0.0,0.0,0.0,0.0,0.0,0.0,0.0,0.0,0.0,0.0,0.0,0.0,0.0,0.0,0.0,0.0,0.0,0.0,0.0,0.0,0.0,0.0,0.0,0.0,0.0,0.0,0.0,0.0,0.0,0.0,0.0,0.0,2.8799,3.0365,3.0806,3.0426,2.9773,0.0,0.0,0.0,0.0,0.0,0.0,0.0,0.0,0.0,3.3944,3.5105,3.5853,3.6037,3.7683,3.8693,3.9076,4.0168,4.0698,4.0743,4.1075,4.1111,4.0861,4.0437,3.9115,3.7074,3.5024,3.3358,3.1955,0.0,0.0,0.0,0.0,0.0,3.2135,0.0,0.0,0.0,0.0,0.0,0.0,0.0,0.0,0.0,0.0,0.0,0.0,2.4859,2.6192,2.7242,2.784,2.8706,2.8485,2.6785,2.5653,2.4373,2.2869,2.2352,2.2732,2.4052,2.8263,3.3041,3.8382,4.2012,4.3606,4.3208,4.385,4.4013,4.386,4.4333,4.1832,3.7063,3.4729,3.2477,0.0,0.0,0.0,0.0,0.0,0.0,0.0,0.0,0.0,0.0,0.0,0.0,0.0,0.0,0.0,0.0,0.0,0.0,0.0,0.0,0.0,0.0,0.0,0.0,0.0,0.0,0.0,0.0,0.0,0.0,0.0,0.0,0.0,0.0,0.0,0.0,0.0,0.0,3.0847,3.2068,3.2393,3.2519,3.2184,0.0,0.0,0.0,0.0,0.0,0.0,3.5656,3.6279,3.697,3.7816,3.9171,3.9635,3.9115,4.0903,4.1631,4.1341,4.1839,4.2136,4.2211,4.2211,4.2105,4.1897,4.1841,4.1637,4.1096,3.816,3.6176,3.4933,3.4006,3.3125,3.2597,3.3902,3.4852,3.5811,0.0,0.0,0.0,0.0,0.0,0.0,0.0,0.0,0.0,0.0,0.0,2.5753,2.6652,2.8964,3.0477,3.0582,3.1408,3.1177,2.9425,2.7777,2.6462,2.5558,2.3915,2.4176,2.6647,3.3182,3.8319,4.1838,4.3715,4.5024,4.5803,4.5831,4.5455,4.4795,4.6452,4.6129,4.4016,3.9922,3.7613,3.6229,0.0,0.0,0.0,0.0,0.0,0.0,0.0,0.0,0.0,0.0,0.0,0.0,0.0,0.0,0.0,0.0,0.0,0.0,0.0,0.0,0.0,0.0,0.0,0.0,0.0,0.0,0.0,0.0,0.0,0.0,0.0,0.0,0.0,0.0,0.0,0.0,0.0,0.0,0.0,3.4902,3.5627,0.0,0.0,0.0,0.0,3.4954,3.6226,3.7471,3.8454,3.8961,3.9633,4.0559,4.1365,4.2149,4.2922,4.3028,4.3434,4.4106,4.4137,4.4057,4.3875,4.3875,4.3741,4.3458,4.3271,4.3167,4.285,4.0077,3.8843,3.8527,3.7397,3.6943,3.6905,3.6985,3.7351,3.7876,0.0,0.0,0.0,0.0,0.0,0.0,0.0,0.0,2.2006,2.2556,2.4843,2.7169,2.9116,3.1649,3.3632,3.4752,3.5162,3.4872,3.3681,3.0477,2.923,3.0608,2.8442,2.97,3.501,3.7996,4.0917,4.3857,4.5545,4.6524,4.6835,4.7392,4.7514,4.7281,4.7891,4.7828,4.7024,4.3909,4.1445,3.9204,3.43,3.0655,0.0,0.0,0.0,0.0,0.0,0.0,0.0,0.0,0.0,0.0,0.0,0.0,0.0,0.0,0.0,0.0,0.0,0.0,0.0,0.0,0.0,0.0,0.0,0.0,0.0,0.0,0.0,0.0,0.0,0.0,0.0,0.0,0.0,0.0,0.0,0.0,0.0,3.6888,3.8104,0.0,0.0,3.7755,3.8616,3.99,4.0408,4.1515,4.3491,4.363,4.3786,4.4127,4.4364,4.4335,4.4117,4.4059,4.4182,4.4416,4.4374,4.4309,4.4266,4.4214,4.4406,4.4719,4.4034,4.3976,4.4236,4.2502,4.127,4.0401,3.9903,3.9286,3.8722,3.9145,3.9455,3.9772,0.0,0.0,0.0,0.0,0.0,0.0,0.0,0.0,2.2648,2.3773,2.6655,2.9572,3.2129,3.5029,3.7095,3.7928,3.8031,3.7548,3.6393,3.2875,3.159,3.3282,3.2233,3.4293,3.9934,4.1163,4.3014,4.5603,4.6746,4.7451,4.7711,4.8305,4.8588,4.8599,4.888,4.9007,4.894,4.7228,4.4882,4.1985,3.8261,3.5053,3.2153,0.0,0.0,0.0,0.0,0.0,0.0,0.0,0.0,0.0,0.0,0.0,0.0,0.0,0.0,0.0,0.0,0.0,0.0,0.0,0.0,0.0,0.0,0.0,0.0,0.0,0.0,0.0,0.0,0.0,0.0,0.0,0.0,0.0,0.0,0.0,3.8472,3.9127,4.0692,4.1455,4.088,4.1296,4.2274,4.3892,4.4173,4.5026,4.6689,4.6626,4.6512,4.6525,4.6474,4.6044,4.5166,4.5114,4.4954,4.4599,4.4537,4.4454,4.4354,4.4332,4.4595,4.4966,4.4285,4.4257,4.4597,4.3818,4.2921,4.2011,4.1714,4.1111,4.0414,4.0863,4.0986,4.1021,0.0,0.0,0.0,0.0,0.0,0.0,0.0,2.1986,2.3687,2.5362,2.9325,3.2999,3.5546,3.8949,4.0671,3.9809,3.9712,3.8976,3.7279,3.479,3.3402,3.3466,3.5142,3.7616,4.0881,4.2599,4.4673,4.7213,4.7278,4.7759,4.8542,4.857,4.8604,4.8674,4.9458,4.9852,4.9887,4.9915,4.8047,4.4818,4.2224,4.0142,3.8021,0.0,0.0,0.0,0.0,0.0,0.0,0.0,0.0,0.0,0.0,0.0,0.0,0.0,0.0,0.0,0.0,0.0,0.0,0.0,0.0,0.0,0.0,0.0,0.0,0.0,0.0,0.0,0.0,0.0,0.0,0.0,0.0,0.0,3.5647,3.7755,3.9929,4.1765,4.335,4.4322,4.4312,4.5729,4.6661,4.6694,4.7406,4.7804,4.7785,4.7738,4.7641,4.7567,4.7597,4.7216,4.6345,4.6301,4.5817,4.4884,4.4769,4.4589,4.4393,4.4429,4.4423,4.4303,4.4137,4.4061,4.4061,4.3966,4.3779,4.3491,4.2871,4.2394,4.2121,4.2041,4.1848,4.1637,0.0,0.0,0.0,0.0,0.0,0.0,0.0,2.192,2.3633,2.5379,2.9344,3.3202,3.6411,3.9303,4.091,4.0648,4.0119,3.9315,3.8194,3.5096,3.4445,3.6901,4.0383,4.2995,4.455,4.4351,4.5276,4.7284,4.7895,4.8612,4.9547,5.0112,5.0073,4.9467,4.975,4.9864,4.9819,4.9868,4.9399,4.8379,4.5794,4.3023,4.0094,0.0,0.0,0.0,0.0,0.0,0.0,0.0,0.0,0.0,0.0,0.0,0.0,0.0,0.0,0.0,0.0,0.0,0.0,0.0,0.0,0.0,0.0,0.0,0.0,0.0,0.0,0.0,0.0,0.0,0.0,0.0,0.0,3.8526,3.9111,4.1362,4.361,4.5375,4.6385,4.6949,4.6949,4.7366,4.7857,4.8384,4.8586,4.8928,4.9566,4.9513,4.9204,4.8609,4.8546,4.8103,4.7248,4.6455,4.625,4.6536,4.5667,4.5544,4.6059,4.6021,4.6357,4.694,4.6203,4.5874,4.5829,4.5045,4.4569,4.4278,4.3424,4.2844,4.245,4.2267,4.1952,4.1637,0.0,0.0,0.0,0.0,0.0,0.0,0.0,2.1909,2.3892,2.6336,3.0427,3.4252,3.7306,3.9977,4.1123,4.0034,3.9547,3.8585,3.6984,3.5627,3.6404,3.9822,0.0,4.4938,4.6499,4.5995,4.6574,4.8356,4.8441,4.934,5.0891,5.1011,5.1011,5.0885,5.05,5.0354,5.0366,5.0023,5.013,5.0379,4.8887,4.6713,4.4106,4.1982,3.9956,3.802,3.6426,3.5508,3.494,3.4431,0.0,0.0,0.0,0.0,0.0,0.0,0.0,0.0,0.0,0.0,0.0,0.0,0.0,0.0,0.0,0.0,0.0,0.0,0.0,0.0,0.0,0.0,0.0,0.0,3.9029,4.1514,4.3061,4.4257,4.5693,4.7743,4.8303,4.8677,4.8977,4.9022,4.9166,4.9541,4.9534,4.9716,5.0163,5.0151,4.9954,4.9491,4.9391,4.8966,4.8184,4.7368,4.7003,4.7102,4.6345,4.6223,4.664,4.6257,4.6602,0.0,4.6472,4.6262,4.6579,4.5857,4.5494,0.0,0.0,0.0,0.0,0.0,4.1888,4.1637,0.0,0.0,0.0,0.0,0.0,0.0,0.0,2.1987,2.4236,2.7634,3.1711,3.5277,3.7852,4.0342,4.0906,3.8564,3.835,3.7413,3.5158,3.6699,3.9122,4.234,4.3503,4.5123,4.7389,4.7424,4.8198,4.9786,4.9104,4.9983,5.2271,5.1495,5.1552,5.2191,5.1192,5.0824,5.0954,5.014,5.0311,5.1208,5.1198,5.0237,4.8534,4.6229,4.5223,4.4731,4.2384,4.0227,3.8418,3.8281,0.0,0.0,0.0,0.0,0.0,0.0,0.0,0.0,0.0,0.0,0.0,0.0,0.0,0.0,0.0,0.0,0.0,0.0,0.0,0.0,0.0,0.0,0.0,0.0,4.2026,4.4457,4.6807,4.6539,4.6994,4.9279,4.949,4.9683,5.0358,5.0418,5.0373,5.0236,5.0218,5.0157,5.0018,0.0,0.0,0.0,0.0,4.9708,4.9128,4.859,4.7956,4.7301,4.7005,4.685,4.6898,4.6153,4.6313,4.7117,4.6174,4.6158,4.6836,4.6579,4.6333,4.5907,4.3889,4.3332,4.3564,4.2431,4.1883,0.0,0.0,0.0,0.0,0.0,0.0,0.0,0.0,2.233,2.4248,2.7641,3.0663,3.3485,3.6117,3.8045,3.8671,3.7549,3.7461,3.7515,3.7672,0.0,4.2194,4.4212,4.6441,4.7824,4.8323,4.8299,4.8787,4.9792,5.0335,5.1198,5.2382,5.2154,5.1798,5.1273,4.9734,4.9411,4.9924,4.9198,4.9734,5.1136,5.1188,5.0215,4.8647,4.8177,4.7139,4.5802,4.4661,4.4783,4.5444,4.4773,4.2711,4.0253,3.9407,0.0,0.0,0.0,0.0,0.0,0.0,0.0,0.0,0.0,0.0,0.0,0.0,0.0,0.0,0.0,0.0,0.0,0.0,0.0,0.0,4.2317,4.4664,4.6731,4.7892,4.845,4.9195,5.0302,5.0335,5.0335,5.0548,5.0511,5.0473,5.0457,5.0401,5.0283,5.0163,5.0212,0.0,5.0012,5.0044,4.9974,4.9797,4.8812,4.8572,4.9092,0.0,0.0,4.8755,4.8605,4.8698,4.8888,4.8565,4.8205,4.779,4.7525,4.6476,4.4972,4.4473,4.3798,4.3183,4.3392,4.2931,4.2286,0.0,0.0,0.0,0.0,0.0,0.0,0.0,2.2812,2.457,2.7143,2.979,3.1908,3.3192,3.4868,3.5229,3.3504,3.415,3.5723,0.0,4.0848,4.3199,4.5359,4.7467,4.8813,4.9243,4.9228,4.9643,5.0494,5.0461,5.1114,5.233,5.1844,5.1647,5.165,4.9895,4.9401,4.9737,4.8953,4.9335,5.0487,5.0555,5.0318,5.0002,5.0012,4.9473,4.87,4.8303,4.7852,4.7436,4.7031,4.5208,4.2912,4.2026,3.9412,3.6133,0.0,0.0,0.0,0.0,0.0,0.0,0.0,0.0,0.0,0.0,0.0,0.0,0.0,0.0,3.7313,3.8159,0.0,4.3773,4.4998,4.664,4.8048,4.8879,4.9314,4.9852,5.059,5.0649,5.0599,5.0586,5.0573,5.0521,5.0468,5.0401,5.0298,5.0101,5.0151,5.0139,5.0038,5.0005,4.9986,4.9986,4.9247,4.907,4.9476,4.894,4.8923,4.9289,4.8924,4.9024,4.9468,4.8901,4.8682,4.8737,4.851,4.753,4.6176,4.6126,4.4802,4.303,4.3684,4.3522,4.3156,0.0,0.0,0.0,0.0,0.0,0.0,0.0,2.3326,2.4846,2.6444,2.8639,2.9977,2.9835,3.1181,3.1428,2.9638,3.1383,3.4291,0.0,4.1159,4.3782,4.6241,4.8113,4.9421,5.0129,5.0159,5.0503,5.1193,5.0597,5.0994,5.2264,5.154,5.1582,5.2225,5.0336,4.9715,5.0061,4.9037,4.9174,5.0142,5.0161,5.0503,5.1046,5.1035,5.1078,5.107,5.1051,4.9523,4.7524,4.7687,4.6142,4.4089,4.3393,4.199,4.0156,3.7691,3.6627,0.0,0.0,0.0,0.0,0.0,0.0,0.0,0.0,0.0,3.5002,3.6689,3.8428,4.0009,4.1186,4.3638,4.5893,4.7216,4.8269,4.9134,4.9823,4.9904,5.0083,5.0661,5.0716,5.0688,5.0659,5.0639,5.0563,5.044,5.0352,5.03,5.0323,5.0209,5.0184,5.0355,5.0113,4.9959,4.9986,4.9676,4.9499,4.9476,4.9438,4.9407,4.9391,4.8784,4.8927,4.9581,4.8746,4.8768,4.9368,4.9197,4.8555,4.7693,4.7625,4.5936,4.3605,4.4319,4.4394,4.4206,0.0,0.0,0.0,0.0,0.0,0.0,0.0,0.0,2.464,2.5603,2.6684,2.7051,2.6362,2.7083,2.8122,2.9381,3.2518,0.0,3.8317,4.2262,4.5324,4.7157,4.9596,5.0942,5.105,5.1061,5.1071,5.1121,5.1771,5.2178,5.2306,5.2179,5.2218,5.219,4.9805,4.9573,5.0843,4.927,4.9514,5.0981,5.1019,5.0651,5.006,5.0129,5.0199,5.0213,5.0233,4.9069,4.7631,4.8399,4.7425,4.5899,4.5878,4.4677,4.2925,4.1053,0.0,3.6741,3.4913,3.3347,3.2554,3.3942,3.4249,3.529,0.0,0.0,3.9449,4.1138,4.2806,4.3826,4.3296,4.5896,4.8138,4.8259,4.9646,5.0716,5.0751,5.075,5.0799,5.0868,5.0785,5.071,5.076,5.0678,5.0577,5.0567,5.0451,5.0706,5.1399,5.0674,5.0593,5.1243,5.0558,5.0107,4.9986,4.9886,4.9804,4.9764,4.9797,4.979,4.975,4.9651,4.9696,4.9771,4.9513,4.9408,4.9305,4.9273,4.8634,4.7701,4.7693,4.6917,4.5924,4.6645,4.6379,4.5645,0.0,0.0,0.0,0.0,0.0,0.0,0.0,0.0,0.0,2.4794,2.5204,2.5104,2.43,2.4957,2.6159,2.7908,3.1186,0.0,3.7554,4.2157,4.5572,4.7335,4.9858,5.1197,5.1211,5.0714,5.0691,5.1142,5.0988,5.1114,5.1605,5.1545,5.1545,5.1527,4.9989,4.9702,5.0351,4.964,4.9507,4.972,4.9715,4.954,4.9082,4.8136,4.7815,4.7915,4.8391,4.777,0.0,0.0,4.6098,4.5432,4.4949,4.3941,4.2811,4.207,4.0737,0.0,3.8622,3.7173,0.0,0.0,3.7689,3.8532,4.1771,4.2213,4.2309,4.3456,4.4667,4.5569,4.5675,4.7251,4.886,0.0,5.0586,5.103,5.1012,5.0956,5.0724,5.026,5.0575,5.0808,5.0782,5.0715,5.0659,5.0592,5.053,5.061,5.0818,5.0541,5.0468,5.0691,5.0329,5.0082,4.9986,4.9872,4.9814,4.9743,4.9831,4.9824,4.9743,4.9876,4.9883,4.98,4.9736,4.9597,4.936,4.936,4.9078,4.8679,4.9106,4.8678,4.7782,4.7425,4.7049,4.67,0.0,0.0,0.0,0.0,0.0,0.0,0.0,0.0,0.0,0.0,2.3666,2.3368,2.2466,2.3176,2.4387,2.6129,0.0,0.0,0.0,4.093,4.4653,4.6607,4.9134,5.0703,5.1172,5.0367,5.0195,5.0853,5.0138,5.0106,5.0762,5.0935,5.1051,5.1075,5.0196,4.9995,5.0234,5.0001,4.9559,4.9049,4.9015,4.8606,4.7812,4.638,4.5427,4.4907,4.5768,4.539,0.0,0.0,4.3055,4.3134,4.2493,4.2186,4.2109,4.2343,4.1636,4.0769,4.0763,0.0,0.0,4.0239,4.0851,4.1693,4.3541,4.4134,4.4532,4.5367,4.5808,4.6403,4.7467,4.8169,4.9057,5.05,5.093,5.1016,5.0738,5.0638,5.0244,4.9436,4.985,5.0244,5.0456,5.0635,5.0701,5.0616,5.0609,5.062,5.0679,5.0505,5.0553,5.0911,5.0665,5.0488,5.0424,5.0306,5.0103,4.9821,4.9893,4.9879,4.98,4.9899,4.9931,4.98,4.9778,4.9776,4.9776,4.976,4.984,5.0006,5.0277,4.9952,4.9174,4.8078,4.7684,4.7638,0.0,0.0,0.0,0.0,0.0,0.0,0.0,0.0,0.0,0.0,0.0,0.0,0.0,2.1347,2.2561,0.0,0.0,0.0,0.0,3.8309,4.2261,4.4857,4.7337,4.9451,5.1172,5.0367,4.9926,4.9926,4.9849,4.9792,4.9869,5.0684,5.1114,5.1079,5.0258,5.0386,5.1125,5.0273,4.9887,4.9851,4.9878,4.8385,4.6072,4.5243,4.3394,4.1385,4.2259,0.0,0.0,0.0,3.8102,3.8808,3.8778,3.9837,0.0,4.2146,4.1211,0.0,0.0,0.0,4.0168,4.1878,4.3543,4.4776,4.4838,4.5457,4.6264,4.7131,4.6639,4.6543,4.825,4.8561,4.886,4.9682,5.0539,5.0777,4.9854,4.9733,4.9397,4.8546,4.8396,4.8721,0.0,5.034,5.0756,5.0701,5.0594,5.0845,5.1634,5.0856,5.1105,5.2658,5.1958,5.1501,5.1446,5.1383,5.0926,5.0108,5.0076,5.0044,4.9973,4.992,4.9883,4.98,4.9728,5.0101,5.0763,5.0693,5.1053,5.1548,5.07,5.0253,4.993,4.8909,4.8632,4.8585,0.0,0.0,0.0,0.0,0.0,0.0,0.0,0.0,0.0,0.0,0.0,0.0,0.0,0.0,0.0,0.0,0.0,0.0,0.0,3.6804,4.0258,4.2281,4.5866,4.8109,4.871,4.8402,4.8506,4.9104,4.8476,4.8133,4.8152,4.8986,4.9081,4.8522,4.8869,4.9506,5.0207,4.939,4.8743,4.8202,4.7609,4.6184,4.4364,4.3504,4.1575,3.9171,0.0,0.0,0.0,3.5945,3.5753,3.6106,3.6709,3.6871,3.7147,3.8594,4.0233,4.1556,0.0,0.0,4.1926,4.368,4.4523,4.5361,4.7101,4.721,4.7193,4.8022,4.7028,4.6349,4.7512,4.7279,4.7512,4.9559,5.0093,5.0128,4.9808,5.0174,4.9742,4.7773,4.8535,0.0,0.0,0.0,0.0,5.0663,5.0664,5.0714,5.0975,5.1146,5.1239,5.122,5.1411,5.1242,5.0651,5.0583,5.0393,5.0082,5.0038,5.0361,5.0996,5.0886,5.1116,5.1582,5.1561,5.1665,5.1805,5.1722,5.1817,5.1939,5.1516,5.0904,5.0253,4.9773,4.9274,4.8794,0.0,0.0,0.0,0.0,0.0,0.0,0.0,0.0,0.0,0.0,0.0,0.0,0.0,0.0,0.0,0.0,0.0,0.0,0.0,0.0,3.6459,3.9143,4.1848,4.3745,4.4681,4.4071,4.4333,4.5472,4.4865,4.4916,4.5551,4.6668,4.6882,4.6394,4.7298,4.8003,4.8433,4.7916,4.7193,4.6387,4.5193,4.3692,4.2037,4.0532,3.8406,0.0,0.0,0.0,0.0,3.2468,3.2825,3.3412,3.3977,3.4841,3.5859,3.6953,3.949,4.1986,4.2336,4.2641,4.3293,4.5046,4.5655,4.618,4.7562,4.74,4.7079,4.7607,4.6333,4.5455,4.6668,4.6157,4.6427,4.8991,4.9371,4.9446,4.9747,5.0195,4.9648,4.7407,4.8117,0.0,0.0,0.0,0.0,5.0177,5.0798,5.098,5.0596,5.1321,5.1458,5.0832,5.1291,5.1254,5.072,5.0614,5.0425,5.012,5.0082,5.0552,5.1453,5.1363,5.1747,5.2458,5.243,5.2534,5.2674,5.2597,5.2706,5.283,5.209,5.1437,5.0837,5.0368,4.9843,4.9308,0.0,0.0,0.0,0.0,0.0,0.0,0.0,0.0,0.0,0.0,0.0,0.0,0.0,0.0,0.0,0.0,0.0,0.0,0.0,0.0,0.0,3.5445,3.5751,3.6983,3.9409,3.7928,3.7925,3.951,3.9526,4.0337,4.1945,4.3633,4.437,4.439,4.5301,4.5716,4.5755,4.566,4.5123,4.4248,4.2558,4.0872,3.9087,3.6605,0.0,0.0,0.0,0.0,0.0,0.0,0.0,0.0,0.0,3.4061,3.7421,3.75,3.9295,4.1478,4.2297,4.3188,4.4229,4.5937,4.6899,4.7233,4.65,4.6187,4.6035,4.6028,4.4591,4.3865,0.0,0.0,4.5491,4.8055,4.8493,4.8806,4.9673,4.9794,4.915,0.0,0.0,0.0,0.0,0.0,0.0,4.9408,0.0,5.1465,5.0631,5.136,5.1727,5.155,5.1582,5.1576,5.1532,5.1477,5.1033,5.02,5.0194,5.0659,5.1485,5.1478,5.1856,5.2516,5.2467,5.284,5.3465,5.3335,5.3712,5.423,5.2523,5.1853,5.1761,5.0724,5.0385,5.0222,0.0,0.0,0.0,0.0,0.0,0.0,0.0,0.0,0.0,0.0,0.0,0.0,0.0,0.0,0.0,0.0,0.0,0.0,0.0,0.0,0.0,0.0,0.0,0.0,0.0,0.0,0.0,0.0,3.694,3.6807,3.658,3.8272,3.8706,3.8156,3.9614,4.066,4.1218,4.0587,3.9857,3.8962,0.0,3.6476,3.4878,0.0,0.0,0.0,0.0,0.0,0.0,0.0,0.0,0.0,0.0,3.6794,3.9374,4.0039,4.199,4.4056,4.429,4.4984,4.5909,4.6999,4.6906,4.6807,4.7878,4.6586,4.5136,4.5118,4.3224,4.1687,0.0,0.0,0.0,4.6232,4.7717,0.0,4.9673,5.0294,0.0,0.0,0.0,4.8833,4.8388,4.9452,0.0,0.0,5.0755,5.115,5.1508,5.1698,5.1491,5.0801,5.1369,5.1306,5.0561,5.0543,5.0447,5.0259,5.0218,5.0975,5.2456,5.2355,5.3082,5.441,5.4305,5.4345,5.4504,5.4277,5.4366,5.456,5.3228,5.2782,5.2798,5.174,5.1352,5.1332,0.0,0.0,0.0,0.0,0.0,0.0,0.0,0.0,0.0,0.0,0.0,0.0,0.0,0.0,0.0,0.0,0.0,0.0,0.0,0.0,0.0,0.0,0.0,0.0,0.0,0.0,0.0,0.0,0.0,0.0,0.0,3.3703,3.4264,3.4229,3.5525,3.6376,3.6818,3.6359,0.0,0.0,0.0,0.0,0.0,0.0,0.0,0.0,0.0,0.0,0.0,0.0,0.0,3.4993,3.6637,3.8396,4.0155,4.1367,0.0,4.4993,4.4993,4.5648,4.6416,4.6919,4.632,4.5792,4.6393,4.4761,4.3008,4.2635,4.1095,0.0,0.0,0.0,0.0,0.0,0.0,0.0,5.0099,5.0124,4.9713,0.0,4.9057,0.0,4.8871,5.0023,5.1085,0.0,5.178,5.1794,5.1859,5.1808,5.1409,5.0462,5.0866,5.0791,5.0194,5.0163,5.0163,5.0194,5.0194,5.1077,5.2724,5.2673,5.3528,5.5057,0.0,5.4883,5.4806,5.4665,5.4603,5.456,5.3577,5.3231,5.3257,5.2636,5.239,5.2419,0.0,0.0,0.0,0.0,0.0,0.0,0.0,0.0,0.0,0.0,0.0,0.0,0.0,0.0,0.0,0.0,0.0,0.0,0.0,0.0,0.0,0.0,0.0,0.0,0.0,0.0,0.0,0.0,0.0,0.0,0.0,0.0,0.0,0.0,0.0,0.0,0.0,0.0,0.0,0.0,0.0,0.0,0.0,0.0,0.0,0.0,0.0,0.0,0.0,0.0,3.4326,3.5655,3.828,3.9686,4.0741,4.2421,4.398,4.5187,4.5187,4.5725,4.6297,4.6289,4.5572,4.4656,4.3812,4.2151,4.057,3.9692,0.0,3.8064,3.8058,0.0,4.1568,4.4052,0.0,4.7137,5.0448,4.9682,4.9013,4.9751,4.9176,4.8984,4.9709,5.0589,5.1726,5.3102,5.3318,5.299,5.2059,5.1896,5.1382,5.0456,5.0344,5.0248,5.0194,5.012,5.0089,5.0095,5.0151,5.1027,5.2627,5.266,5.3521,5.5,0.0,0.0,5.4697,5.4689,5.4649,5.4471,5.3819,5.3579,5.3571,5.3491,5.3411,5.3366,0.0,0.0,0.0,0.0,0.0,0.0,0.0,0.0,0.0,0.0,2.4112,2.295,0.0,0.0,0.0,0.0,0.0,0.0,0.0,0.0,0.0,0.0,0.0,0.0,0.0,0.0,0.0,0.0,0.0,0.0,0.0,0.0,0.0,0.0,0.0,0.0,0.0,0.0,0.0,0.0,0.0,0.0,0.0,0.0,0.0,0.0,0.0,0.0,0.0,0.0,3.6007,3.8354,4.0936,4.2344,4.3398,4.5116,4.5853,4.608,4.608,4.6186,4.6289,4.6296,4.5605,4.4671,4.3784,4.1684,0.0,0.0,0.0,3.6264,3.6267,3.8255,0.0,4.2364,0.0,0.0,0.0,0.0,4.9797,0.0,0.0,0.0,0.0,0.0,0.0,0.0,0.0,5.389,5.2995,5.2254,5.1434,5.0528,5.0294,5.0206,5.0194,5.012,5.0114,5.0175,5.0126,5.1002,5.2685,5.2581,5.3432,5.4992,0.0,0.0,5.4767,5.4713,5.4713,5.4744,5.4554,5.4454,5.4454,5.4438,5.4333,5.4183,0.0,0.0,0.0,0.0,0.0,0.0,0.0,2.6647,2.6528,2.6951,2.5903,2.4466,2.2717,2.2526,0.0,0.0,0.0,0.0,0.0,0.0,0.0,0.0,0.0,0.0,0.0,0.0,0.0,0.0,0.0,0.0,0.0,0.0,0.0,0.0,0.0,0.0,0.0,0.0,0.0,0.0,0.0,0.0,0.0,0.0,0.0,0.0,0.0,0.0,0.0,0.0,3.4451,3.7187,4.0625,4.2617,4.3945,4.5231,4.5927,4.6306,4.6306,4.6254,4.6121,4.5699,4.454,4.3221,4.1905,0.0,0.0,0.0,0.0,3.5179,3.5148,0.0,0.0,0.0,0.0,0.0,0.0,0.0,0.0,0.0,0.0,0.0,0.0,0.0,0.0,0.0,0.0,0.0,5.3274,5.1916,5.0964,5.0457,5.0271,5.0175,5.0139,5.007,5.005,5.0089,5.0507,5.1382,5.2594,5.2983,5.3801,5.4934,5.489,0.0,5.4791,5.4806,5.4799,5.4791,5.4806,5.4806,5.4799,5.472,5.4633,5.4543,0.0,0.0,0.0,0.0,0.0,0.0,0.0,2.7531,2.7565,2.8342,2.7766,2.6407,2.4142,2.3761,2.3573,0.0,0.0,0.0,0.0,0.0,0.0,0.0,0.0,0.0,0.0,0.0,0.0,0.0,0.0,0.0,0.0,0.0,0.0,0.0,0.0,0.0,0.0,0.0,0.0,0.0,0.0,0.0,0.0,0.0,0.0,0.0,0.0,0.0,0.0,0.0,3.2226,3.4569,3.8474,4.117,4.3084,4.4134,4.5178,4.6024,4.6024,4.6124,4.595,4.49,4.3472,4.1807,3.994,3.75,0.0,0.0,3.4291,3.4128,3.4459,0.0,0.0,0.0,0.0,0.0,0.0,0.0,0.0,0.0,0.0,0.0,0.0,0.0,0.0,0.0,0.0,0.0,5.3264,5.1835,5.0873,5.0407,5.0474,5.0384,5.0107,5.0057,5.0031,5.0031,5.074,5.1563,5.2551,5.3221,5.4045,5.492,5.4898,0.0,0.0,5.4845,5.4837,5.4799,5.4867,5.489,5.4875,5.4775,5.4705,5.4641,0.0,0.0,0.0,0.0,0.0,0.0,0.0,2.7611,2.8383,2.9196,2.8601,2.7716,2.6678,2.5894,2.5133,0.0,0.0,0.0,0.0,0.0,0.0,0.0,0.0,0.0,0.0,0.0,0.0,0.0,0.0,0.0,0.0,0.0,0.0,0.0,0.0,0.0,0.0,0.0,0.0,0.0,0.0,0.0,0.0,0.0,0.0,0.0,0.0,0.0,0.0,0.0,0.0,3.1717,3.4449,3.7529,4.0491,4.2134,0.0,0.0,4.5113,4.5642,4.582,4.4193,4.3065,4.1655,3.9177,0.0,0.0,3.4544,3.3295,3.2705,3.4203,3.5271,0.0,0.0,0.0,0.0,0.0,0.0,0.0,0.0,0.0,0.0,0.0,0.0,0.0,0.0,0.0,0.0,0.0,5.2932,5.2105,5.0445,5.1167,5.1109,5.0188,5.0175,5.0175,5.0175,5.0184,5.1059,5.2574,5.2596,5.3438,5.4913,0.0,0.0,0.0,5.4728,5.4744,5.4791,5.4799,5.4806,5.4814,5.4875,5.4722,5.453,0.0,0.0,0.0,0.0,0.0,0.0,2.812,2.7417,2.768,3.0563,2.9351,2.8477,2.9176,2.8019,2.6435,0.0,0.0,0.0,0.0,0.0,0.0,0.0,0.0,0.0,0.0,0.0,0.0,0.0,0.0,0.0,0.0,0.0,0.0,0.0,0.0,0.0,0.0,0.0,0.0,0.0,0.0,0.0,0.0,0.0,0.0,0.0,0.0,0.0,0.0,0.0,0.0,0.0,3.1948,3.44,0.0,0.0,4.208,4.3658,4.4671,4.4808,4.447,4.3806,4.2181,4.032,3.8793,0.0,0.0,3.3761,3.3254,3.2975,3.3615,3.4857,3.6446,0.0,0.0,0.0,0.0,0.0,0.0,0.0,0.0,0.0,0.0,0.0,0.0,0.0,0.0,0.0,5.3075,5.2104,5.1238,5.0468,5.0774,5.07,5.0194,5.0194,5.0194,5.0194,5.1103,5.1907,5.2619,5.3485,5.4231,5.4837,0.0,0.0,0.0,5.4713,5.4728,5.4791,5.4744,5.4728,5.4728,5.4667,5.4595,5.4505,0.0,0.0,0.0,0.0,0.0,2.6207,2.8012,2.7429,2.7732,3.0498,2.9762,2.9326,3.0302,2.8667,2.6729,2.4959,0.0,0.0,0.0,0.0,0.0,0.0,0.0,0.0,0.0,0.0,0.0,0.0,0.0,0.0,0.0,0.0,0.0,0.0,0.0,0.0,0.0,0.0,0.0,0.0,0.0,0.0,0.0,0.0,0.0,0.0,0.0,0.0,0.0,0.0,0.0,0.0,0.0,0.0,0.0,0.0,4.0319,4.2279,4.3453,4.3701,4.3553,4.327,4.1425,3.9459,0.0,0.0,3.3283,3.3283,3.3079,3.2953,3.3173,3.4383,3.6015,0.0,0.0,0.0,0.0,0.0,0.0,0.0,0.0,0.0,0.0,0.0,0.0,0.0,0.0,0.0,0.0,5.1479,5.0542,5.0451,5.09,5.0876,5.0256,5.0218,5.0218,5.0256,5.1319,5.2073,5.2619,5.3631,5.436,5.4791,0.0,0.0,0.0,5.4713,5.4728,5.4783,5.4713,5.4689,5.4681,5.4571,5.4538,5.4497,0.0,0.0,0.0,0.0,0.0,0.0,2.5628,2.7827,2.9149,2.8265,2.969,3.046,2.9615,2.7262,2.5722,2.5692,0.0,0.0,0.0,0.0,0.0,0.0,0.0,0.0,0.0,0.0,0.0,0.0,0.0,0.0,0.0,0.0,0.0,0.0,0.0,0.0,0.0,0.0,0.0,0.0,0.0,0.0,0.0,0.0,0.0,0.0,0.0,0.0,0.0,0.0,0.0,0.0,0.0,0.0,0.0,0.0,3.8436,4.1133,4.1148,4.2329,4.3383,4.2526,4.0995,3.9459,0.0,0.0,3.3182,3.3182,3.2527,3.2192,3.3026,3.3868,3.5267,3.788,0.0,0.0,0.0,0.0,0.0,0.0,0.0,0.0,0.0,0.0,0.0,0.0,0.0,0.0,0.0,5.1506,5.0505,5.0327,5.2049,5.2093,5.0321,5.0283,5.0283,5.0315,5.0262,5.1066,5.2581,5.2475,5.3277,0.0,0.0,0.0,0.0,5.4713,5.4728,5.4783,5.4713,5.4689,5.4689,5.4689,5.4625,5.4505,0.0,0.0,0.0,0.0,0.0,0.0,0.0,2.4352,2.4705,2.614,2.6335,2.6914,2.8447,2.7363,2.6523,2.659,0.0,0.0,0.0,0.0,0.0,0.0,0.0,0.0,0.0,0.0,0.0,3.0071,0.0,0.0,0.0,0.0,0.0,0.0,0.0,0.0,0.0,0.0,0.0,0.0,0.0,0.0,0.0,0.0,0.0,0.0,0.0,0.0,0.0,0.0,0.0,0.0,0.0,0.0,0.0,3.3092,3.5385,3.7713,3.8296,3.8824,3.915,3.8895,3.7902,3.6944,3.671,0.0,3.3868,3.3254,3.2892,3.2602,3.2283,3.3446,3.53,3.7863,3.8789,0.0,0.0,0.0,0.0,0.0,0.0,0.0,0.0,0.0,0.0,0.0,0.0,0.0,0.0,5.2236,5.1716,5.0423,5.1541,5.1562,5.0321,5.0941,5.0935,5.0321,5.0834,5.1637,5.2619,5.3044,0.0,0.0,0.0,0.0,0.0,5.4486,5.4728,5.4775,5.4641,5.4554,5.4546,5.4518,5.4476,5.4414,0.0,0.0,0.0,0.0,0.0,0.0,0.0,2.2943,2.3143,2.4403,2.4431,2.52,2.7476,2.6353,2.5627,2.6002,0.0,0.0,0.0,0.0,0.0,0.0,0.0,0.0,0.0,0.0,2.8593,3.1834,3.1521,3.195,0.0,0.0,0.0,0.0,0.0,0.0,0.0,0.0,0.0,0.0,0.0,0.0,2.5742,0.0,0.0,0.0,0.0,0.0,0.0,0.0,0.0,0.0,0.0,0.0,0.0,0.0,3.2989,3.4782,0.0,3.6472,3.6761,3.7076,3.6479,0.0,0.0,0.0,3.3652,3.2798,3.259,3.2459,3.1901,3.3282,3.5106,3.7024,3.8309,0.0,0.0,0.0,0.0,0.0,0.0,0.0,0.0,0.0,0.0,0.0,0.0,0.0,0.0,5.2938,5.2538,5.1335,5.2225,5.2252,5.1238,5.1532,5.1379,5.0774,5.0967,5.1586,5.2625,5.2968,0.0,0.0,0.0,0.0,0.0,5.4548,5.4783,5.4775,5.4611,5.4538,5.4497,5.4405,5.4409,5.4409,0.0,0.0,0.0,0.0,0.0,0.0,0.0,0.0,2.3755,2.2926,2.3616,2.4801,2.6387,2.4536,2.3495,2.4236,0.0,0.0,0.0,0.0,0.0,0.0,0.0,0.0,0.0,2.7446,2.9132,3.3319,3.2617,3.3164,3.4764,3.4018,0.0,0.0,0.0,0.0,0.0,0.0,0.0,0.0,2.5703,2.5703,0.0,0.0,0.0,0.0,0.0,0.0,0.0,0.0,0.0,0.0,0.0,0.0,0.0,0.0,0.0,0.0,0.0,3.4964,3.5797,3.6454,3.6149,3.5607,0.0,0.0,0.0,3.2005,3.1862,3.1883,3.188,3.326,3.4732,3.5713,3.7254,0.0,0.0,0.0,0.0,0.0,0.0,0.0,0.0,0.0,0.0,0.0,0.0,0.0,0.0,5.3414,5.2974,5.2887,5.374,5.3746,5.2811,5.215,5.1767,5.1652,5.0818,5.1204,5.2702,5.2489,0.0,0.0,0.0,0.0,0.0,5.4852,5.4875,5.4791,5.472,5.4641,5.4505,5.4414,5.4417,5.4409,0.0,0.0,0.0,0.0,0.0,0.0,0.0,0.0,0.0,0.0,2.1807,2.2511,2.2947,2.3614,2.3855,0.0,0.0,0.0,0.0,0.0,0.0,0.0,0.0,0.0,0.0,2.7406,2.9446,3.2421,3.3555,3.4648,3.5702,3.6168,3.4763,3.1875,3.1405,2.9647,2.6992,0.0,0.0,0.0,2.5702,2.5699,0.0,0.0,0.0,0.0,2.5929,2.6979,0.0,0.0,0.0,0.0,0.0,0.0,0.0,0.0,3.0851,3.1099,3.1513,0.0,3.2871,3.2354,3.3054,3.3713,0.0,0.0,0.0,0.0,0.0,3.2785,3.2772,3.3168,3.4405,3.7223,3.8598,0.0,0.0,0.0,0.0,0.0,0.0,0.0,0.0,0.0,0.0,0.0,0.0,0.0,0.0,5.305,5.3201,5.3766,5.3425,5.3086,5.2811,5.2727,5.265,5.2499,5.1702,5.2088,5.3577,5.2872,0.0,0.0,0.0,0.0,5.4076,5.4736,5.4927,5.4883,5.4799,5.472,5.4641,5.4513,5.443,5.44,0.0,0.0,0.0,0.0,0.0,0.0,0.0,0.0,0.0,0.0,0.0,0.0,0.0,0.0,0.0,0.0,0.0,0.0,0.0,0.0,0.0,0.0,0.0,0.0,0.0,2.7831,2.995,3.3278,3.4256,3.5547,3.7187,3.7266,3.5898,3.3281,3.1679,2.9687,2.7578,2.7185,2.6715,2.6245,2.5855,0.0,0.0,0.0,0.0,0.0,2.5686,2.6811,0.0,2.8681,2.9912,3.1365,0.0,0.0,0.0,0.0,3.0683,3.0688,3.0716,3.1364,3.2002,3.1865,3.2566,3.3149,3.2581,0.0,0.0,0.0,0.0,0.0,3.2421,0.0,0.0,0.0,0.0,0.0,0.0,0.0,0.0,0.0,0.0,0.0,0.0,0.0,0.0,0.0,0.0,0.0,0.0,5.374,5.3716,5.411,5.2947,5.2686,5.3384,5.2738,5.2564,5.2859,5.2041,5.2479,5.3988,5.3466,5.3642,0.0,0.0,0.0,5.4392,5.4774,5.5185,5.5443,5.4973,5.4971,5.5193,5.4697,5.4422,5.4332,0.0,0.0,0.0,0.0,0.0,0.0,0.0,0.0,0.0,0.0,0.0,0.0,0.0,0.0,0.0,0.0,0.0,0.0,0.0,0.0,0.0,0.0,0.0,2.645,2.8089,2.8373,3.0412,3.4285,3.4837,3.6247,3.8397,3.8043,3.6755,3.457,3.1523,2.953,2.8435,2.7693,2.7224,2.695,2.6203,0.0,0.0,0.0,0.0,0.0,0.0,0.0,0.0,2.9027,3.0407,3.1809,3.1863,0.0,0.0,0.0,0.0,0.0,3.102,3.1616,3.2316,3.2881,3.3237,3.3437,3.3175,0.0,0.0,0.0,0.0,0.0,0.0,0.0,0.0,0.0,0.0,0.0,0.0,0.0,0.0,0.0,0.0,0.0,0.0,0.0,0.0,0.0,0.0,0.0,0.0,5.4677,5.4238,5.411,5.2515,5.2329,5.374,5.2393,5.2121,5.2924,5.2192,5.2677,5.4085,5.4027,5.4412,0.0,0.0,0.0,5.5,5.4927,5.542,5.6125,5.517,5.5349,5.5939,5.4877,5.4509,5.4467,0.0,0.0,0.0,0.0,0.0,0.0,0.0,0.0,0.0,0.0,0.0,0.0,0.0,0.0,0.0,0.0,0.0,0.0,0.0,0.0,0.0,0.0,2.57,2.6174,2.7182,2.8647,3.0413,3.2485,3.546,3.7104,3.7535,3.9565,3.8432,3.4645,3.3391,3.1556,2.9371,2.9248,2.8346,2.698,2.6861,0.0,0.0,0.0,0.0,0.0,0.0,0.0,0.0,2.8104,2.9524,3.0896,3.0912,0.0,0.0,0.0,0.0,0.0,3.2438,3.2905,3.2871,3.2314,3.326,3.4119,0.0,0.0,0.0,0.0,0.0,0.0,0.0,0.0,0.0,0.0,0.0,0.0,0.0,0.0,0.0,0.0,0.0,0.0,0.0,0.0,0.0,0.0,0.0,0.0,0.0,0.0,5.419,5.4104,5.2467,5.1765,5.2085,5.1891,5.2187,5.2981,5.2788,5.3159,5.4014,5.4014,5.4354,0.0,0.0,5.5082,5.5,5.4985,5.5473,5.6125,5.517,5.5689,5.674,5.5103,5.489,5.5304,0.0,0.0,0.0,0.0,0.0,0.0,0.0,0.0,0.0,0.0,0.0,0.0,0.0,0.0,0.0,0.0,0.0,0.0,0.0,0.0,0.0,0.0,2.7492,2.7931,2.8356,3.0992,3.3185,3.4902,3.7878,3.9365,3.9326,3.8663,3.7021,3.4636,3.2795,3.135,3.022,2.9745,2.8847,2.7679,0.0,0.0,0.0,0.0,0.0,0.0,0.0,0.0,0.0,0.0,2.9702,3.0761,3.1246,0.0,0.0,0.0,0.0,0.0,3.1586,3.2477,3.3096,3.2719,3.3891,3.502,0.0,0.0,0.0,0.0,0.0,0.0,0.0,0.0,0.0,0.0,0.0,0.0,0.0,0.0,0.0,0.0,0.0,0.0,0.0,0.0,0.0,0.0,0.0,0.0,0.0,0.0,5.4159,5.4053,5.2901,5.2244,5.2306,5.2376,5.2389,5.2346,5.2284,5.2891,5.4053,5.4059,5.4674,5.5755,0.0,5.5791,5.5683,5.5677,5.6103,5.6707,5.5798,5.6382,5.7485,5.5639,5.5159,5.5358,0.0,0.0,0.0,0.0,0.0,0.0,0.0,0.0,0.0,0.0,0.0,0.0,0.0,0.0,0.0,0.0,0.0,0.0,0.0,0.0,2.6286,2.7812,2.9129,3.0078,3.0702,3.3529,3.5837,3.7587,4.0133,4.1385,4.1347,3.8108,3.5919,3.4586,3.2395,3.1182,3.075,3.0086,2.9347,2.8532,0.0,0.0,0.0,0.0,0.0,0.0,0.0,0.0,0.0,0.0,0.0,0.0,0.0,0.0,0.0,3.1321,3.0884,3.0725,3.1299,3.2306,3.3265,3.361,0.0,0.0,0.0,0.0,0.0,0.0,0.0,0.0,0.0,0.0,0.0,0.0,0.0,0.0,0.0,0.0,0.0,0.0,0.0,0.0,0.0,0.0,0.0,0.0,0.0,0.0,0.0,0.0,5.4262,5.376,5.3105,5.2716,5.2549,5.2573,5.2288,5.1771,5.194,5.2515,5.3506,5.3906,5.4707,5.5815,5.6002,5.6081,5.5987,5.6133,5.6617,5.7219,5.649,5.6798,5.7426,5.6125,5.5379,5.5006,0.0,0.0,0.0,0.0,0.0,0.0,0.0,0.0,0.0,0.0,0.0,0.0,0.0,0.0,0.0,0.0,0.0,0.0,0.0,0.0,2.6004,2.6949,2.9364,3.1836,3.4251,3.5358,3.6723,3.8423,4.1046,4.2301,4.2264,3.9573,3.7037,3.4656,3.3642,3.2311,3.0819,3.0741,3.0194,2.9411,2.9365,0.0,0.0,0.0,0.0,0.0,0.0,0.0,0.0,0.0,0.0,0.0,0.0,0.0,3.2033,3.2723,3.178,3.1021,3.3395,3.3578,3.3498,3.5046,3.5491,0.0,0.0,0.0,0.0,0.0,0.0,0.0,0.0,0.0,0.0,0.0,0.0,0.0,0.0,0.0,0.0,0.0,0.0,0.0,0.0,0.0,0.0,0.0,0.0,0.0,0.0,0.0,0.0,5.2957,5.2781,5.2424,5.1785,5.1672,5.1632,5.1716,5.2464,5.2414,5.1726,5.3353,5.4071,5.4033,5.4894,5.5216,5.5144,5.5822,5.6579,5.7286,5.7037,5.6457,5.5856,5.6395,5.5593,5.4166,0.0,0.0,0.0,0.0,0.0,0.0,0.0,0.0,0.0,0.0,0.0,0.0,0.0,0.0,0.0,0.0,0.0,0.0,0.0,0.0,2.8159,2.8486,3.0492,3.2336,3.3862,3.6836,3.9216,4.0919,4.2444,4.2915,4.2332,3.8618,3.6083,3.4607,3.2678,3.1736,3.1586,3.0979,3.0587,3.0248,2.9729,2.898,0.0,0.0,0.0,0.0,0.0,0.0,0.0,0.0,2.8929,2.9597,3.1101,3.1349,3.1081,3.136,3.0969,3.0812,3.2229,3.3628,3.4794,3.5355,0.0,0.0,0.0,0.0,0.0,0.0,0.0,0.0,0.0,0.0,0.0,0.0,0.0,0.0,0.0,0.0,0.0,0.0,0.0,0.0,0.0,0.0,0.0,0.0,0.0,0.0,0.0,0.0,0.0,5.2743,5.3296,5.3417,5.3117,5.3646,5.3683,5.3177,5.2426,5.2442,5.3048,5.3232,5.4052,5.542,5.5781,5.6164,5.6587,5.6754,5.6992,5.7159,5.7019,5.7026,5.7057,5.6254,5.5535,5.4966,0.0,0.0,0.0,0.0,0.0,0.0,0.0,0.0,0.0,0.0,0.0,0.0,0.0,0.0,0.0,0.0,0.0,0.0,0.0,2.6692,2.8235,2.9065,3.0212,3.1661,3.3334,3.7047,3.9661,4.1177,4.2302,4.2422,4.1496,3.7661,3.5753,3.5377,3.2774,3.2064,3.2814,3.1613,3.1141,3.1119,3.0246,2.9537,0.0,0.0,0.0,0.0,0.0,0.0,0.0,0.0,2.9079,2.951,3.0927,3.0933,3.0546,3.1047,3.1237,3.1435,3.2208,3.4154,3.5977,0.0,0.0,0.0,0.0,0.0,0.0,0.0,0.0,0.0,0.0,0.0,0.0,0.0,0.0,0.0,0.0,0.0,0.0,0.0,0.0,0.0,0.0,0.0,0.0,0.0,0.0,0.0,0.0,0.0,0.0,0.0,5.3086,5.3506,5.4027,5.4339,5.4517,5.4486,5.3066,5.2679,5.3175,5.2609,5.3359,5.5164,5.5717,5.6214,5.6702,5.7155,5.7216,5.7029,5.6648,5.6841,5.717,5.5963,5.5328,5.5086,0.0,0.0,0.0,0.0,0.0,0.0,0.0,0.0,0.0,0.0,0.0,0.0,0.0,0.0,0.0,0.0,0.0,0.0,0.0,2.4781,2.549,2.8054,2.8211,2.9771,3.3195,3.5736,3.7537,3.8515,4.0174,4.0576,3.9714,3.7094,0.0,3.7044,3.4451,3.3774,3.4464,3.2734,3.1987,3.1908,3.1032,3.0712,3.0515,0.0,0.0,0.0,0.0,0.0,0.0,0.0,2.9987,2.9633,3.218,3.1787,3.0731,3.2391,3.2904,3.3115,3.3962,3.543,3.6923,0.0,0.0,0.0,0.0,0.0,0.0,0.0,0.0,0.0,0.0,0.0,0.0,0.0,0.0,0.0,0.0,0.0,0.0,0.0,0.0,0.0,0.0,0.0,0.0,0.0,0.0,0.0,0.0,0.0,0.0,0.0,5.1885,5.226,5.4065,5.3136,5.3556,5.5396,5.4524,5.3162,5.144,5.1434,5.1805,5.2532,5.4242,5.4956,5.5064,5.6724,5.7254,5.6906,5.5974,5.5593,5.5584,5.5542,5.4982,5.429,0.0,0.0,0.0,0.0,0.0,0.0,0.0,0.0,0.0,0.0,0.0,0.0,0.0,0.0,0.0,0.0,0.0,0.0,0.0,2.525,2.6469,2.7253,2.7888,2.8669,2.9708,3.1595,3.4816,3.933,3.9873,3.9109,3.7045,3.6274,0.0,3.5351,0.0,0.0,3.3605,3.2474,3.1997,3.1934,3.1057,3.0681,3.0496,0.0,0.0,0.0,0.0,0.0,0.0,0.0,0.0,0.0,3.0923,3.1631,3.2144,3.202,3.2807,3.395,3.4815,3.6762,0.0,0.0,0.0,0.0,0.0,0.0,0.0,0.0,0.0,0.0,0.0,0.0,0.0,0.0,0.0,0.0,0.0,0.0,0.0,0.0,0.0,0.0,0.0,0.0,0.0,0.0,0.0,0.0,0.0,0.0,0.0,0.0,5.2233,5.292,5.4104,5.4409,5.4868,5.5396,5.3862,5.3442,5.4058,5.3479,5.3583,5.4242,5.4737,5.5511,5.6562,5.6932,5.7024,5.6772,5.5287,5.5348,5.6229,5.5603,5.5594,5.5856,0.0,0.0,0.0,0.0,0.0,0.0,0.0,0.0,0.0,0.0,2.5009,2.5515,0.0,0.0,0.0,0.0,0.0,0.0,2.462,2.5686,2.6708,2.7377,2.7927,2.8504,2.9185,3.0854,3.3333,3.6655,3.7012,3.6406,3.4884,0.0,3.5985,3.6101,0.0,3.5627,3.4742,3.388,3.3093,3.2448,3.1889,3.1474,3.1013,0.0,0.0,0.0,0.0,0.0,0.0,0.0,0.0,0.0,3.039,0.0,3.1898,3.2074,3.3283,3.4923,3.6484,0.0,0.0,0.0,0.0,0.0,0.0,0.0,0.0,0.0,0.0,0.0,0.0,0.0,0.0,0.0,0.0,0.0,0.0,0.0,0.0,0.0,0.0,0.0,0.0,0.0,0.0,0.0,0.0,0.0,0.0,0.0,0.0,0.0,5.2042,5.285,5.4066,5.4562,5.5033,5.5396,5.4224,5.4217,5.5105,5.3223,5.2938,5.3995,5.489,5.5796,5.6622,5.6132,5.5899,5.569,5.429,5.4519,5.5557,5.507,5.5229,5.5612,0.0,0.0,2.4424,2.4424,0.0,0.0,0.0,0.0,0.0,0.0,2.4975,2.5444,0.0,0.0,0.0,2.6479,2.5879,2.5821,2.6611,2.5926,2.6246,2.7997,2.8239,2.9002,3.055,3.2146,3.2571,3.178,3.2736,3.3221,0.0,0.0,3.6768,3.8284,0.0,3.7871,3.6904,3.5985,3.4615,3.3063,3.2985,3.2467,3.1668,3.0796,0.0,0.0,0.0,0.0,0.0,0.0,0.0,0.0,3.0379,3.0479,3.0845,3.2323,3.4026,3.5967,3.8427,0.0,0.0,0.0,0.0,0.0,0.0,0.0,0.0,0.0,0.0,0.0,0.0,0.0,0.0,0.0,0.0,0.0,0.0,0.0,0.0,0.0,0.0,0.0,0.0,0.0,0.0,0.0,0.0,0.0,0.0,0.0,0.0,0.0,5.1573,5.2374,5.3989,5.4104,5.4549,0.0,5.5109,5.4997,5.4884,5.1789,5.1171,5.2741,5.4915,5.5852,5.571,5.4856,5.4378,5.4141,5.3417,5.3605,5.4324,5.4433,5.4535,5.4581,0.0,0.0,2.5243,2.5243,0.0,0.0,0.0,0.0,0.0,0.0,0.0,0.0,0.0,0.0,0.0,2.3929,2.4294,2.4655,2.4852,2.467,2.5373,2.7111,2.8423,2.9313,2.9667,3.0066,3.0188,3.0036,3.162,0.0,0.0,0.0,0.0,3.7407,0.0,3.7473,3.5967,3.4415,3.3156,3.2111,3.1448,3.1024,3.0697,2.9849,2.9421,0.0,0.0,0.0,0.0,0.0,0.0,0.0,3.0336,3.1261,3.2282,3.1968,3.3973,3.6577,0.0,3.9904,0.0,0.0,0.0,0.0,0.0,0.0,0.0,0.0,0.0,0.0,0.0,0.0,0.0,0.0,0.0,0.0,0.0,0.0,0.0,0.0,0.0,0.0,0.0,0.0,0.0,0.0,0.0,0.0,0.0,0.0,0.0,5.1558,5.2175,5.3015,5.4085,5.4772,5.5199,0.0,5.3919,5.3549,5.4168,5.3995,5.4329,5.5142,5.5522,5.5671,5.5607,5.5362,5.485,5.4253,5.474,5.5351,5.592,5.593,5.6301,5.6652,0.0,0.0,0.0,0.0,0.0,0.0,0.0,0.0,0.0,0.0,0.0,0.0,0.0,2.5042,0.0,0.0,2.4655,2.4901,2.4906,2.5691,2.6778,2.8085,2.9748,3.0056,2.8852,2.9647,2.9886,2.9452,0.0,0.0,0.0,0.0,0.0,3.7081,0.0,3.6736,3.5063,3.4148,3.3054,3.1891,3.1803,3.1533,3.1023,3.0141,2.9366,0.0,0.0,0.0,0.0,0.0,0.0,0.0,0.0,0.0,3.1738,3.2125,3.3683,3.5752,0.0,0.0,0.0,0.0,0.0,0.0,0.0,0.0,0.0,0.0,0.0,0.0,0.0,0.0,0.0,0.0,0.0,0.0,0.0,0.0,0.0,0.0,0.0,0.0,0.0,0.0,0.0,0.0,0.0,0.0,0.0,5.0236,5.0465,5.0929,5.1755,5.2583,5.3366,5.4301,5.4963,5.5275,5.3976,5.3529,5.3847,5.3763,5.4292,5.526,5.517,5.5261,5.5441,5.5478,5.5191,5.4726,5.5183,5.579,5.6394,5.6394,5.6431,5.6329,0.0,0.0,0.0,0.0,0.0,0.0,0.0,0.0,0.0,0.0,0.0,0.0,0.0,2.5405,2.5522,0.0,0.0,0.0,2.5617,2.7215,2.8571,2.9449,3.0969,3.085,2.8893,3.0129,3.0481,0.0,0.0,0.0,0.0,0.0,0.0,3.6975,0.0,3.5947,3.4577,3.4153,3.3147,3.1944,3.2467,3.2135,3.1298,3.0561,0.0,0.0,0.0,2.7913,2.804,2.9017,0.0,0.0,0.0,0.0,3.0737,3.2025,3.3027,3.4338,0.0,0.0,0.0,0.0,0.0,0.0,0.0,0.0,0.0,0.0,0.0,0.0,0.0,0.0,0.0,0.0,0.0,0.0,0.0,0.0,0.0,0.0,0.0,0.0,0.0,0.0,0.0,0.0,0.0,0.0,5.0194,5.0242,5.0248,5.0212,5.1132,5.1941,5.2627,5.3436,5.4301,5.519,5.4535,5.4088,5.3798,5.2999,5.3444,5.4832,5.4649,5.4948,5.5566,5.5676,5.5603,5.5492,5.5622,5.6088,5.6609,5.6497,5.6014,5.5417,0.0,0.0,0.0,0.0,0.0,0.0,0.0,0.0,0.0,0.0,2.5292,2.5871,2.3604,2.4705,2.5285,2.4554,2.5149,2.5586,2.5587,0.0,0.0,2.9376,3.0361,3.1069,3.1463,3.1024,3.1069,0.0,0.0,0.0,0.0,0.0,0.0,3.6947,0.0,0.0,3.5395,3.3125,3.2036,3.177,3.1183,3.0429,2.9627,0.0,0.0,0.0,0.0,0.0,0.0,2.9704,3.0727,0.0,0.0,0.0,0.0,3.0622,3.1558,3.3038,0.0,0.0,0.0,0.0,0.0,0.0,0.0,0.0,0.0,0.0,0.0,0.0,0.0,0.0,0.0,0.0,0.0,0.0,0.0,0.0,0.0,0.0,0.0,0.0,0.0,0.0,0.0,0.0,0.0,0.0,5.0194,5.02,5.0224,5.0309,5.1156,5.196,5.2692,5.2882,5.3728,5.519,5.5076,5.4648,5.3867,5.3691,5.4404,5.575,5.4872,5.5341,5.6701,5.6583,5.65,5.6565,5.7388,5.7651,5.7536,5.6836,5.6395,5.5951,0.0,0.0,0.0,0.0,0.0,0.0,0.0,0.0,0.0,0.0,0.0,2.5721,2.4589,2.513,2.5437,2.5044,2.5389,2.601,2.6983,2.7762,2.8573,2.9369,3.0238,3.0638,3.0566,3.0664,3.0938,0.0,0.0,0.0,0.0,3.3725,3.4549,0.0,0.0,0.0,0.0,0.0,3.1061,3.0986,3.0134,3.0153,0.0,0.0,0.0,0.0,0.0,0.0,0.0,0.0,0.0,3.0862,3.1353,0.0,0.0,0.0,0.0,0.0,0.0,0.0,0.0,0.0,0.0,0.0,0.0,0.0,0.0,0.0,0.0,0.0,0.0,0.0,0.0,0.0,0.0,0.0,0.0,0.0,0.0,0.0,0.0,0.0,0.0,0.0,0.0,0.0,0.0,5.023,5.0194,5.0224,5.0483,5.1003,5.1355,5.2158,5.3423,5.3416,5.3798,5.4535,5.4999,5.4724,5.3919,5.3819,5.4609,5.5963,5.5052,5.5542,5.6929,5.6405,5.669,5.7471,5.7369,5.751,5.7752,5.7311,5.6525,5.5581,0.0,0.0,0.0,0.0,0.0,0.0,0.0,0.0,0.0,0.0,0.0,2.6109,2.564,0.0,0.0,0.0,2.5585,2.6316,2.8067,2.8191,2.8653,2.9682,3.0361,3.0408,2.9742,3.0381,0.0,0.0,0.0,0.0,3.4129,3.3837,3.4585,0.0,3.5179,0.0,0.0,0.0,0.0,0.0,0.0,0.0,0.0,0.0,0.0,0.0,0.0,0.0,0.0,0.0,0.0,0.0,0.0,0.0,0.0,0.0,0.0,0.0,0.0,0.0,0.0,0.0,0.0,0.0,0.0,0.0,0.0,0.0,0.0,0.0,0.0,0.0,0.0,0.0,0.0,0.0,0.0,0.0,0.0,0.0,0.0,0.0,0.0,0.0,0.0,0.0,0.0,5.0597,5.0537,5.0591,5.0812,5.127,5.1407,5.2203,5.3625,5.4009,5.4123,5.3968,5.4775,5.4818,5.4158,5.4109,5.4699,5.5692,5.5298,5.574,5.6719,5.6551,5.7131,5.805,5.733,5.7379,5.779,5.745,5.6442,5.5202,0.0,0.0,0.0,0.0,0.0,0.0,0.0,0.0,0.0,0.0,0.0,2.7453,2.5778,2.5582,2.5615,2.5604,2.5601,2.6299,2.8006,2.8154,2.8935,3.0577,3.0685,0.0,3.0618,3.0686,0.0,0.0,0.0,0.0,3.3226,3.4791,3.6419,3.7884,3.6263,3.5064,3.4065,0.0,0.0,0.0,0.0,0.0,0.0,0.0,0.0,0.0,0.0,0.0,0.0,0.0,0.0,0.0,0.0,0.0,0.0,0.0,0.0,0.0,0.0,0.0,0.0,0.0,0.0,0.0,0.0,0.0,0.0,0.0,0.0,0.0,0.0,0.0,0.0,0.0,0.0,0.0,0.0,0.0,0.0,0.0,0.0,0.0,0.0,0.0,0.0,0.0,0.0,5.1514,5.1452,5.1508,5.1156,5.0397,5.1102,5.1872,5.267,5.4161,5.4586,5.3926,5.4739,5.5047,5.4931,5.4924,5.4956,5.4981,5.5662,5.6001,5.6174,5.7633,5.8255,5.8176,5.813,5.8014,5.7801,5.6958,5.6061,5.5268,0.0,0.0,0.0,0.0,0.0,0.0,0.0,0.0,0.0,0.0,0.0,0.0,0.0,2.674,2.6613,2.7209,2.7237,2.7696,2.8863,2.8952,2.9498,3.0655,3.0712,3.0717,3.0706,0.0,0.0,0.0,0.0,3.0933,3.3091,3.3705,3.4545,3.5618,3.5541,3.5399,3.4916,3.1794,0.0,0.0,0.0,0.0,0.0,0.0,0.0,0.0,0.0,0.0,0.0,0.0,0.0,0.0,0.0,0.0,0.0,0.0,0.0,0.0,0.0,0.0,0.0,0.0,0.0,0.0,0.0,0.0,0.0,0.0,0.0,0.0,0.0,0.0,0.0,0.0,0.0,0.0,0.0,0.0,0.0,0.0,0.0,0.0,0.0,0.0,0.0,0.0,0.0,0.0,5.0782,5.1297,5.1194,5.0321,5.1548,5.2802,5.4052,5.4731,5.4912,5.4617,5.489,5.5028,5.4962,5.4417,5.4153,5.4155,5.4958,5.5564,5.5993,5.5931,5.6488,5.7357,5.6761,5.6476,5.6331,5.5995,5.564,5.5286,0.0,0.0,0.0,0.0,0.0,2.56,0.0,0.0,0.0,0.0,0.0,0.0,0.0,0.0,2.7946,2.8541,2.829,2.8473,2.9329,2.9141,2.9376,3.0226,3.0241,3.0128,2.9842,0.0,0.0,0.0,0.0,0.0,0.0,3.2472,3.3302,3.4616,3.4337,3.4684,0.0,0.0,0.0,3.2519,0.0,0.0,3.4205,0.0,0.0,0.0,0.0,0.0,0.0,0.0,0.0,0.0,0.0,0.0,0.0,0.0,0.0,0.0,0.0,0.0,0.0,0.0,0.0,0.0,0.0,0.0,0.0,0.0,0.0,0.0,0.0,0.0,0.0,0.0,0.0,0.0,0.0,0.0,0.0,0.0,0.0,0.0,0.0,0.0,0.0,0.0,0.0,0.0,5.12,5.1697,5.1711,5.1095,5.2335,5.3508,5.4503,5.4833,5.5014,5.4963,5.4985,5.4985,5.4925,5.4099,5.3881,5.4079,5.4057,5.4466,5.5199,5.536,5.607,5.6943,5.6611,5.6419,5.6385,5.6358,5.6134,5.5873,0.0,2.5601,2.56,2.5638,2.5638,2.5638,2.5677,0.0,0.0,0.0,0.0,0.0,0.0,0.0,0.0,2.9515,2.8717,2.8589,2.9407,2.8686,2.8571,2.9369,2.9387,2.8992,2.8179,0.0,0.0,0.0,0.0,0.0,0.0,0.0,3.3017,3.5266,3.2759,3.2987,3.5155,0.0,3.4005,3.4155,0.0,3.4164,3.469,0.0,0.0,0.0,3.8298,3.7967,0.0,0.0,0.0,0.0,0.0,0.0,0.0,0.0,0.0,0.0,0.0,0.0,0.0,0.0,0.0,0.0,0.0,0.0,0.0,0.0,0.0,0.0,0.0,0.0,0.0,0.0,0.0,0.0,0.0,0.0,0.0,0.0,0.0,0.0,0.0,0.0,0.0,0.0,0.0,5.2849,5.2772,5.2728,5.2672,5.2538,5.3393,5.3812,5.3707,5.4503,5.492,5.492,5.4963,5.4956,5.4882,5.4166,5.4235,5.4806,5.3104,5.2832,5.3762,5.6228,5.7113,5.7065,5.7838,5.8123,5.807,5.7997,5.7537,5.7028,2.5608,2.5607,2.5795,2.6418,2.6535,2.6728,2.7307,0.0,0.0,0.0,0.0,0.0,0.0,0.0,0.0,3.2083,3.1384,3.1036,3.1269,2.9878,2.918,2.9408,2.9398,2.9271,2.9066,0.0,0.0,0.0,0.0,0.0,0.0,0.0,0.0,0.0,3.253,3.2823,3.3272,3.1283,0.0,0.0,3.375,3.4716,0.0,0.0,0.0,0.0,0.0,4.0145,0.0,0.0,3.7708,3.628,0.0,0.0,0.0,0.0,0.0,0.0,3.2467,0.0,0.0,0.0,0.0,0.0,0.0,3.8104,0.0,0.0,0.0,0.0,0.0,0.0,0.0,0.0,0.0,0.0,0.0,0.0,0.0,0.0,0.0,0.0,0.0,0.0,0.0,0.0,5.3792,5.3874,5.2034,5.1272,5.0849,5.0709,5.2147,5.3155,5.3707,5.4503,5.492,5.492,5.4905,5.4934,5.4963,5.4699,5.4744,5.4925,5.4427,5.4587,5.5225,5.5244,5.5944,5.6969,5.7157,5.7252,5.7225,5.7198,5.7432,5.7817,2.6111,2.6421,2.692,2.7778,2.7926,2.8349,0.0,0.0,0.0,0.0,0.0,0.0,0.0,0.0,0.0,3.3774,3.331,3.273,3.1994,3.0685,2.9797,2.9407,2.9394,2.9227,2.8863,0.0,0.0,0.0,0.0,0.0,0.0,0.0,0.0,0.0,3.1194,3.1593,0.0,0.0,0.0,0.0,3.4605,0.0,0.0,3.9515,4.0415,0.0,0.0,0.0,4.1408,4.1323,3.9966,0.0,0.0,0.0,0.0,0.0,0.0,0.0,0.0,0.0,0.0,0.0,0.0,0.0,3.574,3.662,3.7919,0.0,0.0,0.0,0.0,0.0,0.0,0.0,0.0,0.0,0.0,0.0,0.0,0.0,0.0,0.0,0.0,0.0,0.0,5.2728,5.3683,5.3683,5.2193,5.159,5.1408,5.1649,5.2903,5.3646,5.3758,5.4518,5.492,5.492,5.4949,5.4985,5.5,5.4643,5.4689,5.5,5.4571,5.5185,5.642,5.588,5.6367,5.745,5.7833,5.7964,5.7964,5.7964,5.8265,5.866,0.0,2.7618,2.8392,2.9368,2.9548,3.0162,0.0,0.0,0.0,0.0,0.0,0.0,0.0,0.0,0.0,0.0,3.4654,3.3798,3.2169,3.1184,3.0304,2.9445,2.9483,2.9156,2.827,0.0,0.0,0.0,0.0,0.0,0.0,0.0,0.0,0.0,2.943,2.9909,0.0,0.0,0.0,3.4263,3.5915,3.7194,0.0,0.0,4.2428,0.0,4.3664,4.368,4.2957,4.2928,4.1289,0.0,0.0,0.0,0.0,0.0,3.5494,0.0,0.0,0.0,0.0,0.0,0.0,0.0,3.6236,3.6397,3.6658,0.0,0.0,0.0,0.0,0.0,0.0,0.0,0.0,0.0,0.0,0.0,0.0,0.0,0.0,0.0,0.0,5.3257,5.3754,5.3563,5.2989,5.2646,5.2646,5.2837,5.3149,5.3703,5.4545,5.459,5.3805,5.4562,5.4905,5.4912,5.5126,5.5161,5.5028,5.4635,5.4704,5.5121,5.4517,5.5496,5.7424,5.7424,5.7758,5.835,5.9192,5.953,5.953,5.9512,5.9512,5.9503,2.7845,2.7997,2.8614,3.0185,3.0455,0.0,0.0,0.0,0.0,0.0,0.0,0.0,0.0,0.0,0.0,0.0,0.0,3.4076,3.3026,3.1534,3.0304,2.9445,3.0053,3.0034,2.9158,3.0615,0.0,0.0,0.0,0.0,0.0,0.0,0.0,0.0,2.9528,2.9657,0.0,0.0,0.0,3.4259,3.528,0.0,4.0154,4.1459,4.2257,4.2779,4.3737,4.399,4.3847,0.0,4.2526,4.0582,0.0,0.0,0.0,0.0,0.0,0.0,0.0,0.0,0.0,0.0,0.0,0.0,3.3044,3.3452,3.4634,0.0,0.0,0.0,0.0,0.0,0.0,0.0,0.0,0.0,0.0,0.0,0.0,0.0,0.0,0.0,0.0,5.1164,5.1526,5.0109,5.1089,5.1738,5.1738,5.3035,5.32,5.1954,5.3344,5.4047,5.3881,5.4666,5.5071,5.5071,5.5791,5.5788,5.5219,5.7075,5.7275,5.6195,5.7331,5.8007,5.8345,5.8345,5.8723,5.9328,5.9496,5.9581,5.9572,5.9501,5.9512,5.9569,2.8763,2.9424,3.0554,3.2283,0.0,0.0,0.0,0.0,0.0,0.0,0.0,0.0,0.0,0.0,0.0,0.0,0.0,0.0,0.0,0.0,3.1379,3.0108,3.0478,3.069,3.0631,3.1035,0.0,0.0,0.0,0.0,0.0,0.0,0.0,0.0,0.0,0.0,0.0,0.0,3.1587,3.3684,3.5813,0.0,4.1237,4.2454,4.3449,4.4212,4.4566,4.4972,4.5273,4.487,4.4098,0.0,0.0,4.0215,3.9977,0.0,3.9566,4.0552,0.0,0.0,0.0,3.6362,0.0,0.0,0.0,3.3862,3.4276,0.0,0.0,0.0,0.0,0.0,0.0,0.0,0.0,0.0,0.0,0.0,0.0,0.0,0.0,0.0,0.0,5.0409,5.0541,4.9707,5.0051,5.0852,5.2074,5.2952,5.341,5.341,5.4147,5.4775,5.5228,5.5573,5.5957,5.6331,5.6868,5.6903,5.6525,5.7322,5.7249,5.6407,5.6789,5.7369,5.8053,5.8099,5.8758,5.9811,5.977,5.9753,5.9744,5.9679,5.9917,6.0315,2.9652,3.0859,3.2417,3.399,0.0,0.0,0.0,0.0,0.0,0.0,0.0,0.0,0.0,0.0,0.0,0.0,0.0,0.0,0.0,0.0,0.0,3.1268,3.1179,3.1429,3.1904,3.1194,3.1083,0.0,0.0,0.0,0.0,0.0,0.0,0.0,0.0,0.0,0.0,0.0,0.0,3.4525,0.0,3.9277,4.1187,4.3176,4.4327,4.4949,4.5428,4.6021,4.6482,4.5932,0.0,4.5152,4.2947,4.2712,0.0,0.0,0.0,0.0,0.0,0.0,0.0,0.0,0.0,3.6149,0.0,0.0,0.0,3.631,0.0,0.0,0.0,0.0,0.0,0.0,0.0,0.0,0.0,0.0,0.0,0.0,0.0,0.0,0.0,4.9088,4.922,4.9763,4.9049,4.9786,5.2447,5.2893,5.3797,5.5363,5.5288,5.5606,5.6365,5.6424,5.6782,5.7423,5.7853,5.795,5.7805,5.7423,5.7038,5.6664,5.6283,5.6659,5.7597,5.796,5.8797,5.9847,5.9882,5.991,5.9923,6.0005,6.0442,6.1047,3.0533,3.1297,3.2223,3.3252,0.0,0.0,0.0,0.0,0.0,0.0,0.0,0.0,0.0,0.0,0.0,0.0,0.0,0.0,3.6677,0.0,0.0,0.0,0.0,0.0,3.1919,3.1782,3.1409,0.0,0.0,0.0,0.0,0.0,0.0,0.0,3.2804,0.0,0.0,0.0,3.6052,0.0,3.9124,3.8724,0.0,4.1789,4.3029,4.3398,4.5518,4.6391,4.6615,0.0,4.6952,4.6205,0.0,4.4902,0.0,0.0,0.0,0.0,0.0,0.0,0.0,0.0,3.9231,0.0,0.0,0.0,3.5535,3.3583,0.0,0.0,0.0,0.0,0.0,0.0,0.0,0.0,0.0,0.0,0.0,0.0,0.0,0.0,0.0,0.0,4.5568,4.7829,4.7262,4.8268,5.1626,5.3179,5.4427,5.5467,5.5401,5.5471,5.5614,5.6314,5.6703,5.6811,5.8244,5.8599,5.7949,5.9331,5.9099,5.7732,5.9097,5.8976,5.787,5.9395,5.9698,5.9237,5.9787,5.9958,5.9999,6.0619,6.0976,6.1292,3.0826,3.1789,3.2836,3.3232,0.0,0.0,0.0,0.0,0.0,0.0,0.0,0.0,0.0,0.0,0.0,0.0,0.0,3.8463,0.0,0.0,0.0,0.0,0.0,0.0,0.0,3.237,3.1652,3.1257,3.075,0.0,0.0,0.0,0.0,0.0,3.4466,0.0,3.8183,0.0,0.0,0.0,0.0,0.0,0.0,4.2618,4.4243,4.4506,4.6517,4.7237,4.7292,0.0,4.7548,0.0,0.0,0.0,0.0,0.0,0.0,0.0,0.0,0.0,0.0,0.0,0.0,0.0,0.0,0.0,3.5543,0.0,0.0,0.0,0.0,0.0,0.0,0.0,0.0,0.0,0.0,0.0,0.0,0.0,0.0,0.0,0.0,0.0,0.0,0.0,0.0,4.7308,5.0751,5.2459,5.3801,5.4841,5.5669,5.6378,5.7019,5.7762,5.84,5.8851,5.9591,5.9723,5.9345,5.9568,5.8953,5.7822,5.8054,5.8009,5.786,5.8589,5.9244,5.9865,6.0578,6.0532,6.0105,6.0939,6.153,6.2083,3.1558,0.0,0.0,0.0,0.0,0.0,0.0,0.0,0.0,0.0,0.0,0.0,4.2322,4.2208,0.0,0.0,0.0,4.0784,0.0,0.0,3.7543,0.0,0.0,0.0,0.0,0.0,3.2295,3.1811,3.1417,0.0,0.0,0.0,0.0,0.0,0.0,3.7872,4.0589,0.0,0.0,3.9522,4.0009,4.0219,4.0509,4.3497,4.5053,4.5812,4.7242,4.7941,4.8198,4.8411,4.8367,0.0,4.7412,0.0,0.0,0.0,0.0,0.0,4.405,0.0,0.0,0.0,0.0,0.0,0.0,0.0,0.0,0.0,0.0,0.0,0.0,0.0,0.0,0.0,0.0,0.0,0.0,0.0,0.0,0.0,0.0,0.0,0.0,0.0,0.0,0.0,0.0,0.0,4.9855,5.1603,5.3071,5.4403,5.584,5.699,5.7772,5.8745,5.9516,6.0061,6.0345,6.0446,6.0377,5.9759,5.8974,5.8144,5.7567,5.7491,5.7877,5.814,5.8922,6.0056,6.0864,6.0889,6.0624,6.1705,6.2419,6.3025,3.3314,3.3294,0.0,0.0,0.0,0.0,0.0,0.0,0.0,0.0,0.0,0.0,0.0,0.0,0.0,0.0,0.0,4.3984,4.5669,0.0,3.9847,0.0,0.0,0.0,0.0,0.0,3.348,3.1792,3.2602,0.0,0.0,0.0,0.0,0.0,0.0,4.0303,4.4047,4.2389,4.3551,4.6273,4.3765,4.414,4.5965,0.0,4.436,4.6566,4.7383,0.0,0.0,4.9956,4.9711,0.0,0.0,0.0,0.0,0.0,0.0,0.0,0.0,0.0,0.0,4.1375,0.0,0.0,0.0,0.0,3.8247,0.0,0.0,0.0,0.0,0.0,0.0,0.0,0.0,0.0,0.0,0.0,0.0,0.0,0.0,0.0,0.0,0.0,0.0,0.0,0.0,0.0,4.8971,5.0818,5.2592,5.4428,5.5951,5.6752,5.6948,5.8494,5.9268,5.9241,6.0097,6.0446,6.0415,6.0377,5.9908,5.9158,5.9053,5.8646,5.8055,5.8785,5.9102,5.921,6.0102,6.0862,6.1659,6.3221,6.3837,6.3989,0.0,0.0,0.0,0.0,0.0,0.0,0.0,4.0878,0.0,0.0,0.0,0.0,0.0,0.0,4.8144,0.0,0.0,4.7268,4.843,4.5564,0.0,0.0,0.0,3.9699,0.0,0.0,3.6096,3.4389,3.4698,0.0,0.0,0.0,0.0,0.0,0.0,4.1455,0.0,0.0,0.0,0.0,0.0,4.5774,4.7384,0.0,0.0,4.7515,4.8329,4.8876,0.0,5.0095,4.9844,4.9149,4.9116,4.8526,4.7876,4.7799,4.7794,0.0,0.0,0.0,4.7341,4.3668,0.0,0.0,0.0,0.0,0.0,0.0,0.0,0.0,0.0,0.0,0.0,0.0,0.0,0.0,0.0,0.0,0.0,0.0,0.0,0.0,0.0,0.0,0.0,0.0,0.0,0.0,0.0,5.1226,5.2771,5.353,5.6157,5.7633,5.776,5.9393,6.0176,6.0059,6.0411,6.0513,6.0484,6.0484,6.0027,5.9243,5.9224,5.9089,5.8795,5.9044,5.9462,6.0026,6.0867,6.1313,6.1629,6.2795,6.3543,6.4038,3.5508,0.0,0.0,0.0,0.0,0.0,0.0,0.0,0.0,0.0,4.7376,0.0,4.9434,0.0,4.9828,0.0,4.9922,4.966,5.0219,4.8177,0.0,4.7356,4.5168,0.0,0.0,0.0,0.0,3.706,3.706,3.706,0.0,0.0,0.0,0.0,0.0,0.0,0.0,0.0,4.6217,0.0,0.0,4.7237,0.0,0.0,4.8121,4.8426,0.0,4.9378,4.9803,5.0637,5.0341,4.9787,5.0336,4.9745,4.8865,4.9138,4.899,4.8662,4.8362,4.8657,0.0,4.5208,4.4003,0.0,3.9266,0.0,0.0,0.0,0.0,0.0,0.0,0.0,0.0,0.0,0.0,0.0,0.0,3.45,0.0,0.0,0.0,0.0,0.0,0.0,0.0,4.2181,4.1813,0.0,0.0,0.0,5.2022,5.3086,5.601,5.7761,5.8153,5.9834,6.0623,6.0486,6.0265,6.0125,6.0053,6.0053,5.9633,5.8935,5.9178,5.93,5.9256,5.9536,6.0133,6.0905,6.1745,6.2244,6.2513,6.2793,6.3199,6.3657,3.7158,0.0,0.0,0.0,3.7428,0.0,0.0,0.0,4.5239,0.0,4.8497,5.0376,5.128,5.133,5.1622,5.2395,5.1739,0.0,5.1273,4.9747,0.0,0.0,4.8365,4.7019,4.6058,0.0,0.0,0.0,3.9655,3.9617,0.0,0.0,0.0,0.0,4.1023,0.0,4.4496,4.6104,4.7357,4.8246,4.8207,4.8677,4.9409,5.0204,0.0,4.9332,4.9327,4.9895,5.0737,5.1544,5.1275,5.0886,5.2504,5.1853,5.0653,5.1502,5.1108,5.021,4.9368,4.9143,4.8552,4.6036,0.0,0.0,0.0,0.0,4.3531,0.0,0.0,0.0,0.0,0.0,0.0,0.0,0.0,0.0,0.0,0.0,0.0,0.0,0.0,0.0,0.0,0.0,3.563,3.9756,3.9428,4.1609,0.0,0.0,5.0373,5.2894,5.5514,5.7249,5.8028,5.9784,6.0552,6.0378,5.9702,5.9381,5.9313,5.9351,5.9005,5.8381,5.905,5.9364,5.9415,6.0207,6.0936,6.1669,6.2502,6.335,6.4053,6.3274,6.2999,6.3106,3.6341,3.6562,3.7256,0.0,3.8619,3.9508,0.0,0.0,0.0,0.0,5.1001,5.238,5.3847,5.399,5.3831,5.3407,5.3754,0.0,0.0,0.0,0.0,5.2673,5.1053,4.9401,4.7876,4.6932,0.0,4.3285,0.0,0.0,4.0468,0.0,0.0,0.0,0.0,0.0,4.5394,4.6428,4.8106,5.0029,4.9984,5.0445,0.0,0.0,5.0853,5.1191,5.1155,5.095,5.0793,5.156,5.1275,5.0765,5.1809,5.1371,5.0467,5.0703,5.0543,5.0262,5.0038,4.9989,4.971,4.8432,4.7105,4.5769,0.0,0.0,0.0,0.0,0.0,0.0,0.0,0.0,0.0,0.0,0.0,0.0,0.0,0.0,0.0,0.0,0.0,0.0,0.0,0.0,3.6685,3.9085,3.9642,4.1705,0.0,0.0,0.0,5.1193,5.5521,5.7651,5.728,5.8944,5.9486,5.8793,5.9208,5.9373,5.9393,6.0046,6.0275,6.0142,6.0323,6.0372,6.0272,6.0482,6.0977,6.1631,6.186,6.2507,6.336,6.3723,6.4229,6.4496,3.7212,0.0,0.0,4.1162,0.0,0.0,4.4382,0.0,0.0,5.0833,5.2329,0.0,5.3865,5.4899,5.5204,5.4349,5.5398,0.0,0.0,0.0,0.0,5.4281,5.3313,5.2133,5.0782,4.9857,0.0,4.5166,0.0,0.0,4.1316,0.0,0.0,0.0,0.0,4.2676,0.0,4.6462,4.8861,5.1167,5.1157,0.0,0.0,5.2359,5.2134,5.1923,5.2282,5.1677,5.0894,5.2013,5.1844,5.1378,5.2586,5.2072,5.1097,5.1486,5.1003,5.0356,5.0356,5.0338,5.0162,4.9719,4.8873,4.7814,4.6496,4.6616,4.6789,0.0,0.0,0.0,0.0,0.0,0.0,0.0,0.0,0.0,0.0,0.0,0.0,0.0,0.0,0.0,0.0,0.0,3.5992,3.778,3.8663,4.063,0.0,0.0,0.0,5.0514,5.4479,5.6692,5.6934,5.8308,5.89,5.8726,5.8865,5.9113,5.9459,5.9959,6.0213,6.0242,6.0633,6.0728,6.0706,6.1396,6.1898,6.2292,6.3019,6.36,6.4066,6.4211,6.4281,6.4197,0.0,0.0,0.0,0.0,0.0,0.0,0.0,4.803,0.0,5.1243,0.0,5.3861,5.3077,5.5073,5.6181,5.5401,0.0,5.7068,5.543,5.6058,5.6094,5.5188,5.5119,5.4636,5.3705,5.2785,0.0,0.0,0.0,0.0,0.0,0.0,0.0,0.0,0.0,0.0,0.0,4.667,4.9634,0.0,5.1869,5.2505,5.3433,5.4087,5.3395,5.2159,5.2928,5.2197,5.1082,5.2659,5.2615,5.2187,5.3813,5.3084,5.1764,5.2548,5.165,5.0396,5.0401,5.0438,5.0424,5.0256,5.035,5.0051,4.8476,4.8069,4.7987,4.8004,4.6726,4.6448,0.0,0.0,0.0,0.0,0.0,0.0,0.0,0.0,0.0,0.0,0.0,0.0,0.0,0.0,3.4924,3.6256,3.7114,0.0,0.0,0.0,0.0,5.0131,5.3089,0.0,5.6746,0.0,5.8566,5.9102,5.8687,5.8836,5.9534,5.9644,5.9677,5.9715,6.0479,6.0828,6.0992,6.2375,6.303,6.3312,6.4889,6.5472,6.5351,6.4707,6.397,6.3396,0.0,0.0,0.0,0.0,0.0,4.7559,4.9101,5.0186,5.1228,5.2258,5.447,0.0,5.5722,5.67,5.7301,5.7145,5.8014,0.0,0.0,0.0,0.0,5.6047,5.6001,5.5245,5.3665,5.269,5.0457,0.0,0.0,0.0,0.0,0.0,0.0,0.0,0.0,0.0,4.7182,4.8596,0.0,5.1875,5.1885,5.2851,5.4203,5.3626,5.3236,5.3005,5.3159,5.2518,5.1757,5.2841,5.2595,5.2026,5.3072,5.2174,5.0757,5.0991,5.0698,5.0344,5.039,5.0897,5.1194,5.0456,5.0808,5.1179,5.0825,5.0127,4.9764,5.0437,4.9741,4.88,4.7991,0.0,0.0,0.0,0.0,0.0,0.0,0.0,0.0,0.0,0.0,0.0,0.0,0.0,0.0,0.0,0.0,0.0,0.0,0.0,0.0,0.0,5.3069,0.0,0.0,0.0,5.8028,5.7538,5.877,5.9496,5.9698,6.0338,6.0663,6.0663,6.0766,6.1168,6.1793,6.1953,6.2838,6.4154,6.5118,6.5604,6.5688,6.5384,6.5224,6.4953,0.0,0.0,0.0,0.0,0.0,0.0,0.0,5.2456,0.0,5.329,5.429,5.5052,5.5063,5.6978,5.8276,5.8218,5.8979,5.9082,5.821,5.78,5.7165,5.6252,5.6191,0.0,5.3634,5.3108,5.0995,4.7147,0.0,0.0,0.0,0.0,0.0,0.0,0.0,4.4685,0.0,0.0,0.0,5.262,5.3082,5.401,5.5088,5.4633,5.3946,5.3197,5.3166,5.2564,5.1938,5.2874,5.2605,5.2008,5.2923,5.2262,5.1167,5.1226,5.0829,5.0373,5.0396,5.0973,5.1493,5.1043,5.1547,5.2107,5.1997,5.1601,5.1295,5.1213,5.0858,4.9917,4.7801,4.5369,0.0,0.0,0.0,0.0,0.0,0.0,0.0,0.0,0.0,0.0,0.0,0.0,0.0,0.0,0.0,0.0,0.0,0.0,0.0,0.0,0.0,0.0,0.0,0.0,0.0,5.8406,5.9248,5.988,6.0338,6.0729,6.0894,6.0866,6.1299,6.1692,6.2117,6.2887,6.3889,6.5015,6.5479,6.5667,6.5688,6.558,6.5552,6.5415,0.0,4.5115,0.0,0.0,4.9529,0.0,5.2558,5.4371,5.5176,5.4279,5.4301,5.4361,5.4378,5.7067,5.8865,5.884,5.9756,5.9943,5.8852,5.8198,5.7366,5.6241,5.6202,5.5478,5.3877,5.3615,5.1618,0.0,0.0,0.0,0.0,0.0,0.0,0.0,0.0,0.0,0.0,0.0,5.1198,5.3549,5.4203,5.4972,5.5703,5.5654,5.4743,5.3462,5.3398,5.2691,5.1972,5.3074,5.2854,5.2277,5.2946,5.253,5.1792,5.1792,5.1103,5.0401,5.0401,5.1126,5.1793,5.1541,5.2234,5.2913,5.2786,5.2479,5.2072,5.1554,5.1161,5.022,4.7839,4.6468,0.0,0.0,0.0,0.0,0.0,0.0,0.0,0.0,0.0,0.0,0.0,0.0,0.0,0.0,0.0,3.7202,3.9294,4.1378,0.0,0.0,0.0,5.3107,5.6185,0.0,5.8114,0.0,5.9878,6.0308,6.0927,6.0938,6.0982,6.1129,6.1799,6.2281,6.2725,6.42,6.5139,6.5667,6.5767,6.5728,6.5642,6.5667,6.5594,6.5537,0.0,0.0,0.0,0.0,0.0,0.0,0.0,5.5272,5.6076,5.5176,5.576,5.6267,5.6264,5.7814,5.8907,5.8904,6.0365,6.0561,5.8891,5.8739,5.7945,5.628,5.6202,5.5738,5.4692,5.3913,5.2186,0.0,0.0,0.0,0.0,0.0,0.0,0.0,0.0,0.0,0.0,5.025,5.2058,5.4395,5.4472,5.4972,5.5708,5.5703,5.5126,5.439,5.4287,5.3196,5.2033,5.3673,5.3617,5.29,5.3064,5.2467,5.1727,5.1727,5.1108,5.0401,5.0401,5.1514,5.2487,5.1694,5.266,5.3774,5.3691,5.2444,5.1509,5.2146,5.1092,4.9469,4.7725,4.7915,4.7554,0.0,0.0,0.0,0.0,0.0,0.0,0.0,0.0,0.0,0.0,0.0,0.0,0.0,0.0,3.6884,4.0192,4.0654,4.2772,4.7096,0.0,5.1765,5.3717,5.6685,0.0,5.9795,6.0534,6.094,6.109,6.1034,6.1406,6.2089,6.2103,6.2943,6.4334,6.5294,6.571,6.578,6.5793,6.5826,6.5872,6.5807,6.578,6.576,0.0,0.0,0.0,0.0,0.0,0.0,0.0,5.6059,5.6556,5.6661,5.6583,5.6695,5.7186,5.8237,5.8904,5.8886,5.9931,6.0332,5.9632,5.8626,5.7744,5.6946,5.6462,5.5761,5.4803,5.4473,5.3265,0.0,0.0,0.0,0.0,0.0,0.0,0.0,0.0,4.8697,5.1112,5.1924,5.3147,5.4549,5.5011,5.5401,5.5703,5.5665,5.5176,5.4505,5.4403,5.364,5.2733,5.3366,5.2976,5.2417,5.3469,5.3195,5.2373,5.1837,5.1792,5.1664,5.0675,5.1968,5.3353,5.2399,5.3382,5.459,5.4463,5.354,5.2639,5.2449,5.1054,4.971,4.9067,4.8396,4.7921,0.0,0.0,0.0,0.0,0.0,0.0,0.0,0.0,0.0,0.0,0.0,0.0,0.0,0.0,0.0,3.8792,4.0462,4.2822,4.6103,0.0,5.2078,5.3342,5.6739,5.8882,5.9809,6.065,6.1041,6.1032,6.1026,6.1718,6.2993,6.3499,6.4366,6.5422,6.5769,6.5897,6.5859,6.5859,6.5878,6.5891,6.582,6.5793,6.5787,5.1022,0.0,5.0859,0.0,5.3769,5.4224,5.6539,5.688,5.7141,5.7977,5.7585,5.7344,5.7676,5.866,5.929,5.9296,6.0002,6.037,6.0137,5.9004,5.8196,5.7831,5.7223,0.0,5.5917,5.5672,5.4929,5.3691,5.1749,0.0,0.0,0.0,0.0,0.0,5.0043,5.1352,5.3295,5.4077,5.4756,5.5345,5.6137,5.6165,5.5703,5.5929,5.5506,5.4825,5.4787,5.42,5.3503,5.3728,5.3173,5.2629,5.3872,5.384,5.3227,5.2591,5.2644,5.2615,5.1394,5.2537,5.3887,5.3153,5.4026,5.5057,5.4941,5.4291,5.3442,5.2563,5.1282,5.0354,5.0667,4.9496,4.8844,4.9821,0.0,0.0,0.0,0.0,0.0,0.0,0.0,3.98,3.9525,0.0,0.0,0.0,0.0,0.0,3.9625,4.0862,0.0,0.0,0.0,0.0,0.0,5.6898,5.9085,6.0181,6.079,6.1215,6.1413,6.1939,6.2787,6.393,6.4784,6.5483,6.6002,6.5982,6.5978,6.5904,6.5923,6.5916,6.5897,6.5846,6.5826,6.5826,5.36,5.3239,5.3738,5.713,5.6324,5.5755,5.7511,5.7728,5.8016,5.888,5.8992,5.8642,5.7785,5.9202,6.0185,6.0193,6.0932,6.1027,6.0176,6.006,5.9688,0.0,0.0,5.8561,5.8557,5.7697,5.7245,5.7245,0.0,0.0,5.2148,0.0,5.1293,5.2225,5.3885,5.5134,5.6009,5.6724,5.7068,5.7135,5.7956,5.7242,5.5785,5.667,5.6401,5.5577,5.5577,5.4965,5.4323,5.5082,5.481,5.4078,5.4172,5.419,5.4178,5.4084,5.3497,5.2865,5.2698,5.3308,5.3982,5.3901,5.4441,5.5,5.5,5.4334,5.3442,5.2563,5.1767,5.1426,5.2222,5.1691,5.0885,5.0125,0.0,0.0,0.0,0.0,0.0,0.0,4.0502,3.9391,4.0283,0.0,0.0,0.0,0.0,0.0,0.0,0.0,0.0,4.926,5.0392,0.0,5.4774,5.7244,5.937,6.1075,6.1079,6.1539,6.2428,6.4113,6.4839,6.4828,6.5627,6.5978,6.6008,6.5984,6.5976,6.591,6.5978,6.596,6.5904,6.5897,6.5897,6.5897,5.4656,5.4652,5.4803,5.5846,5.6071,5.6256,5.6828,5.6888,5.7379,5.8815,5.8488,5.8425,5.9319,5.9874,6.02,0.0,6.0932,6.1299,0.0,6.0434,5.9993,5.9695,5.9022,5.8668,5.8677,5.8359,5.8178,5.8178,0.0,0.0,0.0,5.4516,5.4847,5.5698,5.6227,5.6939,5.7718,5.7916,5.7942,5.7949,5.8187,5.7967,5.7511,5.778,5.7692,5.7439,5.7394,5.7167,5.6966,5.7104,5.6601,5.5855,5.5823,5.5467,5.4887,5.4301,5.4345,5.4352,5.3092,5.3843,5.4816,5.4127,5.4558,5.5109,5.5092,5.4375,5.3521,5.2648,5.2219,5.2106,5.2482,5.2303,5.1854,5.1135,5.0285,0.0,0.0,0.0,0.0,0.0,4.3076,4.2508,0.0,4.0149,0.0,0.0,0.0,0.0,0.0,0.0,0.0,0.0,5.0936,0.0,5.3923,5.7004,5.915,6.0274,6.0822,6.1539,6.2467,6.4198,6.4956,6.4979,6.5786,6.6102,6.6085,6.6063,6.604,6.5972,6.5996,6.596,6.5904,6.5904,6.5904,6.5904,5.5247,5.5279,5.5464,5.6072,5.6104,5.6213,5.6906,5.6964,5.734,5.8353,5.8607,5.9083,6.0086,6.0481,0.0,6.0637,6.1119,6.1532,6.1882,6.1056,6.0688,6.1015,6.0162,5.9649,5.9641,0.0,0.0,5.9537,5.8746,5.7869,5.7061,5.734,5.7753,5.829,5.8599,5.9011,5.9485,5.9389,5.9349,5.9356,5.9309,5.9084,5.8776,5.8748,5.8533,5.8241,5.8229,5.8177,5.8105,5.8049,5.7653,5.7143,5.7104,5.674,5.6167,5.5288,5.567,5.6084,5.4989,5.5478,5.6076,5.5152,5.5316,5.5556,5.5165,5.4666,5.4137,5.3605,5.3183,5.3062,5.3469,5.3259,5.2916,5.2495,5.1434,5.0206,4.8957,0.0,0.0,0.0,0.0,0.0,0.0,4.2538,0.0,0.0,0.0,0.0,0.0,0.0,0.0,4.9337,5.2352,0.0,5.5397,5.7852,5.9538,6.0412,6.1565,6.2567,6.3457,6.4832,6.5485,6.5524,6.6002,6.6155,6.6102,6.6123,6.6063,6.5999,6.6023,6.602,6.5941,6.5941,6.5923,6.5904,5.5566,5.5356,0.0,0.0,5.6353,0.0,5.7552,5.7769,5.7752,5.7864,5.9287,6.0311,6.0358,6.1032,6.1506,6.1582,0.0,0.0,0.0,6.1771,6.1714,6.2572,6.1834,6.1362,6.1311,6.1307,6.1246,6.1123,6.0349,5.9575,5.8802,5.9653,6.0074,6.0112,6.0925,6.1273,6.1268,6.122,6.1195,6.1262,6.1109,6.0564,5.9755,5.9688,5.9131,5.8392,5.8444,5.8357,5.8209,5.8265,5.8164,5.8021,5.8021,5.7976,5.7817,5.6938,5.7243,5.7873,5.7805,5.7822,5.76,5.6799,5.6553,5.6276,5.5483,5.5286,5.5279,5.5203,5.4587,5.4282,5.4974,5.4486,5.3973,5.3918,5.2691,5.1376,5.0439,0.0,0.0,0.0,0.0,0.0,0.0,4.453,4.4952,0.0,0.0,0.0,0.0,0.0,4.8566,5.343,5.4366,5.6055,5.8651,5.9508,6.0382,6.1307,6.2986,6.4248,6.5131,6.5939,6.6346,6.638,6.6327,6.6271,6.63,6.6281,6.6195,6.6019,6.6074,6.603,6.5931,6.597,6.5966,6.591,0.0,0.0,5.6363,5.6739,5.6488,5.6555,5.7647,5.7788,5.8244,5.9529,6.0029,6.0791,6.2032,6.2333,6.2744,6.3411,6.2189,6.1494,6.1688,6.1483,6.1751,6.2648,6.242,6.2277,6.2265,6.2228,6.1875,6.1168,6.0943,6.0692,6.0538,6.1389,6.181,6.1853,6.2709,6.3096,6.3091,6.2998,6.2946,6.2937,6.2827,6.2275,6.1503,6.1485,6.0929,6.0181,6.0151,6.0109,6.0066,6.0022,5.9569,5.8968,5.8968,5.8936,5.8731,5.7868,5.7734,5.7886,5.7866,5.7859,5.7821,5.7637,5.7547,5.7509,5.7333,5.7221,5.6955,5.6307,5.5999,5.5666,5.5271,5.5051,5.4556,5.3276,5.2839,5.1918,4.9778,5.0296,0.0,0.0,4.8394,4.8623,4.6489,4.6912,4.7443,0.0,0.0,0.0,0.0,5.1389,5.2824,5.5293,5.5019,5.6333,5.9547,5.9869,6.0703,6.2211,6.3343,6.4317,6.5131,6.5939,6.6656,6.731,6.7217,6.7567,6.8098,6.7457,6.6763,6.608,6.6091,6.5666,6.518,6.5759,6.5988,6.5978,5.608,5.6343,5.6563,5.651,5.6814,5.7237,5.7744,5.8113,5.8683,5.9627,6.043,6.1227,6.2136,6.2941,6.3584,6.4055,6.3187,6.2765,6.3154,6.2825,6.297,6.3824,6.3441,6.3177,6.3161,6.3093,6.2874,6.2383,6.2361,6.2348,6.2348,6.2828,6.3022,6.304,6.3502,6.3729,6.3743,6.3656,6.3843,6.4159,6.3676,6.3444,6.3334,6.2852,6.2406,6.1976,6.1911,6.1868,6.1837,6.18,6.1461,6.1051,6.1051,6.0993,6.0839,5.9995,5.9393,5.9039,5.9039,5.9039,5.8963,5.8536,5.8154,5.79,5.7939,5.7886,5.7718,5.7221,5.7111,5.6837,5.6039,5.5925,5.5383,5.3769,5.3583,5.3031,5.1222,5.1839,0.0,5.0043,5.0706,5.0785,4.9423,4.9757,5.0245,5.0648,0.0,0.0,5.3815,5.4432,5.4935,5.5432,5.5787,5.7059,5.9322,6.0573,6.1846,6.322,6.4093,6.4947,6.5738,6.6157,6.6785,6.7614,6.7561,6.8024,6.8772,6.8269,6.7557,6.6757,6.6757,6.6179,6.5429,6.5892,6.6013,6.5999,5.6005,5.6462,5.6953,5.69,5.7484,5.8031,5.8185,5.8785,5.9274,5.9443,6.0818,6.1807,6.1802,6.3302,6.4293,6.4304,6.4351,6.4597,6.5083,6.4394,6.4372,6.5145,6.4489,6.4069,6.3998,6.3873,6.383,6.383,6.3787,6.3783,6.3783,6.3933,6.4015,6.4011,6.4077,6.4135,6.4168,6.4126,6.4483,6.5087,6.4307,6.4358,6.4805,6.3935,6.3548,6.3421,6.3356,6.3295,6.3213,6.3201,6.3162,6.3117,6.3117,6.311,6.2989,6.2292,6.1477,6.0794,6.0641,6.0641,6.0405,5.9543,5.8824,5.8302,5.8302,5.8302,5.8264,5.8149,5.8111,5.7863,5.7047,5.6804,5.6216,5.4565,5.437,5.4073,5.3102,0.0,5.3413,5.3143,5.2736,5.24,5.2125,5.2412,5.2978,5.3827,5.4823,5.6048,0.0,5.7056,5.6362,5.5444,5.6838,5.8102,5.9107,6.1434,6.3099,6.4026,6.4834,6.565,6.6505,6.6422,6.692,6.7806,6.7794,6.832,6.9159,6.9043,6.8462,6.7694,6.7539,6.6928,6.6112,6.6112,6.6074,6.6013,5.8537,5.8604,5.8709,5.8695,5.881,5.9158,5.9887,6.0114,6.0418,6.1103,6.2067,6.268,6.2701,6.4174,6.5182,6.5219,6.5857,6.569,6.4273,6.4068,6.4372,6.5145,6.506,6.4978,6.4971,6.4279,6.3871,6.3871,6.3839,6.3783,6.3822,6.4545,6.4894,6.4937,6.5586,6.5911,6.5915,6.5823,6.585,6.5919,6.5754,6.5341,6.4801,6.4624,6.4117,6.3489,6.3426,6.3397,6.3341,6.3281,6.3295,6.3283,6.3283,6.3213,6.3169,6.3015,6.2848,6.252,6.1862,6.167,6.1427,6.0518,6.0238,6.0169,6.0169,6.0169,5.9977,5.9217,5.9064,5.884,5.8016,5.737,5.6384,5.4644,5.4503,5.4005,5.2416,0.0,5.3855,5.2466,5.3469,5.3756,5.2302,5.353,5.4762,5.5695,5.7222,5.8229,5.8498,5.9087,5.9029,5.8199,5.8439,5.935,6.0971,6.2104,6.3125,6.4026,6.4834,6.565,6.6505,6.6422,6.723,6.8698,6.8646,6.9482,7.0866,7.0136,6.9319,6.854,6.781,6.6954,6.6175,6.6175,6.6134,6.6085,5.9133,5.9123,5.9112,5.9108,5.9491,5.9952,6.0337,6.0752,6.1164,6.1543,6.273,6.3567,6.3556,6.5087,6.6098,6.6109,6.6886,6.7013,6.6153,6.5662,6.557,6.5955,6.6342,6.6551,6.6551,6.6143,6.572,6.5312,6.5258,6.525,6.525,6.5648,6.5803,6.5863,6.6187,6.6358,6.6338,6.6264,6.6254,6.619,6.616,6.5902,6.5533,6.5495,6.5253,6.49,6.4833,6.481,6.4804,6.474,6.476,6.4754,6.4717,6.4686,6.4545,6.4084,6.3553,6.293,6.2079,6.1869,6.1684,6.0729,6.0533,6.0578,6.0578,6.0578,6.0514,6.0137,6.0041,5.9779,5.9042,5.8231,5.7253,5.6102,5.5552,0.0,0.0,5.4841,5.5264,5.4989,5.5667,5.6013,5.5746,5.6416,5.7284,5.82,5.8548,5.915,6.008,6.0087,6.0106,6.018,6.0201,6.0586,6.1377,6.3164,6.4022,6.4026,6.5304,6.6116,6.6508,6.6955,6.7799,6.8931,6.9401,7.0234,7.1258,7.0903,7.024,6.9396,6.9009,6.8042,6.6882,6.6882,6.6595,6.6139,6.0074,6.0027,5.9941,5.9742,6.0243,6.0705,6.0705,6.1231,6.16,6.1597,6.2888,6.3833,6.3828,6.5365,6.6413,6.6413,6.7361,6.7976,6.7933,6.747,6.721,6.7193,6.7705,6.8014,6.8014,6.782,6.7409,6.6819,6.6819,6.6819,6.6819,6.6745,6.6749,6.6815,6.6743,6.6687,6.6708,6.6862,6.6898,6.6884,6.6845,6.682,6.6799,6.6752,6.6581,6.6422,6.6361,6.6184,6.6019,6.5999,6.5982,6.5976,6.5947,6.5923,6.5807,6.5096,6.4366,6.3507,6.2437,6.2317,6.2266,6.1107,6.0878,6.0898,6.0687,6.0655,6.0654,6.0722,6.0691,6.0511,6.0014,5.9166,5.8329,5.7612,0.0,0.0,0.0,5.651,5.6893,5.7628,5.7711,5.7967,5.8622,5.8901,5.9301,5.9976,5.9603,5.9978,6.1335,6.0759,6.0815,6.1668,6.1709,6.1804,6.1999,6.4135,6.4873,6.4294,6.5809,6.6625,6.6819,6.748,6.8325,6.9245,6.9994,7.067,7.1297,7.1355,7.0958,7.0291,7.0098,6.9208,6.8042,6.7655,6.7181,6.6735,6.2719,6.2714,6.2477,6.1644,6.1563,6.1602,6.1602,6.1668,6.1652,6.1598,6.2393,6.2994,6.2973,6.4491,6.5504,6.5499,6.7021,6.7993,6.799,6.8627,6.8975,6.8907,6.8975,6.8987,6.8987,6.8214,6.7752,6.7717,6.7717,6.7717,6.7717,6.7713,6.7713,6.7713,6.7626,6.7609,6.7648,6.8376,6.8718,6.8714,6.8709,6.8674,6.8617,6.8612,6.8109,6.7408,6.731,6.6786,6.6085,6.6024,6.6001,6.599,6.5976,6.5996,6.5984,6.5839,6.5743,6.5295,6.3572,6.3758,6.3969,6.2228,6.187,6.1757,6.0889,6.0734,6.0787,6.0883,6.0894,6.0872,6.0899,6.0218,5.9403,5.8554,0.0,0.0,5.7391,5.7976,5.8518,5.86,5.8598,5.8622,5.87,5.9506,6.001,6.0088,6.072,6.1182,6.1373,6.1338,6.1705,6.2565,6.2606,6.2973,6.3793,6.4718,6.5184,6.5106,6.6077,6.6936,6.7717,6.7756,6.8639,7.0103,7.0231,7.067,7.1297,7.1355,7.1306,7.1103,7.033,6.9904,6.9633,6.8081,6.7928,6.8431,6.2996,6.2561,6.2087,6.1771,6.1686,6.1719,6.1719,6.1661,6.1843,6.2394,6.3134,6.3882,6.4436,6.5541,6.6239,6.6205,6.7791,6.881,6.8819,7.0055,7.0557,6.9915,6.9896,6.9873,6.9849,6.9562,6.9139,6.8606,6.8594,6.8594,6.8606,6.8062,6.8101,6.8564,6.8008,6.8077,6.8574,6.8812,6.8887,6.8902,6.8839,6.8831,6.881,6.881,6.8269,6.7495,6.7474,6.6889,6.6139,6.6041,6.603,6.6041,6.5946,6.5972,6.5996,6.5972,6.5966,6.5812,6.5131,6.4817,6.4351,6.3028,6.2435,6.2039,6.1668,6.1235,6.0949,6.0969,6.0948,6.0987,6.1041,6.0355,5.9867,6.0117,0.0,5.8772,5.9056,5.8909,5.8959,5.949,5.9583,5.9784,6.0324,6.0688,6.0893,6.0911,6.1207,6.1373,6.1411,6.194,6.2659,6.3528,6.4059,6.4247,6.4053,6.539,6.5807,6.5259,6.6157,6.7001,6.7829,6.8306,6.9153,7.0219,7.0815,7.1145,7.1297,7.1355,7.1345,7.1253,7.0905,7.0424,6.9877,6.922,6.8866,6.864,6.2999,6.2524,6.201,6.1733,6.1686,6.1797,6.207,6.2056,6.2356,6.326,6.4047,6.4762,6.5435,6.6268,6.6884,6.7078,6.8468,6.9406,6.9679,7.1001,7.1507,7.0827,7.082,7.0805,7.0724,7.0533,7.0151,6.9539,6.9518,6.9507,6.9477,6.8886,6.8917,6.9457,6.8839,6.8917,6.9492,6.9688,6.972,6.9701,6.9652,6.9616,6.9611,6.9595,6.8904,6.7952,6.7931,6.7152,6.6175,6.6091,6.6091,6.6102,6.5999,6.6168,6.6423,6.6441,6.6447,6.6381,6.613,6.5617,6.4943,6.3966,6.3145,6.2612,6.2568,6.1935,6.1399,6.1417,6.1397,6.1358,6.1138,6.0626,6.0437,6.1095,6.0235,5.973,6.0375,5.996,5.9819,6.0427,6.0702,6.1013,6.1359,6.1875,6.2115,6.1843,6.2076,6.221,6.2212,6.2866,6.363,6.4498,6.504,6.5202,6.4938,6.6024,6.6312,6.5729,6.6302,6.7132,6.8218,6.8768,6.9606,7.0622,7.1232,7.145,7.1297,7.1084,7.0958,7.0905,7.0805,7.0429,6.9909,6.9889,6.969,6.9387,6.2999,6.2993,6.271,6.1838,6.1719,6.1992,6.2852,6.3008,6.3277,6.4082,6.4975,6.5515,6.55,6.6278,6.7124,6.792,6.8775,6.9662,7.0536,7.1352,7.1752,7.1683,7.1715,7.1701,7.1699,7.0926,7.0518,7.0518,7.0438,7.0416,7.0413,7.0336,7.0316,7.0316,7.0316,7.0316,7.0389,7.1236,7.1575,7.1489,7.1435,7.1415,7.141,7.1313,7.0289,6.8898,6.8837,6.7694,6.6185,6.6185,6.6185,6.6214,6.6118,6.6643,6.7309,6.7399,6.7415,6.7233,6.6441,6.6224,6.601,6.5049,6.4167,6.35,6.3511,6.286,6.222,6.2305,6.2321,6.2065,6.1263,6.1118,6.1132,6.1177,6.1268,6.1314,6.1314,6.1283,6.1283,6.1322,6.2063,6.2257,6.1399,6.2951,6.3637,6.2779,6.3521,6.4005,6.4004,6.4075,6.4498,6.5386,6.5423,6.5823,6.6709,6.6615,6.6585,6.6585,6.6588,6.744,6.8991,6.9069,6.9925,7.1381,7.1523,7.148,7.1219,7.0426,7.0068,6.9976,6.9943,6.9921,6.9909,6.9928,7.0368,7.0896,6.2991,6.2513,6.2,6.1731,6.1686,6.1994,6.2862,6.3007,6.3543,6.4993,6.5364,6.5743,6.6335,6.6649,6.6913,6.7126,6.8502,6.9982,7.1406,7.1755,7.185,7.1755,7.177,7.1741,7.1701,7.1501,7.1391,7.1329,7.1381,7.1361,7.1311,7.0673,7.0654,7.117,7.0588,7.0626,7.1244,7.1434,7.1504,7.1485,7.1394,7.1345,7.141,7.1313,7.0289,6.8902,6.8839,6.7711,6.6279,6.6239,6.6622,6.7179,6.7164,6.6876,6.6652,6.7323,6.7531,6.7508,6.7251,6.7188,6.6961,6.5963,6.5141,6.4544,6.4502,6.3833,6.325,6.3265,6.283,6.2355,6.2136,6.1625,6.1234,6.1275,6.1295,6.1318,6.1355,6.1359,6.1592,6.2217,6.2514,6.2807,6.3157,6.3673,6.392,6.3709,6.3907,6.4079,6.4073,6.4606,6.5079,6.5381,6.6007,6.6441,6.6683,6.6645,6.6585,6.6585,6.6588,6.7132,6.8179,6.8147,6.9024,7.054,7.0569,7.0829,7.1219,7.0384,7.0036,6.9971,6.9936,6.9895,6.996,7.0427,7.0812,7.103,6.2484,6.2046,6.169,6.1697,6.1692,6.2119,6.3336,6.3522,6.4138,6.5858,6.6038,6.6226,6.6742,6.6783,6.7088,6.7771,6.941,7.0813,7.1815,7.2205,7.2388,7.236,7.2334,7.2142,7.1741,7.1773,7.1779,7.1758,7.1764,7.1787,7.1747,7.1184,7.1166,7.161,7.1101,7.1144,7.1642,7.1556,7.1555,7.1546,7.1401,7.143,7.147,7.142,7.0583,6.9386,6.897,6.7958,6.6796,6.6763,6.7377,6.8155,6.8515,6.8249,6.7886,6.8481,6.8689,6.8582,6.8282,6.7933,6.751,6.6874,6.5892,6.5117,6.5437,6.4837,6.4241,6.4241,6.3605,6.2926,6.2577,6.1823,6.1314,6.1314,6.1283,6.145,6.1878,6.1896,6.2256,6.3115,6.3537,6.379,6.4024,6.4649,6.5045,6.5103,6.5103,6.5118,6.5114,6.5603,6.5875,6.5904,6.6413,6.6688,6.6688,6.6645,6.6591,6.6642,6.6594,6.7012,6.7825,6.8112,6.8959,7.0215,7.0525,7.0911,7.1246,7.0026,6.9512,6.9463,6.9031,6.9093,6.9429,6.9791,7.0388,7.1017,6.1711,6.1705,6.1699,6.17,6.1778,6.2363,6.4041,6.4354,6.4975,6.6602,6.6798,6.6798,6.6796,6.6874,6.7571,6.9154,7.0815,7.1858,7.2014,7.2758,7.3226,7.3302,7.3321,7.2934,7.2061,7.1964,7.1897,7.1819,7.1866,7.189,7.1812,7.1738,7.1718,7.1715,7.1715,7.1715,7.1711,7.1634,7.1602,7.1594,7.1532,7.1523,7.1598,7.1508,7.098,7.0166,6.923,6.8402,6.7742,6.7824,6.8329,6.9065,6.9918,7.0151,7.0122,7.0244,7.0296,7.0149,6.941,6.8539,6.7812,6.7734,6.6463,6.5424,6.623,6.5799,6.5218,6.5218,6.4528,6.3683,6.2904,6.2093,6.1528,6.1562,6.1566,6.1849,6.2705,6.2821,6.3155,6.4011,6.4818,6.5031,6.4408,6.5696,6.6591,6.6627,6.6591,6.6645,6.6713,6.6713,6.6683,6.6707,6.6707,6.6707,6.6707,6.6654,6.6681,6.6822,6.6753,6.7125,6.7938,6.8758,6.9489,7.0263,7.1029,7.1349,7.1139,6.9494,6.8733,6.8606,6.7679,6.7782,6.8503,6.8527,6.9528,7.0819,6.1716,6.1711,6.1709,6.1713,6.2258,6.3074,6.4127,6.487,6.5686,6.6682,6.6803,6.6806,6.6798,6.742,6.7965,6.8351,6.9947,7.1546,7.2912,7.3186,7.3571,7.4183,7.4201,7.4106,7.39,7.3202,7.2479,7.1819,7.2474,7.2459,7.1812,7.18,7.1741,7.1715,7.1715,7.1715,7.1711,7.1634,7.1602,7.1594,7.1532,7.1523,7.1598,7.1508,7.098,7.0175,6.9304,6.8868,6.8808,6.9463,6.9373,6.9119,7.0007,6.986,6.9471,7.0105,7.0299,7.0265,7.0079,6.9414,6.8629,6.7934,6.7021,6.6314,6.6368,6.6252,6.6118,6.6118,6.5511,6.4938,6.4743,6.4009,6.3439,6.347,6.3456,6.3489,6.3755,6.3803,6.4082,6.4938,6.5241,6.5573,6.6079,6.6485,6.6683,6.6663,6.668,6.6696,6.6702,6.6683,6.6713,6.668,6.668,6.668,6.668,6.6708,6.7002,6.7639,6.7571,6.7992,6.8835,6.8991,6.9545,7.027,7.0427,7.0457,7.0292,6.9224,6.8385,6.7756,6.7442,6.7435,6.7731,6.9008,6.9752,7.0206,6.1717,6.1715,6.1831,6.2263,6.2691,6.3432,6.472,6.5306,6.5889,6.6736,6.6812,6.6966,6.7351,6.7814,6.8433,6.9253,7.0932,7.2337,7.3235,7.4056,7.4678,7.51,7.512,7.5109,7.5109,7.4648,7.3958,7.3049,7.3517,7.3267,7.2417,7.2417,7.2172,7.1767,7.1767,7.1767,7.1764,7.1711,7.1686,7.1679,7.1618,7.1628,7.1632,7.1628,7.1322,7.0864,7.0013,6.9705,6.9768,7.0192,7.0332,7.0354,7.0782,7.0626,7.0393,7.0782,7.0953,7.0969,7.0969,7.0363,6.9561,6.8702,6.7825,6.7083,6.6613,6.6508,6.6496,6.6496,6.5867,6.5311,6.5311,6.461,6.4079,6.4073,6.4052,6.4351,6.5163,6.5325,6.5636,6.6454,6.6986,6.7434,6.7901,6.7951,6.7764,6.7335,6.7307,6.7158,6.6729,6.6717,6.6899,6.7314,6.7314,6.7509,6.794,6.7926,6.8328,6.9146,6.8239,6.8276,6.9107,6.9496,6.9911,7.0317,7.0674,7.0549,7.0094,6.9157,6.8269,6.749,6.7399,6.7597,6.8054,6.8921,6.9524,6.9996,6.1717,6.1834,6.2147,6.2889,6.3241,6.3944,6.5388,6.574,6.6129,6.6982,6.7053,6.7361,6.8221,6.8602,6.9413,7.1014,7.2573,7.3586,7.3703,7.5032,7.5853,7.601,7.6032,7.6023,7.6026,7.6008,7.548,7.4402,7.4402,7.4036,7.3306,7.3189,7.2718,7.2011,7.2011,7.1934,7.1817,7.1782,7.1806,7.1803,7.1728,7.1697,7.1714,7.1704,7.1697,7.1598,7.0784,7.0486,7.0518,7.0587,7.1081,7.1703,7.1626,7.1614,7.1622,7.1622,7.1645,7.1711,7.1711,7.1114,7.0321,6.9617,6.865,6.7752,6.7178,6.6805,6.6633,6.6633,6.6055,6.5558,6.5558,6.513,6.4752,6.4782,6.4916,6.5453,6.6886,6.7119,6.7389,6.8052,6.8847,6.9289,6.9294,6.9289,6.8985,6.8268,6.8227,6.7913,6.7172,6.7133,6.7475,6.819,6.8229,6.8582,6.9286,6.9223,6.9658,7.0469,6.8964,6.8691,6.9535,7.0238,7.051,7.0545,7.1226,7.0913,6.9939,6.9133,6.8192,6.7302,6.736,6.7835,6.8486,6.8589,6.9274,7.017,6.1719,6.2305,6.2851,6.2969,6.4258,6.5312,6.5545,6.6249,6.703,6.7842,6.7918,6.8269,6.9129,7.0565,7.1887,7.2863,7.379,7.4642,7.5424,7.5658,7.6127,7.6906,7.6928,7.6926,7.6903,7.6924,7.6123,7.4503,7.4503,7.4414,7.4195,7.3529,7.3088,7.2908,7.2908,7.2518,7.1817,7.1785,7.1809,7.1803,7.1728,7.1711,7.1708,7.1715,7.1711,7.1598,7.0775,7.0515,7.0583,7.1294,7.1605,7.1701,7.1703,7.1675,7.1701,7.1701,7.1704,7.1708,7.1708,7.1092,7.048,7.0359,6.9098,6.8068,6.8685,6.7714,6.6705,6.6705,6.6587,6.65,6.65,6.7048,6.7489,6.7551,6.8158,6.8697,6.8914,6.894,6.9005,6.9082,6.9221,6.9297,6.9319,6.9302,6.926,6.9128,6.9109,6.9058,6.8941,6.8941,6.9016,6.9131,6.9131,6.917,6.9286,6.9284,6.9679,7.0508,7.0233,7.0544,7.1287,7.1365,7.1407,7.1438,7.1498,7.0564,6.9052,6.8862,6.7849,6.6451,6.7128,6.7487,6.7675,6.8357,6.9683,7.0921,6.1797,6.2383,6.3164,6.3633,6.4765,6.5937,6.6913,6.7383,6.789,6.8709,6.8822,6.917,7.0033,7.1668,7.3067,7.396,7.4781,7.5443,7.5787,7.6256,7.6681,7.7062,7.7094,7.7094,7.7101,7.7094,7.6734,7.5947,7.5936,7.517,7.3729,7.4314,7.3795,7.2401,7.2869,7.2635,7.1817,7.1806,7.1797,7.1794,7.1782,7.1764,7.1748,7.1745,7.1745,7.1709,7.1332,7.1222,7.1251,7.1594,7.1715,7.1738,7.1704,7.1704,7.1715,7.1715,7.1745,7.1773,7.1754,7.1516,7.116,7.0698,6.9972,6.9364,6.9273,6.8683,6.8138,6.8138,6.8169,6.8154,6.8154,6.8468,6.8754,6.8827,6.9087,6.9469,6.9997,7.006,7.0197,7.069,7.0315,7.0188,7.0666,7.0697,7.0505,7.0062,7.0013,6.9811,6.9346,6.9307,6.9533,7.0027,7.0027,7.0222,7.0689,7.0689,7.085,7.117,7.117,7.1325,7.1602,7.1602,7.1602,7.1594,7.1536,7.0796,6.9628,6.952,6.8468,6.7031,6.8364,6.9165,6.9629,6.9993,7.0325,7.0391]}]]